[[{"header":{"parameterUnit":"m.s-1","parameterCategory":1,"la1":30.6,"la2":28.766,"lo1":-90.7593,"lo2":-88.6598,"dy":0.0162,"dx":0.0183,"nx":116,"ny":114,"refTime":"2023-09-25T00:00:00:Z","depth":0,"parameterNumber":2,"parameterNumberName":"U-component_of_WINDS"},"data":[0.0,0.0,0.0,0.0,0.0,0.0,0.0,0.0,0.0,0.0,0.0,0.0,0.0,0.0,0.0,0.0,0.0,0.0,0.0,0.0,0.0,0.0,0.0,0.0,0.0,0.0,0.0,0.0,0.0,0.0,0.0,0.0,0.0,0.0,0.0,0.0,0.0,0.0,0.0,0.0,0.0,0.0,0.0,0.0,0.0,0.0,0.0,0.0,0.0,0.0,0.0,0.0,0.0,0.0,0.0,0.0,0.0,0.0,0.0,0.0,0.0,0.0,0.0,0.0,0.0,0.0,0.0,0.0,0.0,0.0,0.0,0.0,0.0,0.0,0.0,0.0,0.0,0.0,0.0,0.0,0.0,0.0,0.0,0.0,0.0,0.0,0.0,0.0,0.0,0.0,0.0,0.0,0.0,0.0,0.0,0.0,0.0,0.0,0.0,0.0,0.0,0.0,0.0,0.0,0.0,0.0,0.0,0.0,0.0,0.0,0.0,0.0,0.0,0.0,0.0,0.0,0.0,0.0,0.0,0.0,0.0,0.0,0.0,0.0,0.0,0.0,0.0,0.0,0.0,0.0,0.0,0.0,0.0,0.0,0.0,0.0,0.0,0.0,0.0,0.0,0.0,0.0,0.0,0.0,0.0,0.0,0.0,0.0,0.0,0.0,0.0,0.0,0.0,0.0,0.0,0.0,0.0,0.0,0.0,0.0,0.0,0.0,0.0,0.0,0.0,0.0,0.0,0.0,0.0,0.0,0.0,0.0,0.0,0.0,0.0,0.0,0.0,0.0,0.0,0.0,0.0,0.0,0.0,0.0,0.0,0.0,0.0,0.0,0.0,0.0,0.0,0.0,0.0,0.0,0.0,0.0,0.0,0.0,0.0,0.0,0.0,0.0,0.0,0.0,0.0,0.0,0.0,0.0,0.0,0.0,0.0,0.0,0.0,0.0,0.0,0.0,0.0,0.0,0.0,0.0,0.0,0.0,0.0,0.0,0.0,0.0,0.0,0.0,0.0,0.0,0.0,0.0,0.0,0.0,0.0,0.0,0.0,0.0,0.0,0.0,0.0,0.0,0.0,0.0,0.0,0.0,0.0,0.0,0.0,0.0,0.0,0.0,0.0,0.0,0.0,0.0,0.0,0.0,0.0,0.0,0.0,0.0,0.0,0.0,0.0,0.0,0.0,0.0,0.0,0.0,0.0,0.0,0.0,0.0,0.0,0.0,0.0,0.0,0.0,0.0,0.0,0.0,0.0,0.0,0.0,0.0,0.0,0.0,0.0,0.0,0.0,0.0,0.0,0.0,0.0,0.0,0.0,0.0,0.0,0.0,0.0,0.0,0.0,0.0,0.0,0.0,0.0,0.0,0.0,0.0,0.0,0.0,0.0,0.0,0.0,0.0,0.0,0.0,0.0,0.0,0.0,0.0,0.0,0.0,0.0,0.0,0.0,0.0,0.0,0.0,0.0,0.0,0.0,0.0,0.0,0.0,0.0,0.0,0.0,0.0,0.0,0.0,0.0,0.0,0.0,0.0,0.0,0.0,0.0,0.0,0.0,0.0,0.0,0.0,0.0,0.0,0.0,0.0,0.0,0.0,0.0,0.0,0.0,0.0,0.0,0.0,0.0,0.0,0.0,0.0,0.0,0.0,0.0,0.0,0.0,0.0,0.0,0.0,0.0,0.0,0.0,0.0,0.0,0.0,0.0,0.0,0.0,0.0,0.0,0.0,0.0,0.0,0.0,0.0,0.0,0.0,0.0,0.0,0.0,0.0,0.0,0.0,0.0,0.0,0.0,0.0,0.0,0.0,0.0,0.0,0.0,0.0,0.0,0.0,0.0,0.0,0.0,0.0,0.0,0.0,0.0,0.0,0.0,0.0,0.0,0.0,0.0,0.0,0.0,0.0,0.0,0.0,0.0,0.0,0.0,0.0,0.0,0.0,0.0,0.0,0.0,0.0,0.0,0.0,0.0,0.0,0.0,0.0,0.0,0.0,0.0,0.0,0.0,0.0,0.0,0.0,0.0,0.0,0.0,0.0,0.0,0.0,0.0,0.0,0.0,0.0,0.0,0.0,0.0,0.0,0.0,0.0,0.0,0.0,0.0,0.0,0.0,0.0,0.0,0.0,0.0,0.0,0.0,0.0,0.0,0.0,0.0,0.0,0.0,0.0,0.0,0.0,0.0,0.0,0.0,0.0,0.0,0.0,0.0,0.0,0.0,0.0,0.0,0.0,0.0,0.0,0.0,0.0,0.0,0.0,0.0,0.0,0.0,0.0,0.0,0.0,0.0,0.0,0.0,0.0,0.0,0.0,0.0,0.0,0.0,0.0,0.0,0.0,0.0,0.0,0.0,0.0,0.0,0.0,0.0,0.0,0.0,0.0,0.0,0.0,0.0,0.0,0.0,0.0,0.0,0.0,0.0,0.0,0.0,0.0,0.0,0.0,0.0,0.0,0.0,0.0,0.0,0.0,0.0,0.0,0.0,0.0,0.0,0.0,0.0,0.0,0.0,0.0,0.0,0.0,0.0,0.0,0.0,0.0,0.0,0.0,0.0,0.0,0.0,0.0,0.0,0.0,0.0,0.0,0.0,0.0,0.0,0.0,0.0,0.0,0.0,0.0,0.0,0.0,0.0,0.0,0.0,0.0,0.0,0.0,0.0,0.0,0.0,0.0,0.0,0.0,0.0,0.0,0.0,0.0,0.0,0.0,0.0,0.0,0.0,0.0,0.0,0.0,0.0,0.0,0.0,0.0,0.0,0.0,0.0,0.0,0.0,0.0,0.0,0.0,0.0,0.0,0.0,0.0,0.0,0.0,0.0,0.0,0.0,0.0,0.0,0.0,0.0,0.0,0.0,0.0,0.0,0.0,0.0,0.0,0.0,0.0,0.0,0.0,0.0,0.0,0.0,0.0,0.0,0.0,0.0,0.0,0.0,0.0,0.0,0.0,0.0,0.0,0.0,0.0,0.0,0.0,0.0,0.0,0.0,0.0,0.0,0.0,0.0,0.0,0.0,0.0,0.0,0.0,0.0,0.0,0.0,0.0,0.0,0.0,0.0,0.0,0.0,0.0,0.0,0.0,0.0,0.0,0.0,0.0,0.0,0.0,0.0,0.0,0.0,0.0,0.0,0.0,0.0,0.0,0.0,0.0,0.0,0.0,0.0,0.0,0.0,0.0,0.0,0.0,0.0,0.0,0.0,0.0,0.0,0.0,0.0,0.0,0.0,0.0,0.0,0.0,0.0,0.0,0.0,0.0,0.0,0.0,0.0,0.0,0.0,0.0,0.0,0.0,0.0,0.0,0.0,0.0,0.0,0.0,0.0,0.0,0.0,0.0,0.0,0.0,0.0,0.0,0.0,0.0,0.0,0.0,0.0,0.0,0.0,0.0,0.0,0.0,0.0,0.0,0.0,0.0,0.0,0.0,0.0,0.0,0.0,0.0,0.0,0.0,0.0,0.0,0.0,0.0,0.0,0.0,0.0,0.0,0.0,0.0,0.0,0.0,0.0,0.0,0.0,0.0,0.0,0.0,0.0,0.0,0.0,0.0,0.0,0.0,0.0,0.0,0.0,0.0,0.0,0.0,0.0,0.0,0.0,0.0,0.0,0.0,0.0,0.0,0.0,0.0,0.0,0.0,0.0,0.0,0.0,0.0,0.0,0.0,0.0,0.0,0.0,0.0,0.0,0.0,0.0,0.0,0.0,0.0,0.0,0.0,0.0,0.0,0.0,0.0,0.0,0.0,0.0,0.0,0.0,0.0,0.0,0.0,0.0,0.0,0.0,0.0,0.0,0.0,0.0,0.0,0.0,0.0,0.0,0.0,0.0,0.0,0.0,0.0,0.0,0.0,0.0,0.0,0.0,0.0,0.0,0.0,0.0,0.0,0.0,0.0,0.0,0.0,0.0,0.0,0.0,0.0,0.0,0.0,0.0,0.0,0.0,0.0,0.0,0.0,0.0,0.0,0.0,0.0,0.0,0.0,0.0,0.0,0.0,0.0,0.0,0.0,0.0,0.0,0.0,0.0,0.0,0.0,0.0,0.0,0.0,0.0,0.0,0.0,0.0,0.0,0.0,0.0,0.0,0.0,0.0,0.0,0.0,0.0,0.0,0.0,0.0,0.0,0.0,0.0,0.0,0.0,0.0,0.0,0.0,0.0,0.0,0.0,0.0,0.0,0.0,0.0,0.0,0.0,0.0,0.0,0.0,0.0,0.0,0.0,0.0,0.0,0.0,0.0,0.0,0.0,0.0,0.0,0.0,0.0,0.0,0.0,0.0,0.0,0.0,0.0,0.0,0.0,0.0,0.0,0.0,0.0,0.0,0.0,0.0,0.0,0.0,0.0,0.0,0.0,0.0,0.0,0.0,0.0,0.0,0.0,0.0,0.0,0.0,0.0,0.0,0.0,0.0,0.0,0.0,0.0,0.0,0.0,0.0,0.0,0.0,0.0,0.0,0.0,0.0,0.0,0.0,0.0,0.0,0.0,0.0,0.0,0.0,0.0,0.0,0.0,0.0,0.0,0.0,0.0,0.0,0.0,0.0,0.0,0.0,0.0,0.0,0.0,0.0,0.0,0.0,0.0,0.0,0.0,0.0,0.0,0.0,0.0,0.0,0.0,0.0,0.0,0.0,0.0,0.0,0.0,0.0,0.0,0.0,0.0,0.0,0.0,0.0,0.0,0.0,0.0,0.0,0.0,0.0,0.0,0.0,0.0,0.0,0.0,0.0,0.0,0.0,0.0,0.0,0.0,0.0,0.0,0.0,0.0,0.0,0.0,0.0,0.0,0.0,0.0,0.0,0.0,0.0,0.0,0.0,0.0,0.0,0.0,0.0,0.0,0.0,0.0,0.0,0.0,0.0,0.0,0.0,0.0,0.0,0.0,0.0,0.0,0.0,0.0,0.0,0.0,0.0,0.0,0.0,0.0,0.0,0.0,0.0,0.0,0.0,0.0,0.0,0.0,0.0,0.0,0.0,0.0,0.0,0.0,0.0,0.0,0.0,0.0,0.0,0.0,0.0,0.0,0.0,0.0,0.0,0.0,0.0,0.0,0.0,0.0,0.0,0.0,0.0,0.0,0.0,0.0,0.0,0.0,0.0,0.0,0.0,0.0,0.0,0.0,0.0,0.0,0.0,0.0,0.0,0.0,0.0,0.0,0.0,0.0,0.0,0.0,0.0,0.0,0.0,0.0,0.0,0.0,0.0,0.0,0.0,0.0,0.0,0.0,0.0,0.0,0.0,0.0,0.0,0.0,0.0,0.0,0.0,0.0,0.0,0.0,0.0,0.0,0.0,0.0,0.0,0.0,0.0,0.0,0.0,0.0,0.0,0.0,0.0,0.0,0.0,0.0,0.0,0.0,0.0,0.0,0.0,0.0,0.0,0.0,0.0,0.0,0.0,0.0,0.0,0.0,0.0,0.0,0.0,0.0,0.0,0.0,0.0,0.0,0.0,0.0,0.0,0.0,0.0,0.0,0.0,0.0,0.0,0.0,0.0,0.0,0.0,0.0,0.0,0.0,0.0,0.0,0.0,0.0,0.0,0.0,0.0,0.0,0.0,0.0,0.0,0.0,0.0,0.0,0.0,0.0,0.0,0.0,0.0,0.0,0.0,0.0,0.0,0.0,0.0,0.0,0.0,0.0,0.0,0.0,0.0,0.0,0.0,0.0,0.0,0.0,0.0,0.0,0.0,0.0,0.0,0.0,0.0,0.0,0.0,0.0,0.0,0.0,0.0,0.0,0.0,0.0,0.0,0.0,0.0,0.0,0.0,0.0,0.0,0.0,0.0,0.0,0.0,0.0,0.0,0.0,0.0,0.0,0.0,0.0,0.0,0.0,0.0,0.0,0.0,0.0,0.0,0.0,0.0,0.0,0.0,0.0,0.0,0.0,0.0,0.0,0.0,0.0,0.0,0.0,0.0,0.0,0.0,0.0,0.0,0.0,0.0,0.0,0.0,0.0,0.0,0.0,0.0,0.0,0.0,0.0,0.0,0.0,0.0,0.0,0.0,0.0,0.0,0.0,0.0,0.0,0.0,0.0,0.0,0.0,0.0,0.0,0.0,0.0,0.0,0.0,0.0,0.0,0.0,0.0,0.0,0.0,0.45,0.0,0.0,0.0,0.0,0.0,0.0,0.0,0.0,0.0,0.0,0.0,0.0,0.0,0.0,0.0,0.0,0.0,0.0,0.0,0.0,0.0,0.0,0.0,0.0,0.0,0.0,0.0,0.0,0.0,0.0,0.0,0.0,0.0,0.0,0.0,0.0,0.0,0.0,0.595,0.6007,0.6233,0.658,0.6743,0.6761,0.6706,0.0,0.0,0.0,0.0,0.0,0.0,0.0,0.0,0.0,0.0,0.0,0.0,0.0,0.0,0.0,0.0,0.0,0.0,0.0,0.0,0.0,0.0,0.0,0.0,0.0,0.0,0.0,0.0,0.0,0.0,0.0,0.0,0.0,0.0,0.0,0.0,0.0,0.0,0.0,0.0,0.0,0.0,0.0,0.0,0.0,0.0,0.0,0.0,0.0,0.0,0.0,0.0,0.0,0.0,0.0,0.0,0.0,0.0,0.0,0.0,0.0,0.0,0.0,0.0,0.0,0.0,0.0,0.0,0.0,0.0,0.0,0.4965,0.0,0.0,0.0,0.0,0.0,0.0,0.0,0.0,0.0,0.0,0.0,0.0,0.0,0.0,0.0,0.0,0.0,0.0,0.0,0.0,0.0,0.0,0.0,0.7715,0.768,0.7829,0.7581,0.7271,0.0,0.0,0.0,0.0,0.0,0.0,0.6024,0.5826,0.5777,0.5863,0.6251,0.663,0.7019,0.6888,0.6784,0.6678,0.6457,0.0,0.0,0.0,0.0,0.0,0.0,0.0,0.0,0.0,0.0,0.0,0.0,0.0,0.0,0.0,0.0,0.0,0.0,0.0,0.0,0.0,0.0,0.0,0.0,0.0,0.0,0.0,0.0,0.0,0.0,0.0,0.0,0.0,0.0,0.0,0.0,0.0,0.0,0.0,0.0,0.0,0.0,0.0,0.0,0.0,0.0,0.0,0.0,0.0,0.0,0.0,0.0,0.0,0.0,0.0,0.0,0.0,0.0,0.0,0.0,0.0,0.0,0.0,0.2317,0.2343,0.2409,0.2347,0.2477,0.2783,0.3677,0.4379,0.4958,0.5663,0.0,0.0,0.0,0.0,0.0,0.0,0.0,0.0,0.0,0.0,0.0,0.0,0.0,0.0,0.0,0.0,0.0,0.0,0.0,0.0,0.0,0.729,0.7254,0.7223,0.7184,0.7012,0.6657,0.0,0.0,0.0,0.0,0.0,0.5752,0.5551,0.5673,0.6156,0.6712,0.7168,0.7509,0.7379,0.7365,0.7428,0.6885,0.6641,0.6634,0.0,0.0,0.0,0.0,0.0,0.0,0.0,0.0,0.0,0.0,0.0,0.0,0.0,0.0,0.0,0.0,0.0,0.0,0.0,0.0,0.0,0.0,0.0,0.0,0.0,0.0,0.0,0.0,0.0,0.0,0.0,0.0,0.0,0.0,0.0,0.0,0.0,0.0,0.0,0.0,0.0,0.2783,0.2687,0.0,0.0,0.0,0.0,0.0,0.0,0.0,0.0,0.0,0.0,0.0,0.0,0.0,0.2426,0.2521,0.2543,0.2587,0.2656,0.2694,0.2765,0.2808,0.2801,0.2685,0.2482,0.2912,0.0,0.4521,0.5083,0.0,0.0,0.0,0.0,0.0,0.0,0.0,0.0,0.0,0.0,0.0,0.0,0.0,0.0,0.0,0.0,0.0,0.0,0.0,0.0,0.0,0.6881,0.6998,0.7032,0.7042,0.6904,0.6574,0.6241,0.0,0.0,0.0,0.556,0.5638,0.5635,0.5964,0.6659,0.7149,0.7597,0.7998,0.7818,0.7828,0.7985,0.7611,0.7198,0.6803,0.6756,0.0,0.0,0.0,0.0,0.0,0.0,0.0,0.0,0.0,0.0,0.0,0.0,0.0,0.0,0.0,0.0,0.0,0.0,0.0,0.0,0.0,0.0,0.0,0.0,0.0,0.0,0.0,0.0,0.0,0.0,0.0,0.0,0.0,0.0,0.0,0.0,0.0,0.0,0.0,0.3045,0.2729,0.2553,0.2556,0.2477,0.0,0.0,0.0,0.0,0.0,0.0,0.0,0.0,0.0,0.2057,0.21,0.2163,0.2252,0.2308,0.2322,0.2356,0.2424,0.2481,0.2497,0.2497,0.2432,0.2302,0.2411,0.2774,0.3405,0.4246,0.5183,0.6158,0.0,0.0,0.0,0.0,0.8433,0.8387,0.0,0.0,0.0,0.0,0.0,0.0,0.0,0.0,0.0,0.0,0.0,0.0,0.6301,0.658,0.6817,0.6993,0.7072,0.6972,0.6623,0.6248,0.5947,0.5767,0.55,0.5416,0.5518,0.5762,0.6273,0.7079,0.7493,0.793,0.8391,0.8207,0.8221,0.8384,0.8167,0.7697,0.7127,0.7053,0.6888,0.6654,0.0,0.0,0.0,0.0,0.0,0.0,0.0,0.0,0.0,0.0,0.0,0.0,0.0,0.0,0.0,0.0,0.0,0.0,0.0,0.0,0.0,0.0,0.0,0.0,0.0,0.0,0.0,0.0,0.0,0.0,0.0,0.0,0.0,0.0,0.0,0.0,0.0,0.3007,0.2744,0.2492,0.2518,0.2406,0.0,0.0,0.0,0.0,0.0,0.0,0.168,0.1714,0.18,0.1861,0.1915,0.1969,0.2053,0.2105,0.211,0.2133,0.2163,0.2212,0.2212,0.2212,0.2212,0.221,0.2146,0.228,0.2592,0.3559,0.4501,0.5376,0.6098,0.6686,0.7219,0.7858,0.815,0.833,0.0,0.0,0.0,0.0,0.0,0.0,0.0,0.0,0.0,0.0,0.0,0.5682,0.607,0.6415,0.6722,0.6979,0.7238,0.7233,0.6891,0.6565,0.6235,0.5902,0.5522,0.5315,0.5321,0.5824,0.6486,0.7285,0.7756,0.8213,0.8684,0.8479,0.8492,0.8674,0.8344,0.803,0.7746,0.7491,0.7255,0.7024,0.6665,0.0,0.0,0.0,0.0,0.0,0.0,0.0,0.0,0.0,0.0,0.0,0.0,0.0,0.0,0.0,0.0,0.0,0.0,0.0,0.0,0.0,0.0,0.0,0.0,0.0,0.0,0.0,0.0,0.0,0.0,0.0,0.0,0.0,0.0,0.0,0.0,0.0,0.0,0.2626,0.2654,0.0,0.0,0.0,0.0,0.1724,0.1703,0.1746,0.1866,0.1901,0.1958,0.208,0.2081,0.2114,0.2179,0.2177,0.2194,0.2196,0.2191,0.2206,0.2206,0.2206,0.2206,0.2204,0.2208,0.2349,0.2639,0.3347,0.3885,0.436,0.537,0.6022,0.6526,0.7273,0.778,0.8184,0.0,0.0,0.0,0.0,0.0,0.0,0.0,0.0,0.5463,0.5407,0.5608,0.5822,0.5948,0.6656,0.7181,0.7377,0.7749,0.7732,0.7129,0.67,0.6213,0.5658,0.5291,0.5239,0.5554,0.6219,0.6806,0.7366,0.7874,0.8264,0.8496,0.8447,0.845,0.8493,0.8388,0.8353,0.8344,0.7952,0.7634,0.7381,0.7022,0.679,0.0,0.0,0.0,0.0,0.0,0.0,0.0,0.0,0.0,0.0,0.0,0.0,0.0,0.0,0.0,0.0,0.0,0.0,0.0,0.0,0.0,0.0,0.0,0.0,0.0,0.0,0.0,0.0,0.0,0.0,0.0,0.0,0.0,0.0,0.0,0.0,0.0,0.2554,0.2448,0.0,0.1874,0.1823,0.183,0.1829,0.1863,0.1924,0.2024,0.2077,0.2127,0.2179,0.2193,0.2268,0.2334,0.229,0.2269,0.2343,0.2279,0.2275,0.233,0.2274,0.2266,0.2264,0.2271,0.2311,0.2378,0.2772,0.323,0.3748,0.4263,0.4828,0.541,0.6225,0.6912,0.7547,0.0,0.0,0.0,0.0,0.0,0.0,0.0,0.0,0.5389,0.5425,0.5727,0.6005,0.618,0.7014,0.765,0.7817,0.8158,0.8079,0.7388,0.6811,0.6211,0.5568,0.5296,0.5418,0.5935,0.6509,0.7095,0.767,0.8057,0.8343,0.8516,0.8516,0.8516,0.8513,0.8459,0.8571,0.8774,0.8333,0.8032,0.7862,0.7435,0.7154,0.697,0.0,0.0,0.0,0.0,0.0,0.0,0.0,0.0,0.0,0.0,0.0,0.0,0.0,0.0,0.0,0.0,0.0,0.0,0.0,0.0,0.0,0.0,0.0,0.0,0.0,0.0,0.0,0.0,0.0,0.0,0.0,0.0,0.0,0.0,0.0,0.2583,0.2417,0.2348,0.22,0.1941,0.1895,0.193,0.2001,0.2044,0.2097,0.2167,0.2228,0.227,0.2254,0.2301,0.2373,0.2393,0.2373,0.2341,0.2408,0.2367,0.2353,0.2362,0.2305,0.2296,0.2295,0.2303,0.2274,0.2206,0.2397,0.2661,0.3028,0.3407,0.3848,0.4403,0.5222,0.6064,0.6938,0.0,0.0,0.0,0.0,0.0,0.0,0.0,0.5335,0.5392,0.5662,0.587,0.6202,0.6736,0.7453,0.8021,0.8279,0.8411,0.8231,0.7638,0.6905,0.6242,0.5641,0.557,0.5827,0.6409,0.6698,0.7282,0.8181,0.8314,0.8505,0.8678,0.8678,0.8678,0.8672,0.8546,0.8682,0.8975,0.8584,0.8448,0.8472,0.7868,0.7621,0.755,0.0,0.0,0.0,0.0,0.0,0.0,0.0,0.0,0.0,0.0,0.0,0.0,0.0,0.0,0.0,0.0,0.0,0.0,0.0,0.0,0.0,0.0,0.0,0.0,0.0,0.0,0.0,0.0,0.0,0.0,0.0,0.0,0.0,0.2224,0.2364,0.2435,0.2235,0.2371,0.2387,0.2133,0.2097,0.2128,0.2193,0.2216,0.2228,0.2293,0.235,0.2418,0.2418,0.241,0.2389,0.2389,0.2387,0.241,0.2418,0.2416,0.2363,0.2297,0.2297,0.2296,0.2295,0.2304,0.2275,0.221,0.2214,0.2184,0.2251,0.2842,0.3229,0.3548,0.4286,0.5217,0.6389,0.0,0.0,0.0,0.0,0.0,0.0,0.0,0.5247,0.5356,0.5529,0.5893,0.6305,0.6748,0.7541,0.8066,0.8091,0.8351,0.8152,0.7371,0.6927,0.6527,0.6128,0.6554,0.687,0.6975,0.7527,0.7867,0.7975,0.816,0.8298,0.8329,0.8329,0.8329,0.8327,0.8294,0.847,0.8773,0.8572,0.8711,0.9007,0.8199,0.7887,0.7854,0.0,0.0,0.0,0.0,0.0,0.0,0.0,0.0,0.0,0.0,0.0,0.0,0.0,0.0,0.0,0.0,0.0,0.0,0.0,0.0,0.0,0.0,0.0,0.0,0.0,0.0,0.0,0.0,0.0,0.0,0.0,0.0,0.2062,0.2376,0.2421,0.2432,0.2483,0.2372,0.2273,0.2258,0.2236,0.2262,0.2349,0.2332,0.2355,0.2386,0.2423,0.2482,0.2482,0.2474,0.2489,0.2489,0.2467,0.249,0.2482,0.2437,0.2373,0.2365,0.2306,0.2296,0.2296,0.2288,0.2305,0.2276,0.221,0.2215,0.2218,0.238,0.2629,0.299,0.3647,0.4969,0.6611,0.0,0.0,0.0,0.0,0.0,0.0,0.0,0.5147,0.5249,0.5577,0.604,0.6519,0.7046,0.7736,0.8187,0.8217,0.8263,0.7994,0.7323,0.6927,0.6713,0.672,0.7211,0.7509,0.761,0.8066,0.8216,0.81,0.8242,0.8304,0.8383,0.8383,0.8383,0.8386,0.8437,0.8558,0.8743,0.8743,0.9003,0.9378,0.8778,0.8464,0.8351,0.8018,0.7729,0.7446,0.7283,0.7238,0.7192,0.7043,0.0,0.0,0.0,0.0,0.0,0.0,0.0,0.0,0.0,0.0,0.0,0.0,0.0,0.0,0.0,0.0,0.0,0.0,0.0,0.0,0.0,0.0,0.0,0.0,0.1912,0.1997,0.2327,0.2347,0.2343,0.2447,0.2331,0.2279,0.2341,0.2346,0.2371,0.2431,0.2435,0.2448,0.2479,0.2536,0.254,0.2489,0.2505,0.2515,0.2515,0.2485,0.2501,0.2449,0.2401,0.2371,0.2358,0.2304,0.2296,0.2296,0.2296,0.2317,0.2288,0.2223,0.2193,0.0,0.0,0.0,0.0,0.0,0.4669,0.6092,0.0,0.0,0.0,0.0,0.0,0.0,0.0,0.5095,0.5154,0.5698,0.6202,0.674,0.7387,0.7954,0.8332,0.8423,0.8142,0.7807,0.7423,0.6989,0.6969,0.7406,0.7714,0.7983,0.8274,0.8382,0.8449,0.8437,0.8451,0.8516,0.8628,0.8628,0.8628,0.8633,0.8742,0.8825,0.8885,0.9075,0.9349,0.9651,0.9481,0.9235,0.8936,0.8516,0.8252,0.8037,0.7668,0.7508,0.7471,0.7273,0.0,0.0,0.0,0.0,0.0,0.0,0.0,0.0,0.0,0.0,0.0,0.0,0.0,0.0,0.0,0.0,0.0,0.0,0.0,0.0,0.0,0.0,0.0,0.0,0.1938,0.2052,0.2195,0.2232,0.2249,0.2292,0.2329,0.2332,0.2423,0.2435,0.2461,0.2515,0.2522,0.2534,0.2598,0.0,0.0,0.0,0.0,0.2512,0.2509,0.2482,0.2452,0.2418,0.2391,0.2362,0.2296,0.2296,0.2296,0.2296,0.2296,0.2282,0.2293,0.2224,0.2191,0.2192,0.2199,0.2222,0.2357,0.3331,0.4202,0.5106,0.0,0.0,0.0,0.0,0.0,0.0,0.0,0.5268,0.5367,0.5536,0.6099,0.6702,0.7197,0.789,0.8209,0.796,0.7864,0.7719,0.7416,0.7607,0.7895,0.8248,0.8634,0.8771,0.8687,0.875,0.8717,0.8554,0.8652,0.8764,0.8846,0.8846,0.8846,0.8846,0.887,0.9054,0.9362,0.9406,0.9684,1.0081,1.0038,0.9804,0.9403,0.8953,0.8686,0.8554,0.8343,0.8219,0.8097,0.7895,0.778,0.7706,0.759,0.7389,0.0,0.0,0.0,0.0,0.0,0.0,0.0,0.0,0.0,0.0,0.0,0.0,0.0,0.0,0.0,0.0,0.0,0.0,0.0,0.1934,0.2066,0.2192,0.2257,0.2344,0.2369,0.2362,0.241,0.2447,0.2498,0.2543,0.2578,0.259,0.2572,0.2577,0.2601,0.2599,0.2586,0.2515,0.2515,0.2502,0.2516,0.251,0.248,0.2387,0.0,0.0,0.2296,0.2296,0.2296,0.2296,0.2296,0.2293,0.2284,0.2232,0.2213,0.2197,0.2191,0.2357,0.2627,0.2828,0.3393,0.4146,0.0,0.0,0.0,0.0,0.0,0.0,0.0,0.5275,0.5318,0.5479,0.5877,0.6309,0.6697,0.713,0.7337,0.7164,0.7247,0.7366,0.7485,0.7906,0.8387,0.8937,0.9111,0.9178,0.9116,0.8966,0.883,0.8713,0.8776,0.8834,0.8916,0.909,0.9194,0.9197,0.9468,0.9707,0.9917,1.0089,1.025,1.0386,1.0448,1.0248,0.9903,0.9494,0.9195,0.8941,0.8764,0.8567,0.8353,0.8049,0.7852,0.7671,0.7453,0.7093,0.6605,0.0,0.0,0.0,0.0,0.0,0.0,0.0,0.0,0.0,0.0,0.0,0.0,0.0,0.0,0.1751,0.1785,0.0,0.1953,0.2089,0.2187,0.2281,0.2386,0.2427,0.2441,0.2463,0.2489,0.252,0.2551,0.2581,0.2612,0.2601,0.2616,0.2611,0.2583,0.2581,0.256,0.2516,0.2515,0.25,0.2508,0.2454,0.2423,0.2415,0.2363,0.2348,0.2296,0.2296,0.2296,0.2296,0.2296,0.2288,0.2307,0.2212,0.2196,0.2188,0.2188,0.2289,0.2458,0.2627,0.2929,0.3329,0.0,0.0,0.0,0.0,0.0,0.0,0.0,0.5353,0.5306,0.5482,0.5703,0.5957,0.6202,0.6377,0.6498,0.649,0.6716,0.7057,0.7557,0.8102,0.8733,0.9395,0.9342,0.9312,0.9415,0.9023,0.8831,0.8804,0.8907,0.8981,0.9089,0.9509,0.9684,0.9721,1.0145,1.0374,1.0445,1.0728,1.0818,1.077,1.0779,1.0612,1.0287,0.9981,0.9588,0.9203,0.8914,0.8605,0.8275,0.7872,0.7528,0.7244,0.7039,0.6575,0.596,0.5367,0.4474,0.0,0.0,0.0,0.0,0.0,0.0,0.0,0.0,0.1667,0.174,0.1801,0.1826,0.1871,0.1916,0.2001,0.2078,0.2194,0.2289,0.2352,0.2493,0.2507,0.2507,0.2507,0.2513,0.2536,0.2586,0.2596,0.2581,0.2593,0.2602,0.2593,0.2603,0.2602,0.2575,0.2516,0.2515,0.2497,0.2499,0.2435,0.2405,0.2369,0.2308,0.2296,0.2296,0.2296,0.2296,0.2296,0.229,0.2305,0.227,0.222,0.2216,0.2188,0.2188,0.2188,0.2222,0.2492,0.2593,0.2694,0.0,0.0,0.0,0.0,0.0,0.0,0.0,0.0,0.574,0.5537,0.5829,0.6044,0.5961,0.6286,0.6468,0.641,0.6823,0.7227,0.7567,0.8368,0.9051,0.9564,0.9342,0.9282,0.9385,0.891,0.8721,0.8895,0.9241,0.9535,0.9803,1.0194,1.0374,1.0377,1.0464,1.0653,1.0914,1.0946,1.1113,1.1316,1.1182,1.0887,1.0436,1.0172,0.9777,0.9291,0.8752,0.822,0.7722,0.7328,0.674,0.6167,0.6142,0.5757,0.5205,0.4594,0.3886,0.3127,0.2535,0.2027,0.1657,0.1632,0.1681,0.1712,0.0,0.1732,0.1809,0.1869,0.1974,0.2073,0.2082,0.2125,0.2195,0.2275,0.2354,0.2423,0.2502,0.2507,0.2507,0.2507,0.2493,0.2512,0.2519,0.2584,0.2613,0.2605,0.2591,0.2593,0.2603,0.2602,0.2575,0.2516,0.2515,0.2487,0.2429,0.2387,0.2357,0.2301,0.2298,0.2296,0.2296,0.2296,0.2296,0.2295,0.2306,0.2263,0.221,0.2203,0.2216,0.2188,0.2188,0.2188,0.2188,0.2256,0.2256,0.2323,0.0,0.0,0.0,0.0,0.0,0.0,0.0,0.0,0.0,0.5595,0.5709,0.5834,0.5903,0.605,0.6214,0.6384,0.6723,0.7148,0.7678,0.8459,0.9149,0.968,0.9574,0.951,0.9572,0.9127,0.901,0.9264,0.9434,0.9774,1.0275,1.0603,1.0786,1.0786,1.1038,1.1221,1.1368,1.1368,1.1389,1.1379,1.1257,1.0927,1.046,1.0164,0.9627,0.8983,0.841,0.7699,0.0,0.6453,0.5832,0.5235,0.5116,0.4698,0.4182,0.3734,0.3188,0.2613,0.2092,0.1799,0.1676,0.1712,0.1757,0.1837,0.1872,0.193,0.1992,0.2071,0.2117,0.2158,0.2206,0.2246,0.2292,0.0,0.2399,0.2434,0.2503,0.2507,0.2494,0.2458,0.2443,0.2476,0.251,0.2526,0.2552,0.2598,0.2613,0.2608,0.2619,0.2617,0.2558,0.2516,0.2515,0.2493,0.245,0.2432,0.2402,0.2359,0.2305,0.2296,0.2296,0.2296,0.2287,0.2307,0.2242,0.224,0.2199,0.2215,0.22,0.2188,0.2188,0.2188,0.2188,0.2188,0.2188,0.2222,0.0,0.0,0.0,0.0,0.0,0.0,0.0,0.0,0.0,0.0,0.5726,0.582,0.5933,0.5948,0.6067,0.6371,0.6646,0.7086,0.776,0.8415,0.9068,0.9704,0.9673,0.9675,0.9765,0.9437,0.9364,0.9587,0.9693,1.0015,1.0524,1.0886,1.1087,1.1126,1.1412,1.1579,1.1584,1.1584,1.1531,1.1372,1.1182,1.0833,1.0392,0.9978,0.9229,0.8362,0.7882,0.7107,0.6154,0.5446,0.474,0.4115,0.3974,0.3612,0.3189,0.2962,0.2618,0.223,0.1804,0.1701,0.1756,0.1817,0.1884,0.1987,0.2037,0.208,0.2156,0.2197,0.2213,0.2226,0.2271,0.2292,0.2326,0.2399,0.2425,0.2444,0.2504,0.25,0.2433,0.2373,0.2378,0.2408,0.2459,0.2479,0.2514,0.2573,0.2577,0.2572,0.26,0.2599,0.2586,0.2515,0.2515,0.25,0.2508,0.2439,0.2408,0.2415,0.2348,0.2296,0.2296,0.2296,0.2277,0.2277,0.222,0.2189,0.2186,0.2197,0.2188,0.2188,0.2188,0.2188,0.2188,0.2188,0.2188,0.2188,0.0,0.0,0.0,0.0,0.0,0.0,0.0,0.0,0.0,0.0,0.0,0.0,0.0,0.609,0.6173,0.6381,0.6646,0.7086,0.776,0.8241,0.8832,0.9585,0.9532,0.9658,0.9977,0.9789,0.9725,0.9789,1.0196,1.0439,1.0622,1.1002,1.1257,1.1399,1.1399,1.148,1.1584,1.1584,1.1531,1.1365,1.1039,1.0654,1.0254,0.9658,0.8609,0.7396,0.7118,0.6357,0.5277,0.4296,0.3431,0.2765,0.2742,0.2553,0.2348,0.2414,0.2265,0.2046,0.1765,0.1748,0.1822,0.1882,0.1993,0.2107,0.217,0.2208,0.2205,0.2202,0.2209,0.221,0.2212,0.2257,0.2305,0.2374,0.2467,0.2507,0.2507,0.2444,0.2365,0.2305,0.2311,0.2306,0.0,0.2354,0.2413,0.2512,0.2517,0.253,0.2598,0.2599,0.2586,0.2515,0.2515,0.25,0.2508,0.2439,0.2408,0.2415,0.2348,0.2296,0.2296,0.2296,0.2265,0.2212,0.2211,0.2211,0.219,0.2189,0.2188,0.2188,0.2188,0.2188,0.2188,0.2188,0.2188,0.2188,0.0,0.0,0.0,0.0,0.0,0.0,0.0,0.0,0.0,0.0,0.0,0.0,0.0,0.0,0.0,0.0,0.6953,0.7179,0.7648,0.8117,0.8587,0.9112,0.9332,0.9522,0.9655,0.9618,0.969,0.9951,1.0083,1.0372,1.0815,1.0951,1.1101,1.1274,1.1274,1.1302,1.1314,1.1314,1.1233,1.1036,1.0735,1.0378,0.991,0.9284,0.8251,0.7044,0.0,0.5294,0.4224,0.3538,0.2778,0.2107,0.216,0.1984,0.1789,0.1848,0.184,0.1836,0.1786,0.1854,0.1949,0.203,0.2102,0.217,0.2266,0.2237,0.2198,0.2208,0.2163,0.2149,0.2129,0.2141,0.2205,0.2256,0.2334,0.2357,0.2376,0.2387,0.2364,0.2248,0.2284,0.0,0.0,0.0,0.0,0.2411,0.2473,0.2527,0.2538,0.2519,0.2525,0.2515,0.2515,0.2509,0.25,0.2448,0.2418,0.2408,0.232,0.2296,0.2295,0.2313,0.2247,0.221,0.2189,0.2192,0.2188,0.2188,0.2188,0.2188,0.2188,0.2188,0.2188,0.2188,0.2188,0.2188,0.0,0.0,0.0,0.0,0.0,0.0,0.0,0.0,0.0,0.0,0.0,0.0,0.0,0.0,0.0,0.0,0.0,0.7249,0.758,0.7868,0.8231,0.8679,0.893,0.9131,0.9287,0.9343,0.9514,0.9784,0.9837,1.0057,1.0437,1.0488,1.0593,1.0765,1.0765,1.0795,1.088,1.088,1.0731,1.0485,1.0215,0.9795,0.9283,0.8713,0.7737,0.0,0.5655,0.4616,0.355,0.2918,0.2253,0.1693,0.1739,0.1661,0.1539,0.1614,0.1695,0.1791,0.1862,0.1963,0.2091,0.2138,0.2196,0.2243,0.2281,0.2232,0.2201,0.2169,0.2125,0.2049,0.2039,0.205,0.2084,0.2145,0.2252,0.23,0.2293,0.2359,0.2349,0.2236,0.2279,0.2283,0.0,0.0,0.0,0.2403,0.2435,0.2457,0.2507,0.2498,0.2515,0.2515,0.2515,0.2515,0.2515,0.2416,0.2375,0.2353,0.2315,0.2296,0.2295,0.2304,0.2274,0.2209,0.2213,0.2217,0.2188,0.2188,0.2188,0.2188,0.2188,0.2188,0.2188,0.2188,0.2188,0.2188,0.0,0.0,0.0,0.0,0.0,0.0,0.0,0.0,0.0,0.0,0.0,0.0,0.0,0.0,0.0,0.0,0.0,0.0,0.7556,0.7584,0.778,0.8243,0.8393,0.8581,0.8858,0.9046,0.9192,0.9352,0.9469,0.9547,0.9568,0.967,0.9815,0.993,0.993,1.0042,1.0244,1.0244,1.0039,0.9707,0.9442,0.8998,0.8423,0.795,0.7061,0.5996,0.5267,0.432,0.3284,0.2471,0.1891,0.1509,0.1513,0.1551,0.163,0.169,0.1805,0.1907,0.2001,0.2107,0.2212,0.22,0.2236,0.2292,0.2289,0.2227,0.2178,0.2121,0.2029,0.1977,0.1915,0.1952,0.201,0.207,0.2212,0.229,0.2283,0.2355,0.2357,0.23,0.2294,0.0,0.0,0.0,0.0,0.2413,0.0,0.2436,0.2503,0.2497,0.2515,0.2515,0.2515,0.2515,0.2515,0.2416,0.2356,0.2296,0.2296,0.2296,0.2295,0.2302,0.2273,0.2209,0.2211,0.2215,0.2188,0.2188,0.2188,0.2188,0.2188,0.2188,0.2188,0.2188,0.2188,0.2188,0.0,0.0,0.0,0.0,0.0,0.0,0.0,0.0,0.0,0.0,0.0,0.0,0.0,0.0,0.0,0.0,0.0,0.0,0.7229,0.7366,0.7556,0.776,0.7807,0.7963,0.8236,0.8194,0.8286,0.858,0.8621,0.8726,0.894,0.8977,0.9048,0.9193,0.9193,0.9217,0.9254,0.9254,0.9142,0.8967,0.8699,0.8352,0.7933,0.7459,0.6794,0.6002,0.5319,0.4419,0.341,0.2503,0.1927,0.158,0.1627,0.1688,0.1758,0.1835,0.1903,0.2008,0.2114,0.2214,0.2291,0.2271,0.228,0.2275,0.2232,0.2164,0.2119,0.2029,0.1932,0.1817,0.1757,0.1759,0.1789,0.1877,0.2025,0.0,0.2227,0.2339,0.0,0.229,0.2342,0.2393,0.2393,0.2393,0.0,0.0,0.2381,0.2389,0.2435,0.2485,0.2515,0.2515,0.2515,0.2515,0.2515,0.2416,0.2356,0.2296,0.2296,0.2296,0.2295,0.2244,0.2218,0.2208,0.2189,0.2196,0.2188,0.2188,0.2188,0.2188,0.2188,0.2188,0.2188,0.2188,0.2188,0.2188,0.0,0.0,0.0,0.0,0.0,0.0,0.0,0.0,0.0,0.0,0.0,0.0,0.0,0.0,0.0,0.0,0.0,0.0,0.0,0.7198,0.7309,0.7371,0.7317,0.7388,0.7591,0.7476,0.7516,0.7773,0.7866,0.7985,0.8123,0.8191,0.8269,0.8324,0.8324,0.8324,0.8324,0.8324,0.8262,0.0,0.0,0.7594,0.7288,0.697,0.6494,0.5922,0.5254,0.4297,0.3254,0.2703,0.2193,0.1848,0.1932,0.193,0.1896,0.1958,0.2048,0.2108,0.2249,0.2324,0.2332,0.2356,0.2333,0.2292,0.2171,0.2073,0.2002,0.1928,0.1795,0.1683,0.1636,0.1624,0.1696,0.1783,0.1965,0.2132,0.2235,0.2345,0.2377,0.2336,0.2388,0.2398,0.2398,0.2398,0.2405,0.0,0.2435,0.2444,0.2444,0.2489,0.2515,0.2515,0.2515,0.2508,0.2494,0.2447,0.24,0.2352,0.2302,0.2296,0.2295,0.225,0.2223,0.2208,0.0,0.2201,0.2188,0.2188,0.2188,0.2188,0.2188,0.2188,0.2188,0.2188,0.2188,0.2188,0.0,0.0,0.0,0.0,0.0,0.0,0.0,0.0,0.0,0.0,0.0,0.0,0.0,0.0,0.0,0.0,0.0,0.0,0.0,0.0,0.7095,0.7095,0.6965,0.6935,0.7034,0.6901,0.6887,0.7029,0.7187,0.7284,0.7308,0.7417,0.7478,0.7478,0.7478,0.7478,0.7478,0.7478,0.7404,0.7291,0.7093,0.6877,0.6654,0.0,0.6264,0.586,0.5133,0.4091,0.3089,0.2986,0.2607,0.2194,0.2292,0.2228,0.2112,0.2107,0.2163,0.2252,0.2373,0.2418,0.2433,0.2399,0.234,0.2257,0.2127,0.1973,0.1854,0.1785,0.1668,0.158,0.1502,0.1545,0.1646,0.1754,0.1956,0.2129,0.2241,0.2325,0.2385,0.2381,0.2355,0.2321,0.2321,0.2283,0.2245,0.2245,0.2306,0.2396,0.2508,0.2498,0.2515,0.2515,0.2515,0.2498,0.2502,0.2437,0.2406,0.2372,0.2345,0.2296,0.2295,0.2304,0.2274,0.2209,0.2213,0.2217,0.2188,0.2188,0.2188,0.2188,0.2188,0.2188,0.2188,0.2188,0.2188,0.2188,0.0,0.0,0.0,0.0,0.0,0.0,0.0,0.0,0.0,0.0,0.6751,0.6759,0.0,0.0,0.0,0.0,0.0,0.0,0.0,0.0,0.0,0.7095,0.6864,0.6753,0.6776,0.6535,0.6464,0.6607,0.6634,0.6712,0.6817,0.6844,0.6854,0.6854,0.6854,0.6854,0.6854,0.6854,0.6841,0.6803,0.6671,0.6576,0.6518,0.6392,0.0,0.0,0.5035,0.4184,0.3535,0.3316,0.2945,0.2594,0.249,0.2531,0.2544,0.2337,0.2322,0.2369,0.2473,0.2513,0.2562,0.2506,0.2408,0.2246,0.2074,0.1912,0.1786,0.1669,0.1583,0.1525,0.1494,0.1562,0.1619,0.164,0.1792,0.1989,0.2122,0.224,0.2324,0.2379,0.2159,0.1991,0.1991,0.1678,0.0,0.0,0.1486,0.1793,0.247,0.2498,0.2515,0.2515,0.2515,0.2488,0.2432,0.2389,0.2358,0.2303,0.2299,0.2296,0.2295,0.2304,0.2274,0.2209,0.2213,0.0,0.2188,0.2188,0.2188,0.2188,0.2188,0.2188,0.2188,0.2188,0.2188,0.2188,0.0,0.0,0.0,0.0,0.0,0.0,0.0,0.6828,0.6933,0.7003,0.6953,0.6937,0.6995,0.7119,0.7211,0.0,0.0,0.0,0.0,0.0,0.0,0.0,0.7129,0.6906,0.6702,0.6505,0.6409,0.6402,0.0,0.642,0.6491,0.6491,0.6491,0.6491,0.6491,0.6491,0.6491,0.6491,0.6491,0.6484,0.6429,0.6402,0.6395,0.0,0.0,0.0,0.4702,0.4048,0.3561,0.329,0.314,0.3057,0.2976,0.2813,0.2648,0.2581,0.25,0.244,0.2517,0.2588,0.2581,0.2464,0.2356,0.2211,0.1998,0.1856,0.17,0.1577,0.1486,0.1451,0.1437,0.1507,0.1568,0.163,0.175,0.1902,0.2068,0.2217,0.2229,0.2113,0.1974,0.1807,0.161,0.1414,0.1296,0.1296,0.1296,0.145,0.187,0.1879,0.1964,0.22,0.2148,0.2244,0.2447,0.2416,0.2385,0.2356,0.2303,0.2296,0.2296,0.2283,0.2252,0.221,0.2195,0.0,0.2188,0.2188,0.2188,0.2188,0.2188,0.2188,0.2188,0.2188,0.2188,0.2188,0.0,0.0,0.0,0.0,0.0,0.0,0.0,0.6893,0.708,0.7231,0.7204,0.7192,0.725,0.7284,0.7323,0.0,0.0,0.0,0.0,0.0,0.0,0.0,0.0,0.0,0.685,0.0,0.0,0.6432,0.6432,0.0,0.0,0.0,0.0,0.0,0.63,0.63,0.63,0.63,0.63,0.0,0.0,0.63,0.0,0.0,0.0,0.0,0.0,0.3853,0.3363,0.3148,0.3165,0.3258,0.3365,0.3036,0.267,0.2729,0.2588,0.2427,0.2571,0.2599,0.2579,0.2455,0.2297,0.2138,0.1931,0.1782,0.1652,0.1502,0.1429,0.1391,0.1391,0.1461,0.1525,0.1647,0.1733,0.1841,0.2037,0.2166,0.2138,0.1824,0.1763,0.0,0.1173,0.1059,0.0,0.1021,0.1019,0.1097,0.1296,0.1293,0.1448,0.1761,0.1701,0.1918,0.2334,0.229,0.2301,0.2368,0.2308,0.2296,0.2296,0.229,0.2259,0.221,0.2204,0.0,0.2188,0.2188,0.2188,0.2188,0.2188,0.2188,0.2188,0.2188,0.2188,0.2188,0.0,0.0,0.0,0.0,0.0,0.0,0.0,0.7314,0.751,0.7716,0.7575,0.7534,0.772,0.7471,0.7385,0.0,0.0,0.0,0.0,0.0,0.0,0.0,0.0,0.0,0.0,0.0,0.0,0.6845,0.6845,0.0,0.0,0.0,0.0,0.0,0.0,0.63,0.63,0.63,0.0,0.0,0.0,0.0,0.0,0.0,0.0,0.0,0.0,0.3693,0.305,0.3019,0.29,0.2824,0.3187,0.3113,0.284,0.2673,0.2484,0.2336,0.2559,0.2599,0.2584,0.252,0.2333,0.2141,0.1869,0.1752,0.1648,0.1448,0.1415,0.1391,0.1391,0.1461,0.1505,0.1513,0.1613,0.1761,0.1889,0.2041,0.2005,0.1749,0.0,0.0,0.0694,0.0351,0.0118,0.0118,0.0117,0.0466,0.1256,0.1283,0.1314,0.1352,0.1336,0.1509,0.1865,0.186,0.1995,0.23,0.2297,0.2296,0.2295,0.2306,0.2277,0.2209,0.2216,0.0,0.0,0.2188,0.2188,0.2188,0.2188,0.2188,0.2188,0.2188,0.2188,0.2188,0.0,0.0,0.0,0.0,0.0,0.0,0.7357,0.7549,0.7805,0.8124,0.7987,0.794,0.8148,0.7823,0.7624,0.7703,0.0,0.0,0.0,0.0,0.0,0.0,0.0,0.0,0.0,0.0,0.6985,0.6903,0.6903,0.0,0.0,0.0,0.0,0.0,0.0,0.6412,0.63,0.63,0.0,0.0,0.0,0.0,0.0,0.0,0.0,0.0,0.0,0.0,0.312,0.2708,0.2615,0.2634,0.2649,0.2504,0.2419,0.2684,0.2541,0.229,0.2498,0.2544,0.253,0.2467,0.2328,0.2143,0.1868,0.1735,0.1644,0.1444,0.1391,0.1391,0.1391,0.1447,0.1499,0.1499,0.1569,0.1693,0.1815,0.1908,0.1816,0.1335,0.1188,0.0893,0.0,0.0,0.0,0.0,0.0,0.0153,0.0499,0.0536,0.0611,0.0877,0.0867,0.1046,0.1449,0.1439,0.1503,0.1641,0.1845,0.1947,0.1946,0.2134,0.2212,0.2183,0.2205,0.0,0.0,0.2188,0.2188,0.2188,0.2188,0.2188,0.2188,0.2188,0.2188,0.2188,0.0,0.0,0.0,0.0,0.0,0.7447,0.7495,0.7678,0.7953,0.8352,0.822,0.8176,0.8381,0.8099,0.7915,0.7972,0.8054,0.0,0.0,0.0,0.0,0.0,0.0,0.0,0.0,0.0,0.718,0.7076,0.7076,0.7038,0.0,0.0,0.6888,0.6695,0.0,0.0,0.0,0.0,0.0,0.0,0.0,0.0,0.0,0.0,0.0,0.0,0.0,0.0,0.0,0.0,0.0,0.2413,0.2243,0.2091,0.2049,0.2546,0.2414,0.2162,0.2351,0.2403,0.239,0.2338,0.224,0.2064,0.1817,0.1692,0.1586,0.1438,0.1391,0.1391,0.1391,0.143,0.1468,0.1468,0.1519,0.1619,0.1722,0.1729,0.1545,0.1036,0.0,0.0682,0.0073,0.0,0.0,0.0,0.0,0.0,0.0,0.0,0.0113,0.0414,0.0409,0.0629,0.1035,0.1026,0.1093,0.1197,0.1438,0.1535,0.1565,0.1789,0.1943,0.2062,0.2019,0.0,0.0,0.2188,0.2188,0.2188,0.2188,0.2188,0.2188,0.2188,0.2188,0.2188,0.0,0.0,0.0,0.0,0.0,0.0,0.7549,0.7666,0.7944,0.835,0.822,0.8176,0.8381,0.8216,0.8178,0.8384,0.8217,0.0,0.0,0.0,0.0,0.0,0.0,0.0,0.0,0.0,0.7503,0.7503,0.7503,0.7388,0.7203,0.7203,0.708,0.688,0.0,0.0,0.0,0.0,0.0,0.0,0.0,0.0,0.0,0.0,0.0,0.0,0.0,0.0,0.0,0.0,0.0,0.0,0.0,0.2027,0.1857,0.2115,0.2066,0.1949,0.2157,0.2213,0.2206,0.2209,0.2067,0.1864,0.174,0.1588,0.1486,0.1425,0.1391,0.1391,0.1391,0.1391,0.1391,0.1391,0.1463,0.1524,0.1584,0.1425,0.1201,0.0,0.0678,0.0375,0.0035,0.0,0.0,0.0,0.0,0.0,0.0,0.0,0.0,0.0,0.0,0.0182,0.062,0.062,0.0798,0.1217,0.1217,0.1208,0.1192,0.1141,0.1341,0.1717,0.0,0.0,0.0,0.2188,0.2188,0.2188,0.2188,0.2188,0.2188,0.2188,0.2188,0.2188,0.0,0.0,0.0,0.0,0.0,0.0,0.0,0.8134,0.8208,0.8194,0.8379,0.8485,0.8416,0.8343,0.8384,0.8589,0.8422,0.0,0.0,0.0,0.0,0.0,0.0,0.0,0.0,0.0,0.7503,0.7503,0.7503,0.7465,0.7407,0.7407,0.7296,0.7103,0.7046,0.6926,0.0,0.0,0.0,0.0,0.0,0.0,0.0,0.0,0.0,0.0,0.0,0.0,0.0,0.0,0.0,0.0,0.0,0.0,0.0,0.2123,0.198,0.1785,0.1953,0.1999,0.1996,0.1987,0.1926,0.1804,0.1674,0.1558,0.1486,0.1425,0.1391,0.1391,0.1391,0.1391,0.142,0.1463,0.1483,0.1523,0.158,0.1422,0.1193,0.0943,0.0452,0.0104,0.0,0.0,0.0,0.0,0.0,0.0,0.0,0.0,0.0,0.0,0.0,0.0073,0.0182,0.0181,0.0252,0.0393,0.0597,0.0729,0.0726,0.0989,0.1288,0.0,0.0,0.0,0.0,0.2188,0.2188,0.2188,0.2188,0.2188,0.2188,0.2188,0.2188,0.2188,0.0,0.0,0.0,0.0,0.0,0.0,0.0,0.8483,0.8395,0.8195,0.8402,0.848,0.8311,0.8281,0.837,0.8562,0.8477,0.0,0.0,0.0,0.0,0.0,0.0,0.0,0.0,0.7542,0.7503,0.7503,0.7503,0.7503,0.7503,0.7503,0.7426,0.7315,0.7238,0.7123,0.0,0.0,0.0,0.0,0.0,0.0,0.6393,0.0,0.0,0.0,0.0,0.0,0.0,0.0,0.0,0.0,0.0,0.0,0.0,0.0,0.1922,0.175,0.1939,0.1904,0.1817,0.1817,0.1778,0.1688,0.1577,0.1512,0.1458,0.1398,0.1422,0.1427,0.1415,0.1422,0.1432,0.1462,0.1516,0.1554,0.1552,0.1326,0.0999,0.06,0.0227,0.0,0.0,0.0,0.0,0.0,0.0,0.0,0.0,0.0,0.0,0.0,0.0,0.0,0.0,0.0,0.0,0.0,0.0208,0.0308,0.0307,0.0574,0.0875,0.0,0.0,0.0,0.0,0.2121,0.2188,0.2188,0.2188,0.2188,0.2188,0.2188,0.2188,0.2188,0.0,0.0,0.0,0.0,0.0,0.0,0.0,0.8733,0.8545,0.8304,0.8282,0.8244,0.8096,0.8088,0.8183,0.8382,0.0,0.0,0.0,0.0,0.0,0.0,0.0,0.0,0.7804,0.7622,0.7522,0.7503,0.7503,0.7503,0.7503,0.7503,0.7503,0.7484,0.7296,0.7223,0.0,0.0,0.0,0.0,0.6903,0.6788,0.0,0.0,0.0,0.0,0.0,0.0,0.0,0.0,0.0,0.0,0.0,0.0,0.0,0.0,0.0,0.0,0.0,0.1896,0.1688,0.1688,0.1652,0.1581,0.1502,0.1453,0.0,0.1391,0.1459,0.1471,0.1418,0.146,0.1471,0.142,0.1513,0.1562,0.1485,0.1115,0.0655,0.0,0.0,0.0,0.0,0.0,0.0,0.0,0.0,0.0,0.0,0.0,0.0,0.0,0.0,0.0,0.0,0.0,0.0,0.0,0.0,0.0,0.0,0.0,0.0168,0.0,0.0,0.0,0.0,0.202,0.2188,0.2188,0.2188,0.2188,0.2188,0.2188,0.2188,0.2188,0.0,0.0,0.0,0.0,0.0,0.0,0.0,0.0,0.0,0.0,0.8201,0.8191,0.7902,0.8003,0.8183,0.0,0.0,0.0,0.0,0.0,0.0,0.0,0.0,0.0,0.7804,0.7761,0.7661,0.7503,0.7503,0.7503,0.7503,0.7503,0.7503,0.7503,0.7446,0.7353,0.0,0.0,0.0,0.0,0.6903,0.6788,0.0,0.0,0.0,0.0,0.5681,0.528,0.0,0.0,0.0,0.0,0.0,0.0,0.0,0.0,0.2364,0.1951,0.2077,0.0,0.1557,0.1557,0.1541,0.1517,0.0,0.14,0.1391,0.1391,0.1459,0.1471,0.1418,0.146,0.1502,0.1471,0.1551,0.152,0.1293,0.0828,0.038,0.0031,0.0,0.0,0.0,0.0,0.0,0.0,0.0,0.0,0.0,0.0,0.0,0.0,0.0,0.0,0.0,0.0,0.0,0.0,0.0,0.0,0.0,0.0,0.0168,0.0,0.0,0.0,0.1616,0.202,0.2188,0.2188,0.2188,0.2188,0.2188,0.2188,0.2188,0.2188,0.0,0.0,0.0,0.0,0.0,0.0,0.0,0.0,0.0,0.0,0.0,0.0,0.0,0.0,0.0,0.0,0.0,0.0,0.0,0.0,0.0,0.0,0.0,0.8255,0.7953,0.7838,0.7703,0.7503,0.7503,0.7503,0.7503,0.7503,0.7503,0.7503,0.7503,0.7446,0.0,0.0,0.0,0.0,0.708,0.0,0.0,0.0,0.0,0.0,0.5868,0.5583,0.0,0.5155,0.4599,0.3949,0.0,0.0,0.0,0.0,0.2381,0.1955,0.1915,0.1688,0.1465,0.1456,0.1459,0.1455,0.1416,0.1391,0.1391,0.1391,0.1459,0.1471,0.1418,0.146,0.1504,0.1504,0.1556,0.1471,0.1118,0.0668,0.0297,0.0031,0.0,0.0,0.0,0.0,0.0,0.0,0.0,0.0,0.0,0.0,0.0,0.0,0.0,0.0,0.0,0.0,0.0,0.0,0.0,0.0,0.0,0.0,0.0101,0.0,0.0,0.0,0.1414,0.1784,0.202,0.2188,0.2188,0.2188,0.2188,0.2188,0.2188,0.2188,0.0,0.0,0.0,0.0,0.0,0.0,0.0,0.0,0.0,0.0,0.0,0.0,0.0,0.0,0.0,0.0,0.0,0.0,0.0,0.0,0.0,0.0,0.0,0.8308,0.8102,0.79,0.7703,0.7503,0.7503,0.7503,0.7503,0.7503,0.7503,0.7503,0.7503,0.7484,0.0,0.0,0.0,0.0,0.7219,0.0,0.0,0.0,0.0,0.0,0.0,0.0,0.0,0.5594,0.5216,0.4681,0.4426,0.0,0.0,0.0,0.0,0.0,0.1773,0.1577,0.1392,0.1404,0.1391,0.1391,0.1391,0.1391,0.1391,0.1391,0.1459,0.1471,0.1418,0.1464,0.1513,0.1517,0.1504,0.1341,0.0901,0.0554,0.0242,0.0032,0.0,0.0,0.0,0.0,0.0,0.0,0.0,0.0,0.0,0.0,0.0,0.0,0.0,0.0,0.0,0.0,0.0,0.0,0.0,0.0,0.0,0.0,0.0,0.0034,0.0,0.0,0.1043,0.1447,0.1818,0.2121,0.2188,0.2188,0.2188,0.2188,0.2188,0.2188,0.0,0.0,0.0,0.0,0.0,0.0,0.0,0.0,0.0,0.0,0.0,0.0,0.0,0.0,0.0,0.0,0.0,0.0,0.0,0.0,0.0,0.8703,0.8513,0.8308,0.8102,0.79,0.7703,0.7503,0.7503,0.7503,0.7503,0.7503,0.7503,0.7503,0.7503,0.7407,0.7238,0.0,0.0,0.698,0.6961,0.0,0.0,0.0,0.0,0.0,0.0,0.0,0.0,0.6017,0.5727,0.5315,0.5111,0.0,0.0,0.0,0.0,0.0,0.1954,0.1645,0.1325,0.1377,0.1391,0.1391,0.1391,0.1391,0.1391,0.1391,0.1459,0.1471,0.1418,0.1458,0.1528,0.1578,0.1263,0.0887,0.0542,0.0244,0.0031,0.0,0.0,0.0,0.0,0.0,0.0,0.0,0.0,0.0,0.0,0.0,0.0,0.0,0.0,0.0,0.0,0.0,0.0,0.0,0.0,0.0,0.0,0.0,0.0,0.0034,0.0,0.0538,0.0639,0.1313,0.1649,0.1717,0.2054,0.2188,0.2188,0.2188,0.2188,0.2188,0.0,0.0,0.0,0.0,0.0,0.0,0.0,0.0,0.0,0.0,0.0,0.0,0.0,0.0,0.0,0.0,0.0,0.0,0.0,0.0,0.8703,0.8703,0.8403,0.8197,0.8102,0.79,0.7703,0.7503,0.7503,0.7503,0.7503,0.7503,0.7503,0.7503,0.7503,0.7392,0.7203,0.7203,0.708,0.688,0.0,0.0,0.0,0.0,0.0,0.0,0.0,0.0,0.0,0.0,0.5985,0.5664,0.5348,0.0,0.0,0.0,0.0,0.0,0.1842,0.1543,0.1315,0.1378,0.1401,0.1391,0.1391,0.1425,0.1455,0.1416,0.1459,0.1471,0.1418,0.1461,0.1484,0.1394,0.1124,0.0784,0.046,0.0157,0.0,0.0,0.0,0.0,0.0,0.0,0.0,0.0,0.0,0.0,0.0,0.0,0.0,0.0,0.0,0.0,0.0,0.0,0.0,0.0,0.0,0.0,0.0,0.0,0.0,0.0,0.0,0.0337,0.0538,0.0875,0.1144,0.1346,0.1548,0.1717,0.1919,0.2121,0.2188,0.2155,0.0,0.0,0.0,0.0,0.0,0.0,0.0,0.0,0.0,0.0,0.0,0.0,0.0,0.0,0.0,0.0,0.0,0.0,0.0,0.0,0.8703,0.8703,0.8308,0.8102,0.8102,0.7857,0.7661,0.7503,0.7503,0.7503,0.7503,0.7503,0.7503,0.7503,0.7503,0.7369,0.7123,0.7123,0.6984,0.6753,0.0,0.0,0.0,0.0,0.0,0.0,0.0,0.0,0.0,0.0,0.0,0.0,0.0,0.0,0.0,0.362,0.2899,0.2248,0.1859,0.1573,0.1396,0.1405,0.1418,0.1423,0.1423,0.147,0.1485,0.1439,0.1475,0.1484,0.1438,0.15,0.1468,0.1148,0.1013,0.0787,0.0375,0.0128,0.0,0.0,0.0,0.0,0.0,0.0,0.0,0.0,0.0,0.0,0.0,0.0,0.0,0.0,0.0,0.0,0.0,0.0,0.0,0.0,0.0,0.0,0.0,0.0,0.0,0.0,0.0,0.0134,0.0402,0.0471,0.0672,0.0972,0.1075,0.1245,0.1515,0.1818,0.1953,0.1885,0.0,0.0,0.0,0.0,0.0,0.0,0.0,0.0,0.0,0.0,0.0,0.0,0.0,0.0,0.0,0.0,0.0,0.0,0.0,0.0,0.8703,0.8703,0.8308,0.8102,0.8102,0.7718,0.7522,0.7503,0.7503,0.7503,0.7503,0.7503,0.7503,0.7503,0.7503,0.7288,0.6922,0.6922,0.6695,0.6338,0.6319,0.0,0.0,0.0,0.0,0.0,0.0,0.0,0.0,0.0,0.0,0.0,0.0,0.0,0.4868,0.444,0.3565,0.2662,0.2261,0.1921,0.1627,0.1447,0.1457,0.1501,0.1501,0.1501,0.1498,0.1496,0.1498,0.1498,0.1496,0.1637,0.1563,0.094,0.0906,0.0762,0.0131,0.0,0.0,0.0,0.0,0.0,0.0,0.0,0.0,0.0,0.0,0.0,0.0,0.0,0.0,0.0,0.0,0.0,0.0,0.0,0.0,0.0,0.0,0.0,0.0,0.0,0.0,0.0,0.0,0.0,0.0066,0.0368,0.0501,0.0595,0.0971,0.1111,0.1144,0.1178,0.1178,0.1178,0.0,0.0,0.0,0.0,0.0,0.0,0.0,0.0,0.0,0.0,0.0,0.0,0.0,0.0,0.0,0.0,0.0,0.0,0.0,0.8703,0.8646,0.8513,0.8255,0.8049,0.7915,0.7642,0.7503,0.7503,0.7503,0.7503,0.7503,0.7503,0.7503,0.7503,0.7369,0.7157,0.6899,0.6768,0.6544,0.63,0.63,0.63,0.0,0.0,0.0,0.0,0.0,0.0,0.0,0.0,0.63,0.6261,0.598,0.565,0.5243,0.4599,0.3819,0.3025,0.2379,0.1962,0.1643,0.1403,0.1414,0.1514,0.1557,0.16,0.1615,0.1633,0.1623,0.1605,0.1561,0.17,0.167,0.1234,0.1083,0.084,0.0366,0.0134,0.0,0.0,0.0,0.0,0.0,0.0,0.0,0.0,0.0,0.0,0.0,0.0,0.0,0.0,0.0,0.0,0.0,0.0,0.0,0.0,0.0,0.0,0.0,0.0,0.0,0.0,0.0,0.0,0.0,0.0132,0.0199,0.0231,0.0602,0.074,0.074,0.101,0.1111,0.1077,0.0,0.0,0.0,0.0,0.0,0.0,0.0,0.0,0.0,0.0,0.0,0.0,0.0,0.0,0.0,0.0,0.0,0.0,0.8585,0.8666,0.8608,0.8403,0.8217,0.801,0.7804,0.7603,0.7503,0.7503,0.7503,0.7503,0.7503,0.7503,0.7503,0.7484,0.7296,0.708,0.688,0.6676,0.649,0.63,0.63,0.63,0.0,0.0,0.0,0.0,0.0,0.0,0.0,0.0,0.63,0.6261,0.608,0.5867,0.5556,0.489,0.4229,0.3544,0.2704,0.2232,0.1892,0.1515,0.1527,0.1638,0.1625,0.1671,0.1713,0.1725,0.1745,0.1721,0.1665,0.1751,0.1701,0.0,0.1158,0.0843,0.0536,0.0201,0.0,0.0,0.0,0.0,0.0,0.0,0.0,0.0,0.0,0.0,0.0,0.0,0.0,0.0,0.0,0.0,0.0,0.0,0.0,0.0,0.0,0.0,0.0,0.0,0.0,0.0,0.0,0.0,0.0,0.0,0.0,0.0033,0.0265,0.0333,0.0368,0.0635,0.0738,0.0707,0.0,0.0,0.0,0.0,0.0,0.0,0.0,0.0,0.0,0.0,0.0,0.0,0.0,0.0,0.0,0.0,0.0,0.0,0.8392,0.859,0.8608,0.8403,0.8217,0.801,0.7804,0.7603,0.7503,0.7503,0.7503,0.7503,0.7503,0.7503,0.7503,0.7488,0.7296,0.7084,0.6884,0.6676,0.649,0.63,0.63,0.63,0.63,0.0,0.0,0.0,0.0,0.0,0.0,0.0,0.63,0.63,0.63,0.6119,0.5822,0.5418,0.4871,0.4207,0.3347,0.2862,0.2461,0.1851,0.1796,0.1875,0.173,0.1705,0.1722,0.1783,0.1795,0.1814,0.181,0.18,0.1724,0.144,0.1126,0.0802,0.0535,0.0199,0.0,0.0,0.0,0.0,0.0,0.0,0.0,0.0,0.0,0.0,0.0,0.0,0.0,0.0,0.0,0.0,0.0,0.0,0.0,0.0,0.0,0.0,0.0,0.0,0.0,0.0,0.0,0.0,0.0,0.0,0.0,0.0,0.0,0.0,0.0,0.0,0.0,0.0,0.0,0.0,0.0,0.0,0.0,0.0,0.0,0.0,0.0,0.0,0.0,0.0,0.0,0.0,0.0,0.0,0.0,0.0,0.859,0.867,0.8551,0.8197,0.814,0.7949,0.7603,0.7522,0.7503,0.7503,0.7503,0.7503,0.7503,0.7638,0.762,0.7423,0.7221,0.7024,0.6799,0.6516,0.6354,0.63,0.63,0.63,0.63,0.0,0.0,0.0,0.0,0.0,0.0,0.0,0.0,0.0,0.63,0.6241,0.6103,0.5634,0.5182,0.4635,0.3819,0.3243,0.274,0.2127,0.1971,0.1944,0.179,0.1768,0.1785,0.1847,0.1859,0.1843,0.1819,0.1832,0.0,0.1755,0.1305,0.0955,0.0879,0.0358,0.0,0.0,0.0,0.0,0.0,0.0,0.0,0.0,0.0,0.0,0.0,0.0,0.0,0.0,0.0,0.0,0.0,0.0,0.0,0.0,0.0,0.0,0.0,0.0,0.0,0.0,0.0,0.0,0.0,0.0,0.0,0.0,0.0,0.0,0.0,0.0,0.0,0.0,0.0,0.0,0.0,0.0,0.0,0.0,0.0,0.0,0.0,0.0,0.9353,0.9027,0.0,0.0,0.0,0.0,0.0,0.0,0.0,0.8538,0.8441,0.8125,0.803,0.7834,0.7503,0.7503,0.7503,0.7503,0.7503,0.754,0.7617,0.7628,0.7596,0.7502,0.7191,0.6956,0.6775,0.6501,0.6351,0.63,0.63,0.63,0.63,0.0,0.0,0.0,0.0,0.0,0.0,0.0,0.0,0.0,0.63,0.6337,0.6306,0.5953,0.5612,0.5204,0.4499,0.3949,0.3387,0.2749,0.2449,0.2239,0.1889,0.1841,0.1874,0.1898,0.1913,0.1907,0.1858,0.1879,0.0,0.1928,0.1397,0.0977,0.0997,0.0417,0.0,0.0,0.0,0.0,0.0,0.0,0.0,0.0,0.0,0.0,0.0,0.0,0.0,0.0,0.0,0.0,0.0,0.0,0.0,0.0,0.0,0.0,0.0,0.0,0.0,0.0,0.0,0.0,0.0,0.0,0.0,0.0,0.0,0.0,0.0,0.0,0.0,0.0,0.0,0.0,0.0,0.0,0.0,0.0,0.0,0.0,0.0,0.0,0.9065,0.8752,0.0,0.0,0.0,0.0,0.0,0.0,0.0,0.0,0.8308,0.8087,0.7876,0.7684,0.7503,0.7503,0.7484,0.7465,0.7465,0.7577,0.776,0.7521,0.7493,0.7631,0.7213,0.6941,0.6779,0.6581,0.6429,0.63,0.63,0.63,0.63,0.63,0.0,0.0,0.0,0.0,0.0,0.0,0.0,0.0,0.63,0.6399,0.6471,0.6277,0.6077,0.582,0.5333,0.4822,0.4266,0.3541,0.3055,0.2592,0.1955,0.1913,0.1969,0.191,0.1958,0.1968,0.191,0.1905,0.1922,0.1975,0.1401,0.0935,0.0992,0.0412,0.0,0.0,0.0,0.0,0.0,0.0,0.0,0.0,0.0,0.0,0.0,0.0,0.0,0.0,0.0,0.0,0.0,0.0,0.0,0.0,0.0,0.0,0.0,0.0,0.0,0.0,0.0,0.0,0.0,0.0,0.0,0.0,0.0,0.0,0.0,0.0,0.0,0.0,0.0,0.0,0.0,0.0,0.0,0.0,0.0,0.0,0.0,0.0,0.0,0.0,0.0,0.0,0.0,0.0,0.0,0.0,0.0,0.0,0.8231,0.7876,0.768,0.7542,0.7503,0.7503,0.7426,0.7257,0.7257,0.7348,0.7485,0.7419,0.736,0.7296,0.7257,0.7042,0.6709,0.6562,0.6429,0.63,0.63,0.63,0.63,0.63,0.63,0.0,0.0,0.0,0.0,0.0,0.0,0.0,0.63,0.6399,0.6491,0.6454,0.6294,0.6105,0.5936,0.5306,0.4595,0.4058,0.3168,0.2324,0.1957,0.1928,0.2006,0.1968,0.2003,0.2006,0.1968,0.1967,0.1971,0.1984,0.1423,0.099,0.0996,0.0431,0.0,0.0,0.0,0.0,0.0,0.0,0.0,0.0,0.0,0.0,0.0,0.0,0.0,0.0,0.0,0.0,0.0,0.0,0.0,0.0,0.0,0.0,0.0,0.0,0.0,0.0,0.0,0.0,0.0,0.0,0.0,0.0,0.0,0.0,0.0,0.0,0.0,0.0,0.0,0.0,0.0,0.0,0.0,0.0,0.0,0.0,0.0,0.0,0.0,0.0,0.0,0.0,0.0,0.0,0.0,0.0,0.0,0.0,0.7982,0.768,0.7561,0.7503,0.7503,0.7503,0.7446,0.7353,0.7223,0.7236,0.7407,0.7343,0.7314,0.7335,0.7245,0.7012,0.6695,0.6617,0.6477,0.63,0.63,0.63,0.63,0.63,0.63,0.63,0.63,0.0,0.0,0.0,0.0,0.0,0.0,0.0,0.6491,0.6491,0.6434,0.6357,0.6411,0.5891,0.5143,0.4347,0.3444,0.2626,0.2177,0.2012,0.1959,0.2004,0.2008,0.2008,0.2008,0.2008,0.1946,0.1791,0.132,0.0947,0.0794,0.0331,0.0,0.0,0.0,0.0,0.0,0.0,0.0,0.0,0.0,0.0,0.0,0.0,0.0,0.0,0.0,0.0,0.0,0.0,0.0,0.0,0.0,0.0,0.0,0.0,0.0,0.0,0.0,0.0,0.0,0.0,0.0,0.0,0.0,0.0,0.0,0.0,0.0,0.0,0.0,0.0,0.0,0.0,0.0,0.0,0.0,0.0,0.0,0.0,0.0,0.0,0.0,0.0,0.0,0.0,0.0,0.0,0.0,0.0,0.0,0.7514,0.7503,0.7503,0.7503,0.7503,0.7496,0.749,0.7282,0.7265,0.7412,0.7239,0.7242,0.7415,0.7209,0.6955,0.6702,0.6702,0.6549,0.63,0.63,0.63,0.63,0.63,0.63,0.63,0.63,0.63,0.63,0.63,0.0,0.0,0.0,0.0,0.6491,0.6491,0.6491,0.6549,0.6785,0.6412,0.5701,0.4564,0.3792,0.3134,0.2464,0.2114,0.1961,0.1986,0.2,0.2006,0.2,0.1938,0.1814,0.1532,0.1152,0.0811,0.0541,0.0207,0.0,0.0,0.0,0.0,0.0,0.0,0.0,0.0,0.0,0.0,0.0,0.0,0.0,0.0,0.0,0.0,0.0,0.0,0.0,0.0,0.0,0.0,0.0,0.0,0.0,0.0,0.0,0.0,0.0,0.0,0.0,0.0,0.0,0.0,0.0,0.0,0.0,0.0,0.0,0.0,0.0,0.0,0.0,0.0,0.0,0.0,0.0,0.0,0.7937,0.0,0.0,0.0,0.0,0.0,0.0,0.0,0.7548,0.0,0.0,0.7499,0.7503,0.7503,0.7503,0.7503,0.748,0.741,0.7441,0.745,0.7486,0.7109,0.7025,0.7143,0.7117,0.6955,0.6702,0.6702,0.6549,0.63,0.63,0.63,0.63,0.63,0.63,0.63,0.63,0.63,0.63,0.63,0.63,0.0,0.0,0.0,0.6491,0.6491,0.6491,0.659,0.6955,0.6654,0.5962,0.4822,0.4177,0.3545,0.2517,0.2273,0.2189,0.1956,0.197,0.1969,0.1912,0.1725,0.1537,0.1426,0.0947,0.0561,0.0502,0.0204,0.0,0.0,0.0,0.0,0.0,0.0,0.0,0.0,0.0,0.0,0.0,0.0,0.0,0.0,0.0,0.0,0.0,0.0,0.0,0.0,0.0,0.0,0.0,0.0,0.0,0.0,0.0,0.0,0.0,0.0,0.0,0.0,0.0,0.0,0.0,0.0,0.0,0.0,0.0,0.0,0.0,0.0,0.0,0.0,0.0,0.0,0.0,0.0,0.0,0.7591,0.0,0.0,0.0,0.7505,0.7688,0.7759,0.768,0.7564,0.7503,0.7503,0.7503,0.7503,0.7503,0.7503,0.7534,0.7633,0.7543,0.7555,0.7657,0.7321,0.721,0.7265,0.7158,0.7002,0.6803,0.6736,0.6597,0.6412,0.633,0.63,0.63,0.63,0.63,0.63,0.63,0.63,0.63,0.63,0.63,0.63,0.63,0.0,0.0,0.0,0.6395,0.6448,0.6784,0.6849,0.6592,0.5675,0.4863,0.4094,0.3356,0.2695,0.222,0.2143,0.2026,0.1892,0.1669,0.1518,0.1337,0.0944,0.0672,0.0436,0.0232,0.0086,0.0,0.0,0.0,0.0,0.0,0.0,0.0,0.0,0.0,0.0,0.0,0.0,0.0,0.0,0.0,0.0,0.0,0.0,0.0,0.0,0.0,0.0,0.0,0.0,0.0,0.0,0.0,0.0,0.0,0.0,0.0,0.0,0.0,0.0,0.0,0.0,0.0,0.0,0.0,0.0,0.0,0.0,0.0,0.0,0.0,0.0,0.0,0.0,0.0,0.0,0.0,0.0,0.0,0.0,0.7638,0.773,0.7726,0.7591,0.7503,0.7503,0.7503,0.7503,0.7503,0.7503,0.7598,0.7765,0.7586,0.7595,0.776,0.7519,0.7393,0.7386,0.7188,0.7018,0.6897,0.6766,0.6634,0.6481,0.6358,0.63,0.63,0.63,0.6323,0.6354,0.6354,0.6354,0.0,0.0,0.633,0.63,0.63,0.63,0.0,0.0,0.0,0.6448,0.6655,0.6883,0.6927,0.6297,0.5428,0.4577,0.4033,0.3107,0.2331,0.0,0.2041,0.1754,0.1437,0.1307,0.114,0.067,0.0459,0.0284,0.0028,0.0,0.0,0.0,0.0,0.0,0.0,0.0,0.0,0.0,0.0,0.0,0.0,0.0,0.0,0.0,0.0,0.0,0.0,0.0,0.0,0.0,0.0,0.0,0.0,0.0,0.0,0.0,0.0,0.0,0.0,0.0,0.0,0.0,0.0,0.0,0.0,0.0,0.0,0.0,0.0,0.0,0.0,0.0,0.0,0.0,0.0,0.0,0.0,0.0,0.0,0.0,0.7505,0.7505,0.7505,0.7505,0.7508,0.7521,0.7509,0.7496,0.7503,0.7503,0.7503,0.0,0.7503,0.7503,0.7576,0.7699,0.7555,0.7567,0.7694,0.7503,0.7393,0.7386,0.7188,0.7018,0.6897,0.6766,0.6634,0.6481,0.6358,0.63,0.63,0.63,0.6381,0.6481,0.6481,0.0,0.0,0.0,0.0,0.0,0.0,0.63,0.63,0.0,0.0,0.0,0.6695,0.6716,0.6651,0.6353,0.5683,0.4859,0.4085,0.3307,0.2644,0.2214,0.1901,0.1634,0.1367,0.1088,0.0916,0.0874,0.0388,0.0027,0.0,0.0,0.0,0.0,0.0,0.0,0.0,0.0,0.0,0.0,0.0,0.0,0.0,0.0,0.0,0.0,0.0,0.0,0.0,0.0,0.0,0.0,0.0,0.0,0.0,0.0,0.0,0.0,0.0,0.0,0.0,0.0,0.0,0.0,0.0,0.0,0.0,0.0,0.0,0.0,0.0,0.0,0.0,0.0,0.0,0.0,0.0,0.0,0.0,0.0,0.0,0.0,0.0,0.7501,0.7501,0.7501,0.7491,0.7555,0.7685,0.7566,0.7503,0.7503,0.7503,0.7503,0.7503,0.7369,0.7427,0.769,0.744,0.7443,0.7704,0.7484,0.7393,0.7386,0.7188,0.7068,0.7011,0.6887,0.6793,0.6753,0.6603,0.6563,0.6576,0.6654,0.6722,0.0,0.0,0.0,0.0,0.0,0.0,0.0,0.0,0.0,0.0,0.63,0.642,0.6597,0.6675,0.6766,0.6815,0.676,0.6152,0.543,0.4973,0.4002,0.3096,0.2794,0.2292,0.1861,0.1777,0.1289,0.0821,0.0625,0.0243,0.0,0.0,0.0,0.0,0.0,0.0,0.0,0.0,0.0,0.0,0.0,0.0,0.0,0.0,0.0,0.0,0.0,0.0,0.0,0.0,0.0,0.0,0.0,0.0,0.0,0.0,0.0,0.0,0.0,0.0,0.0,0.0,0.0,0.0,0.0,0.0,0.0,0.0,0.0,0.0,0.0,0.0,0.0,0.0,0.0,0.0,0.0,0.0,0.0,0.0,0.7505,0.0,0.0,0.0,0.0,0.75,0.7508,0.7499,0.7559,0.7691,0.758,0.7503,0.7503,0.7503,0.7503,0.7503,0.7296,0.7328,0.7567,0.728,0.7256,0.7491,0.736,0.7292,0.7288,0.7164,0.7095,0.7088,0.6968,0.6908,0.6894,0.6763,0.6702,0.6712,0.6793,0.0,0.0,0.0,0.0,0.0,0.0,0.0,0.0,0.0,0.0,0.0,0.0,0.6368,0.6443,0.6546,0.6627,0.6721,0.6815,0.6357,0.5807,0.5535,0.4544,0.3628,0.3352,0.2738,0.2209,0.2108,0.1577,0.0999,0.0639,0.0318,0.0106,0.0,0.0,0.0,0.0,0.0,0.0,0.0,0.0,0.0,0.0,0.0,0.0,0.0,0.0,0.0,0.0,0.0,0.0,0.0,0.0,0.0,0.0,0.0,0.0,0.0,0.0,0.0,0.0,0.0,0.0,0.0,0.0,0.0,0.0,0.0,0.0,0.0,0.0,0.0,0.0,0.0,0.0,0.0,0.0,0.0,0.0,0.0,0.0,0.7489,0.7489,0.0,0.0,0.0,0.0,0.0,0.7491,0.7506,0.7507,0.751,0.7503,0.7503,0.7503,0.7503,0.7503,0.7503,0.7296,0.7233,0.7302,0.7088,0.7035,0.7095,0.7095,0.7095,0.7095,0.7095,0.7095,0.7088,0.695,0.6914,0.6901,0.6773,0.6712,0.6715,0.0,0.0,0.0,0.7112,0.7109,0.0,0.7109,0.0,0.0,0.0,0.0,0.0,0.0,0.0,0.63,0.0,0.0,0.0,0.6464,0.6267,0.5939,0.5687,0.0,0.4225,0.3835,0.3213,0.267,0.2402,0.1968,0.1481,0.1033,0.0656,0.0311,0.0052,0.0,0.0,0.0,0.0,0.0,0.0,0.0,0.0,0.0,0.0,0.0,0.0,0.0,0.0,0.0,0.0,0.0,0.0,0.0,0.0,0.0,0.0,0.0,0.0,0.0,0.0,0.0,0.0,0.0,0.0,0.0,0.0,0.0,0.0,0.0,0.0,0.0,0.0,0.0,0.0,0.0,0.0,0.0,0.0,0.0,0.7726,0.7574,0.7444,0.0,0.0,0.0,0.7291,0.7412,0.7494,0.7504,0.7506,0.7507,0.7499,0.7503,0.7503,0.7503,0.7503,0.7503,0.7503,0.7157,0.7088,0.7302,0.6947,0.6893,0.7095,0.7095,0.7095,0.7095,0.7095,0.7095,0.7095,0.7055,0.7038,0.7034,0.7016,0.6995,0.0,0.0,0.0,0.0,0.0,0.7489,0.7326,0.0,0.7151,0.6763,0.0,0.0,0.0,0.0,0.0,0.0,0.63,0.0,0.0,0.0,0.0,0.0,0.0,0.0,0.5338,0.4882,0.4281,0.3783,0.3518,0.2905,0.2367,0.2042,0.1251,0.0585,0.0331,0.0279,0.0,0.0,0.0,0.0,0.0,0.0,0.0,0.0,0.0,0.0,0.0,0.0,0.0,0.0,0.0,0.0,0.0,0.0,0.0,0.0,0.0,0.0,0.0,0.0,0.0,0.0,0.0,0.0,0.0,0.0,0.0,0.0,0.0,0.0,0.0,0.0,0.0,0.0,0.0,0.0,0.0,0.0,0.0,0.7974,0.7744,0.751,0.7363,0.0,0.0,0.0,0.7328,0.7434,0.7503,0.7495,0.7503,0.7503,0.7503,0.7503,0.7503,0.7503,0.7576,0.7617,0.7617,0.7296,0.7224,0.7419,0.6982,0.6891,0.7095,0.7095,0.7095,0.7095,0.7095,0.7095,0.7095,0.7095,0.7095,0.7095,0.7095,0.0,0.0,0.7241,0.7338,0.0,0.0,0.0,0.7512,0.7638,0.7367,0.0,0.0,0.0,0.0,0.0,0.0,0.0,0.6464,0.6525,0.6607,0.0,0.0,0.0,0.6414,0.6236,0.5992,0.0,0.5054,0.4576,0.4286,0.373,0.3192,0.2881,0.2159,0.1414,0.0808,0.0631,0.0,0.0,0.0,0.0,0.0,0.0076,0.0,0.0,0.0,0.0,0.0,0.0,0.0,0.0,0.0,0.0,0.0,0.0,0.0,0.0,0.0,0.0,0.0,0.0,0.0,0.0,0.0,0.0,0.0,0.0,0.0,0.0,0.0,0.0,0.0,0.0,0.0,0.0,0.0,0.0,0.8763,0.8313,0.8068,0.788,0.7667,0.7407,0.7286,0.0,0.7319,0.7271,0.7471,0.7504,0.7503,0.7503,0.7503,0.7503,0.7503,0.7503,0.7503,0.7503,0.7698,0.778,0.776,0.7527,0.7446,0.7556,0.7118,0.6979,0.7095,0.7095,0.7095,0.7095,0.7095,0.7095,0.7095,0.7095,0.7105,0.7144,0.7144,0.7132,0.0,0.0,0.7278,0.744,0.7567,0.7624,0.7641,0.777,0.7499,0.0,0.0,0.0,0.0,0.0,0.6702,0.6702,0.6702,0.6712,0.6725,0.0,0.0,0.0,0.6452,0.6427,0.637,0.0,0.5618,0.5218,0.4902,0.4433,0.3992,0.3626,0.3236,0.2586,0.1489,0.0,0.0,0.0,0.0,0.0,0.0404,0.0152,0.0,0.0,0.0,0.0,0.0,0.0,0.0,0.0,0.0,0.0,0.0,0.0,0.0,0.0,0.0,0.0,0.0,0.0,0.0,0.0,0.0,0.0,0.0,0.0,0.0,0.0,0.0,0.0,0.0,0.0,0.0,0.0,0.0,0.0,0.8189,0.7875,0.77,0.7535,0.7323,0.7376,0.7403,0.7275,0.7223,0.7274,0.7483,0.7502,0.7503,0.7503,0.7503,0.7503,0.7503,0.7503,0.7503,0.7503,0.7698,0.77,0.7485,0.7429,0.7362,0.7282,0.7033,0.6979,0.7095,0.7095,0.7095,0.7095,0.7095,0.7095,0.7095,0.7095,0.7188,0.7348,0.7348,0.74,0.7509,0.7509,0.7529,0.7573,0.7719,0.777,0.7773,0.7801,0.7594,0.7295,0.0,0.0,0.0,0.0,0.0,0.0,0.0,0.0,0.0,0.0,0.0,0.0,0.6833,0.6887,0.6854,0.0,0.6228,0.5994,0.5707,0.5238,0.4806,0.4573,0.4274,0.3647,0.0,0.0,0.0,0.0,0.0,0.0,0.0429,0.0152,0.0,0.0,0.0,0.0,0.0,0.0,0.0,0.0,0.0,0.0,0.0,0.0,0.0,0.0,0.0,0.0,0.0,0.0,0.0,0.0,0.0,0.0,0.0,0.0,0.0,0.0,0.0,0.0,0.0,0.0,0.0,0.0,0.8834,0.8299,0.7835,0.7642,0.7456,0.7317,0.721,0.7285,0.7356,0.7356,0.7352,0.7387,0.7495,0.7503,0.7503,0.7503,0.7503,0.7503,0.7503,0.7503,0.7544,0.7638,0.7713,0.7711,0.7657,0.7528,0.7415,0.7342,0.7121,0.7024,0.7095,0.7095,0.7095,0.7095,0.7095,0.7095,0.7095,0.7095,0.7205,0.7393,0.7393,0.0,0.76,0.76,0.76,0.7617,0.776,0.7837,0.7888,0.7814,0.7712,0.0,0.0,0.7153,0.7021,0.0,0.6897,0.6897,0.0,0.0,0.0,0.6991,0.0,0.0,0.0,0.6908,0.6905,0.6576,0.6439,0.6341,0.6138,0.576,0.5456,0.5316,0.5083,0.4671,0.0,0.0,0.0,0.0,0.0,0.0,0.0833,0.0303,0.0,0.0,0.0,0.0,0.0,0.0,0.0,0.0,0.0,0.0,0.0,0.0,0.0,0.0,0.0,0.0,0.0,0.0,0.0,0.0,0.0,0.0,0.0,0.0,0.0,0.0,0.0,0.0,0.0,0.0,0.0,0.0,0.8425,0.7909,0.7512,0.7398,0.7254,0.7177,0.7194,0.7234,0.7317,0.7472,0.7541,0.7556,0.7556,0.7585,0.7617,0.7654,0.7658,0.7658,0.7658,0.7658,0.7727,0.7894,0.7794,0.7781,0.7891,0.7639,0.7484,0.7415,0.7209,0.7095,0.7095,0.7095,0.7095,0.7095,0.7095,0.7095,0.7098,0.7151,0.7258,0.7396,0.0,0.7512,0.76,0.76,0.7617,0.7658,0.778,0.7891,0.7952,0.7827,0.7794,0.7729,0.7515,0.742,0.0,0.0,0.0,0.0,0.0,0.0,0.0,0.0,0.0,0.7046,0.0,0.0,0.0,0.6556,0.6491,0.0,0.0,0.0,0.0,0.0,0.0,0.0,0.0,0.0,0.0,0.0,0.0,0.0,0.1281,0.0553,0.0075,0.0075,0.0025,0.0,0.0,0.0,0.0,0.0,0.0,0.0,0.0,0.0,0.0,0.0,0.0,0.0,0.0,0.0,0.0,0.0,0.0,0.0,0.0,0.0,0.0,0.0,0.0,0.0,0.0,0.0,0.0,0.0,0.7773,0.7354,0.6982,0.6963,0.6994,0.7066,0.7175,0.7347,0.7465,0.749,0.7653,0.7767,0.7767,0.7862,0.802,0.8182,0.8199,0.0,0.8199,0.0,0.8228,0.8248,0.8018,0.7873,0.791,0.7628,0.7393,0.7143,0.7117,0.7095,0.7095,0.7095,0.7095,0.7095,0.7095,0.7095,0.7105,0.7285,0.7379,0.0,0.7519,0.7584,0.0,0.76,0.7678,0.7783,0.7935,0.7912,0.781,0.0,0.7729,0.7617,0.0,0.7505,0.7389,0.0,0.0,0.0,0.0,0.0,0.0,0.0,0.7095,0.0,0.0,0.0,0.6823,0.6556,0.0,0.0,0.0,0.0,0.0,0.0,0.0,0.0,0.0,0.0,0.0,0.0,0.0,0.0,0.0,0.0788,0.0345,0.0345,0.0123,0.0,0.0,0.0,0.0,0.0,0.0,0.0,0.0,0.0,0.0,0.0,0.0,0.0,0.0,0.0,0.0,0.0,0.0,0.0,0.0,0.0,0.0,0.0,0.0,0.0,0.0,0.0,0.0,0.0,0.7679,0.726,0.6933,0.7046,0.7096,0.7139,0.7193,0.737,0.7503,0.7503,0.7686,0.7837,0.7918,0.0,0.0,0.0,0.0,0.8472,0.0,0.0,0.8362,0.8468,0.8002,0.7792,0.7896,0.7477,0.7209,0.7095,0.7095,0.7095,0.7095,0.7095,0.7095,0.7095,0.7095,0.7168,0.7278,0.7365,0.7444,0.0,0.0,0.0,0.0,0.76,0.7689,0.7807,0.7959,0.7915,0.78,0.0,0.782,0.0,0.0,0.0,0.0,0.0,0.0,0.0,0.0,0.0,0.0,0.0,0.0,0.0,0.6938,0.0,0.6847,0.0,0.0,0.0,0.0,0.0,0.0,0.0,0.6294,0.0,0.0,0.0,0.0,0.0,0.0,0.0,0.0,0.0,0.0,0.0,0.0293,0.0172,0.0,0.0,0.0,0.0,0.0,0.0,0.0,0.0,0.0,0.0,0.0,0.0,0.0,0.0,0.0,0.0,0.0,0.0,0.0,0.0,0.0,0.0,0.0,0.0,0.0,0.0,0.0,0.0,0.7611,0.7259,0.6989,0.7168,0.7208,0.7222,0.727,0.7484,0.763,0.763,0.7894,0.0,0.8202,0.8402,0.0,0.0,0.8716,0.8671,0.0,0.0,0.8446,0.0,0.0,0.0,0.0,0.7383,0.7095,0.7095,0.7095,0.7095,0.7095,0.7095,0.7095,0.7095,0.7095,0.7181,0.7312,0.0,0.7415,0.7449,0.7486,0.7409,0.7295,0.7547,0.7675,0.771,0.7934,0.7915,0.7804,0.7915,0.7878,0.0,0.7811,0.0,0.0,0.0,0.0,0.0,0.7242,0.0,0.0,0.0,0.0,0.0,0.0,0.0,0.0,0.0,0.0,0.0,0.0,0.0,0.0,0.0,0.0,0.6477,0.0,0.0,0.0,0.0,0.0,0.0,0.0,0.0,0.0,0.086,0.0667,0.0458,0.0168,0.0124,0.0076,0.0,0.0,0.0,0.0,0.0,0.0,0.0,0.0,0.0,0.0,0.0,0.0,0.0,0.0,0.0,0.0,0.0,0.0,0.0,0.0,0.0,0.0,0.0,0.0,0.0,0.746,0.7225,0.7037,0.7183,0.7202,0.7262,0.7467,0.7772,0.7975,0.7975,0.0,0.0,0.0,0.0,0.0,0.0,0.0,0.888,0.8616,0.0,0.8588,0.0,0.0,0.7788,0.0,0.0,0.7095,0.7095,0.7095,0.7095,0.7095,0.7095,0.7095,0.7095,0.7095,0.7098,0.7112,0.7309,0.7263,0.7031,0.716,0.6905,0.654,0.0,0.7642,0.7471,0.7864,0.0,0.0,0.7818,0.7814,0.0,0.0,0.0,0.0,0.0,0.0,0.0,0.0,0.0,0.0,0.7386,0.0,0.0,0.0,0.0,0.7048,0.0,0.0,0.0,0.0,0.0,0.0,0.6508,0.0,0.0,0.0,0.0,0.0,0.0,0.0,0.0,0.0,0.2226,0.1962,0.194,0.1359,0.0873,0.0585,0.0461,0.0275,0.0,0.0,0.0,0.0,0.0,0.0,0.0,0.0,0.0,0.0,0.0,0.0,0.0,0.0,0.0,0.0,0.0,0.0,0.0,0.0,0.0,0.0,0.0,0.0,0.0,0.7509,0.7414,0.734,0.7382,0.0,0.7456,0.7677,0.7862,0.8101,0.0,0.0,0.0,0.0,0.905,0.907,0.0,0.0,0.9039,0.8939,0.8713,0.0,0.0,0.0,0.7729,0.0,0.0,0.0,0.0,0.7095,0.7095,0.7095,0.7095,0.7095,0.7095,0.7095,0.7067,0.0,0.0,0.0,0.0,0.0,0.6125,0.5911,0.0,0.6994,0.6672,0.7267,0.7371,0.0,0.7586,0.7725,0.7804,0.7905,0.7868,0.7811,0.7811,0.7709,0.0,0.0,0.0,0.7393,0.7393,0.0,0.0,0.0,0.0,0.0,0.0,0.0,0.0,0.0,0.0,0.6779,0.6647,0.6559,0.0,0.0,0.0,0.0,0.0,0.0,0.0,0.0,0.0,0.0,0.2169,0.2013,0.1681,0.1098,0.094,0.0671,0.0275,0.0101,0.0,0.0,0.0,0.0,0.0,0.0,0.0,0.0,0.0,0.0,0.0,0.0,0.0,0.0,0.0,0.0,0.0,0.0,0.0,0.0,0.0,0.0,0.0,0.7645,0.7547,0.7503,0.0,0.0,0.7564,0.7771,0.7986,0.0,0.0,0.88,0.0,0.922,0.0,0.9131,0.0,0.9076,0.8966,0.8831,0.861,0.0,0.8387,0.7966,0.0,0.0,0.0,0.0,0.0,0.0,0.7095,0.7095,0.7095,0.7095,0.7095,0.7095,0.7041,0.6934,0.6934,0.6748,0.0,0.0,0.5417,0.0,0.0,0.6056,0.5889,0.0,0.6784,0.6849,0.731,0.7582,0.7762,0.7933,0.7946,0.7868,0.7868,0.7804,0.7732,0.7732,0.7645,0.0,0.7553,0.7414,0.0,0.7279,0.0,0.0,0.0,0.0,0.0,0.0,0.0,0.0,0.6786,0.6698,0.0,0.0,0.6228,0.0,0.0,0.0,0.0,0.0,0.0,0.3243,0.2893,0.2798,0.2509,0.0,0.0,0.1145,0.0662,0.0321,0.0099,0.0,0.0,0.0,0.0,0.0,0.0,0.0,0.0,0.0,0.0,0.0,0.0,0.0,0.0105,0.008,0.0,0.0111,0.0084,0.0,0.0,0.0,0.0,0.783,0.7629,0.0,0.0,0.7528,0.0,0.0,0.0,0.8505,0.0,0.9045,0.929,0.9298,0.9302,0.917,0.8911,0.8904,0.8732,0.8354,0.8304,0.0,0.0,0.7871,0.7811,0.7811,0.0,0.0,0.0,0.0,0.7105,0.7105,0.7098,0.7095,0.7095,0.7095,0.0,0.6795,0.6795,0.6451,0.5881,0.5347,0.4748,0.4268,0.457,0.48,0.5056,0.5703,0.6089,0.6387,0.6961,0.7316,0.7621,0.7892,0.7988,0.7988,0.7988,0.7988,0.7988,0.7988,0.7902,0.7811,0.7811,0.0,0.0,0.0,0.0,0.76,0.0,0.0,0.0,0.0,0.0,0.0,0.6941,0.6911,0.0,0.0,0.0,0.0,0.0,0.0,0.0,0.0,0.4317,0.4123,0.4118,0.3718,0.333,0.0,0.0,0.1653,0.1159,0.0685,0.0313,0.0049,0.0025,0.0025,0.0,0.0,0.0,0.0,0.0,0.0,0.0,0.0025,0.0025,0.0051,0.0341,0.0293,0.0107,0.036,0.0308,0.0056,0.0028,0.0,0.0,0.7622,0.7646,0.7747,0.0,0.7878,0.7878,0.0,0.0,0.0,0.0,0.9094,0.9203,0.9352,0.9152,0.8985,0.8907,0.8801,0.0,0.0,0.0,0.0,0.8214,0.7953,0.7811,0.7811,0.7634,0.0,0.7543,0.0,0.0,0.7309,0.7171,0.7095,0.7095,0.7095,0.6988,0.6795,0.659,0.5969,0.5039,0.4188,0.3639,0.3294,0.0,0.2977,0.3192,0.4602,0.5033,0.5056,0.5989,0.6612,0.7086,0.7568,0.7842,0.7988,0.7988,0.7988,0.7988,0.7988,0.7902,0.7811,0.7811,0.7706,0.76,0.0,0.0,0.0,0.0,0.0,0.0,0.0,0.0,0.0,0.0,0.0,0.0,0.0,0.0,0.0,0.6138,0.0,0.0,0.0,0.46,0.443,0.4333,0.434,0.4128,0.3549,0.0,0.0,0.1937,0.1402,0.0938,0.0515,0.0368,0.0198,0.0,0.0,0.0,0.0,0.0,0.0,0.0,0.0202,0.0404,0.0607,0.088,0.1106,0.1281,0.1337,0.1192,0.09,0.0231,0.0,0.0,0.7739,0.0,0.0,0.7877,0.0,0.0,0.8126,0.8374,0.0,0.8929,0.8994,0.0,0.9175,0.9023,0.8912,0.8912,0.8831,0.0,0.8713,0.0,0.0,0.8301,0.8041,0.7888,0.7888,0.7767,0.0,0.7692,0.0,0.0,0.7265,0.7026,0.6928,0.6928,0.6974,0.6895,0.6686,0.6207,0.5524,0.4675,0.3793,0.3209,0.0,0.2489,0.226,0.2313,0.3364,0.3879,0.4178,0.501,0.5809,0.6537,0.7089,0.7515,0.7842,0.7967,0.7988,0.7988,0.7988,0.7952,0.7888,0.7888,0.7827,0.7766,0.7766,0.7766,0.779,0.0,0.0,0.0,0.0,0.0,0.0,0.0,0.0,0.0,0.0,0.0,0.0,0.0,0.6092,0.0,0.0,0.4987,0.4801,0.4667,0.4768,0.4667,0.0,0.0,0.0,0.2862,0.214,0.1592,0.1235,0.0921,0.0707,0.0616,0.0547,0.0574,0.0649,0.0554,0.0581,0.0707,0.0858,0.1085,0.1365,0.1792,0.2032,0.2081,0.197,0.1834,0.1632,0.1048,0.056,0.0148,0.7999,0.0,0.0,0.0,0.0,0.0,0.0,0.8302,0.0,0.8731,0.0,0.8912,0.8912,0.8912,0.8912,0.8912,0.0,0.8845,0.872,0.8567,0.8444,0.8304,0.8098,0.7988,0.7988,0.7885,0.0,0.0,0.0,0.0,0.7141,0.6848,0.6702,0.6705,0.682,0.0,0.0,0.5893,0.5262,0.4629,0.3861,0.3188,0.2629,0.2429,0.2171,0.197,0.2221,0.2774,0.3478,0.4079,0.4958,0.5889,0.6509,0.7086,0.7593,0.7867,0.7967,0.7988,0.7988,0.7988,0.7988,0.7988,0.7988,0.7988,0.7988,0.7988,0.7988,0.7963,0.7846,0.7742,0.0,0.0,0.0,0.0,0.0,0.0,0.0,0.0,0.0,0.0,0.0,0.0,0.0,0.0,0.5186,0.5053,0.5066,0.0,0.0,0.0,0.0,0.3852,0.2935,0.2335,0.2093,0.0,0.143,0.1502,0.1386,0.1448,0.1596,0.1427,0.1489,0.1714,0.1739,0.1944,0.2283,0.2906,0.3082,0.2917,0.2627,0.2492,0.2473,0.2177,0.1529,0.071,0.796,0.0,0.0,0.0,0.0,0.8119,0.8373,0.8688,0.8869,0.8742,0.8828,0.8912,0.8912,0.8912,0.8912,0.8912,0.8912,0.0,0.0,0.0,0.0,0.8304,0.8098,0.7988,0.7988,0.7989,0.7973,0.0,0.0,0.0,0.7345,0.6898,0.6702,0.6702,0.0,0.0,0.6574,0.6279,0.0,0.4652,0.4074,0.3234,0.2358,0.2156,0.1895,0.1667,0.1718,0.1969,0.2424,0.3402,0.4155,0.4857,0.5837,0.6664,0.7316,0.7593,0.7817,0.7988,0.7988,0.7988,0.7988,0.7988,0.7988,0.7988,0.7988,0.7988,0.7942,0.7718,0.7555,0.7406,0.7188,0.0,0.0,0.0,0.0,0.0,0.0,0.0,0.0,0.0,0.0,0.6142,0.0,0.0,0.0,0.0,0.0,0.0,0.0,0.0,0.0,0.0,0.4062,0.0,0.0,0.0,0.2262,0.2071,0.2089,0.2133,0.2159,0.2176,0.222,0.2269,0.2497,0.2926,0.3509,0.3843,0.4314,0.4787,0.4277,0.4088,0.3985,0.3179,0.2852,0.2602,0.0,0.0,0.0,0.0,0.0,0.0,0.0,0.877,0.0,0.8828,0.8865,0.8912,0.8912,0.8912,0.8912,0.8912,0.8912,0.8845,0.872,0.8567,0.8444,0.8304,0.8098,0.0,0.7988,0.7988,0.7988,0.7988,0.0,0.0,0.7244,0.6875,0.662,0.6498,0.0,0.676,0.0,0.0,0.0,0.5194,0.4421,0.3474,0.2516,0.2139,0.1844,0.1592,0.1592,0.1693,0.1895,0.255,0.3302,0.4105,0.4759,0.5714,0.6639,0.6889,0.7366,0.7793,0.7793,0.7892,0.7988,0.7988,0.7892,0.7793,0.7793,0.769,0.754,0.7416,0.7338,0.7266,0.7122,0.6988,0.0,0.0,0.0,0.0,0.0,0.0,0.0,0.0,0.0,0.0,0.0,0.0,0.0,0.0,0.0,0.0,0.0,0.0,0.0,0.0,0.0,0.0,0.0,0.0,0.0,0.3499,0.3424,0.3454,0.3552,0.3472,0.3501,0.3654,0.378,0.4151,0.4671,0.5023,0.5434,0.5783,0.5329,0.5178,0.5106,0.4564,0.4206,0.3779,0.0,0.7977,0.0,0.0,0.8182,0.0,0.8497,0.8716,0.8912,0.8912,0.8912,0.8912,0.8912,0.8912,0.8912,0.8912,0.8882,0.8798,0.8672,0.852,0.84,0.8253,0.8081,0.7988,0.7988,0.7988,0.7988,0.0,0.0,0.0,0.0,0.0,0.0,0.0,0.0,0.0,0.0,0.0,0.6443,0.5725,0.484,0.3803,0.275,0.2272,0.1895,0.1592,0.1592,0.1592,0.1642,0.1844,0.2599,0.3478,0.3805,0.4836,0.5964,0.6239,0.6917,0.7596,0.7596,0.7743,0.7917,0.7917,0.7718,0.7519,0.7519,0.7341,0.7188,0.7138,0.7064,0.7036,0.7036,0.6931,0.0,0.0,0.0,0.0,0.0,0.0,0.0,0.0,0.0,0.0,0.5953,0.0,0.0,0.0,0.0,0.0,0.5545,0.0,0.0,0.0,0.0,0.4967,0.5157,0.0,0.4569,0.4858,0.4711,0.4728,0.4875,0.4717,0.4782,0.496,0.5006,0.5261,0.5699,0.6151,0.6388,0.6467,0.613,0.5989,0.597,0.5738,0.5436,0.486,0.0,0.0,0.0,0.0,0.0,0.0,0.8505,0.8716,0.8912,0.8912,0.8912,0.8912,0.8912,0.8912,0.8912,0.8912,0.8784,0.8665,0.8539,0.8396,0.8221,0.8044,0.802,0.7988,0.7988,0.7988,0.7988,0.0,0.0,0.0,0.0,0.0,0.0,0.0,0.0,0.0,0.0,0.7347,0.6749,0.5757,0.5289,0.4176,0.2775,0.2472,0.2044,0.1592,0.1592,0.1592,0.1592,0.1617,0.2197,0.2976,0.3478,0.4556,0.5687,0.5964,0.677,0.7596,0.7596,0.7621,0.7646,0.7646,0.7444,0.7238,0.7238,0.7213,0.7138,0.6892,0.6639,0.6487,0.6487,0.6454,0.6443,0.0,0.0,0.0,0.0,0.0,0.0,0.0,0.0,0.0,0.0,0.6093,0.0,0.0,0.5751,0.0,0.0,0.0,0.0,0.5853,0.0,0.5501,0.5629,0.5351,0.5235,0.5332,0.5388,0.5416,0.5418,0.5465,0.5509,0.5541,0.5662,0.6001,0.6521,0.6919,0.7091,0.7071,0.674,0.6604,0.6576,0.6312,0.6298,0.626,0.0,0.0,0.0,0.0,0.0,0.0,0.0,0.8831,0.8912,0.8912,0.8912,0.8912,0.8912,0.8912,0.8875,0.8784,0.872,0.8611,0.8396,0.8328,0.8201,0.7995,0.7988,0.7988,0.7988,0.7988,0.7988,0.0,0.0,0.0,0.0,0.0,0.0,0.0,0.0,0.7363,0.7522,0.7442,0.6817,0.5879,0.54,0.4234,0.2775,0.2497,0.207,0.1592,0.1592,0.1592,0.1617,0.1794,0.2171,0.2623,0.3001,0.4031,0.516,0.5441,0.6267,0.7119,0.7119,0.7244,0.7366,0.7366,0.7166,0.6967,0.6967,0.6839,0.6686,0.6589,0.6487,0.6412,0.6412,0.6412,0.639,0.0,0.0,0.0,0.0,0.0,0.0,0.0,0.0,0.0,0.0,0.0,0.0,0.0,0.0,0.0,0.0,0.0,0.0,0.5778,0.0,0.5733,0.5939,0.5826,0.5846,0.6002,0.6024,0.6047,0.605,0.6138,0.6254,0.6326,0.6469,0.6653,0.6856,0.7108,0.721,0.7188,0.7095,0.7068,0.7048,0.7036,0.6987,0.6911,0.8216,0.0,0.8457,0.0,0.8584,0.8689,0.8879,0.8912,0.8912,0.8912,0.8912,0.8912,0.8912,0.8912,0.8848,0.8723,0.8669,0.8537,0.8311,0.8253,0.8153,0.7995,0.7988,0.0,0.7988,0.7988,0.7988,0.7988,0.7905,0.0,0.0,0.0,0.0,0.0,0.7451,0.7587,0.7712,0.7523,0.6931,0.6064,0.5441,0.4334,0.3001,0.2573,0.212,0.1718,0.1617,0.1592,0.1642,0.1921,0.2171,0.2472,0.29,0.3905,0.4962,0.5238,0.6017,0.6795,0.6795,0.6942,0.7089,0.7089,0.6889,0.6692,0.6692,0.6539,0.6412,0.6412,0.6412,0.6412,0.6412,0.6412,0.6385,0.6331,0.0,0.0,0.0,0.0,0.0,0.0,0.6142,0.6064,0.5871,0.5882,0.0,0.0,0.0,0.0,0.0,0.0,0.0,0.0,0.0,0.0,0.0,0.6091,0.6187,0.6363,0.6433,0.6463,0.6469,0.659,0.6741,0.6861,0.6948,0.7032,0.707,0.7149,0.721,0.7196,0.7259,0.7308,0.7322,0.7443,0.7445,0.7337,0.8502,0.8601,0.8706,0.8706,0.8804,0.8906,0.8912,0.8912,0.8912,0.8912,0.8912,0.8912,0.8912,0.8912,0.8848,0.8723,0.857,0.8451,0.8304,0.8126,0.7992,0.0,0.0,0.7988,0.7988,0.7988,0.7988,0.7988,0.0,0.0,0.7594,0.0,0.7549,0.7801,0.7804,0.7864,0.7985,0.7715,0.7141,0.6337,0.5516,0.456,0.3503,0.2698,0.2221,0.1971,0.1693,0.1592,0.1642,0.1921,0.2171,0.2546,0.3352,0.4332,0.524,0.5511,0.6164,0.6795,0.6795,0.6795,0.6795,0.6795,0.6614,0.6412,0.6412,0.6412,0.6412,0.6412,0.6412,0.6412,0.6412,0.6412,0.6412,0.6409,0.0,0.0,0.0,0.0,0.0,0.0,0.6216,0.6151,0.5748,0.5813,0.0,0.0,0.0,0.0,0.0,0.0,0.0,0.5688,0.5688,0.0,0.5904,0.6026,0.6172,0.6298,0.6505,0.659,0.6596,0.6744,0.6866,0.701,0.7013,0.7076,0.721,0.721,0.721,0.7196,0.7259,0.7308,0.7322,0.7443,0.7595,0.7641,0.8638,0.8733,0.8838,0.8838,0.8879,0.8912,0.8912,0.8912,0.8912,0.8912,0.8912,0.8912,0.8912,0.8818,0.872,0.0,0.8447,0.8298,0.0,0.804,0.7988,0.7988,0.7988,0.7988,0.7988,0.7988,0.7988,0.7988,0.0,0.0,0.0,0.7692,0.7723,0.7793,0.7895,0.7969,0.7963,0.7515,0.6964,0.6337,0.5516,0.456,0.3553,0.3102,0.2675,0.2271,0.217,0.2145,0.2221,0.2676,0.3002,0.3352,0.4155,0.4659,0.5012,0.5461,0.6037,0.6539,0.6539,0.6539,0.6539,0.6539,0.6462,0.6412,0.6412,0.6412,0.6412,0.6412,0.6412,0.6412,0.6412,0.6412,0.6412,0.6412,0.6412,0.0,0.0,0.0,0.0,0.0,0.6142,0.6067,0.0,0.5958,0.0,0.0,0.0,0.0,0.0,0.0,0.0,0.0,0.5688,0.0,0.5901,0.6024,0.6184,0.636,0.6517,0.6573,0.6544,0.658,0.6581,0.6528,0.6528,0.6546,0.6606,0.6798,0.6851,0.69,0.7294,0.7433,0.7457,0.7684,0.7664,0.7486,0.877,0.8845,0.8912,0.8912,0.8912,0.8912,0.8912,0.8912,0.8912,0.8912,0.8912,0.8912,0.8912,0.8723,0.0,0.8515,0.8376,0.8204,0.8027,0.7988,0.7988,0.7988,0.7988,0.7988,0.7988,0.7988,0.0,0.7988,0.7988,0.7966,0.7871,0.7871,0.7871,0.7875,0.7973,0.7988,0.7963,0.754,0.7089,0.6637,0.5814,0.4987,0.4131,0.3555,0.3152,0.2849,0.2748,0.2773,0.2924,0.3355,0.3605,0.3855,0.446,0.4786,0.5062,0.5586,0.6062,0.6412,0.6412,0.6412,0.6412,0.6412,0.6412,0.6412,0.6412,0.6412,0.6412,0.6412,0.6412,0.6412,0.6412,0.6412,0.6412,0.6412,0.6412,0.6412,0.6412,0.0,0.0,0.0,0.0,0.0,0.0,0.6013,0.611,0.0,0.0,0.0,0.0,0.0,0.0,0.584,0.5843,0.0,0.604,0.6159,0.629,0.6482,0.665,0.6698,0.658,0.658,0.6398,0.6133,0.6246,0.6219,0.6133,0.6548,0.6687,0.6766,0.7282,0.7431,0.7343,0.7604,0.7413,0.7018,0.8912,0.8912,0.8912,0.0,0.8912,0.0,0.8912,0.8912,0.8912,0.8912,0.8912,0.8906,0.8896,0.8659,0.8505,0.8495,0.0,0.0,0.0,0.7988,0.7988,0.7988,0.7988,0.7988,0.7988,0.7988,0.7988,0.7988,0.7988,0.7988,0.7988,0.7988,0.7988,0.7988,0.7988,0.7988,0.7988,0.7718,0.7469,0.7163,0.6339,0.5716,0.514,0.4106,0.3703,0.3677,0.3425,0.3501,0.378,0.4033,0.4108,0.4133,0.4386,0.479,0.529,0.5817,0.6164,0.6412,0.6412,0.6412,0.6412,0.6412,0.6412,0.6412,0.6412,0.6412,0.6412,0.6412,0.6412,0.6412,0.6412,0.6412,0.6412,0.6412,0.6412,0.6412,0.6412,0.0,0.0,0.0,0.0,0.0,0.0,0.6037,0.6111,0.0,0.0,0.0,0.0,0.0,0.5986,0.6107,0.6118,0.6178,0.6293,0.6363,0.649,0.662,0.6883,0.6889,0.6659,0.6659,0.6295,0.5738,0.6049,0.5993,0.571,0.6351,0.6606,0.6664,0.7227,0.7232,0.6975,0.7246,0.6893,0.628,0.0,0.0,0.8912,0.8912,0.8912,0.8912,0.8912,0.8912,0.8912,0.8912,0.8912,0.8869,0.875,0.8598,0.8464,0.8355,0.818,0.8054,0.7992,0.7988,0.7988,0.7988,0.7988,0.7988,0.7988,0.7988,0.7988,0.7988,0.7988,0.7988,0.7988,0.7988,0.7988,0.7988,0.7988,0.7988,0.7988,0.7718,0.7572,0.7444,0.6639,0.6114,0.5741,0.5062,0.4811,0.4811,0.4761,0.491,0.5133,0.5211,0.5087,0.4939,0.4989,0.509,0.5265,0.5589,0.6037,0.6412,0.6412,0.6412,0.6412,0.6412,0.6412,0.6412,0.6412,0.6412,0.6412,0.6412,0.6412,0.6412,0.6412,0.6412,0.6412,0.6412,0.6412,0.6412,0.6412,0.6339,0.0,0.0,0.6249,0.6238,0.6208,0.6287,0.6328,0.0,0.0,0.0,0.0,0.6301,0.6217,0.6112,0.6202,0.6263,0.6293,0.6472,0.6684,0.6902,0.7073,0.6883,0.6386,0.613,0.5569,0.4815,0.4899,0.4733,0.4484,0.5346,0.5751,0.5858,0.6529,0.6629,0.6416,0.6572,0.6064,0.5233,0.8912,0.8912,0.8912,0.8912,0.8912,0.8912,0.8912,0.8912,0.8912,0.8912,0.8912,0.8852,0.8726,0.8574,0.8451,0.8308,0.813,0.7988,0.7988,0.7988,0.7988,0.7988,0.7988,0.7988,0.7988,0.7988,0.7988,0.7988,0.7988,0.7988,0.7988,0.7988,0.7988,0.7988,0.7988,0.7988,0.7988,0.7842,0.7793,0.7743,0.7166,0.6792,0.6489,0.5964,0.5739,0.5739,0.5616,0.5739,0.5937,0.5687,0.5511,0.5313,0.4939,0.4914,0.5012,0.5037,0.5511,0.6037,0.6037,0.6037,0.6037,0.6037,0.6037,0.6037,0.6037,0.6037,0.6037,0.6037,0.6037,0.6037,0.6037,0.6037,0.6037,0.6037,0.6037,0.6037,0.6037,0.597,0.0,0.5927,0.6047,0.612,0.612,0.6295,0.6412,0.6412,0.6431,0.0,0.6316,0.6371,0.6369,0.6336,0.6448,0.6565,0.6623,0.6645,0.6719,0.6873,0.6825,0.6464,0.588,0.571,0.5067,0.4117,0.4369,0.4145,0.3671,0.459,0.4946,0.4913,0.5517,0.5578,0.5335,0.5265,0.4742,0.3974,0.8912,0.8912,0.8912,0.8912,0.8912,0.8912,0.8912,0.8912,0.8912,0.8912,0.8892,0.8818,0.8693,0.854,0.8417,0.8274,0.8091,0.7988,0.7988,0.7988,0.7988,0.7988,0.7988,0.7988,0.7988,0.7988,0.7988,0.7988,0.7988,0.7988,0.7988,0.7988,0.7988,0.7988,0.7988,0.7988,0.7988,0.7988,0.7988,0.7967,0.7668,0.7391,0.7138,0.6612,0.6412,0.6362,0.6139,0.6214,0.6337,0.5837,0.5636,0.5461,0.4713,0.4585,0.4686,0.4411,0.4811,0.5386,0.5461,0.5461,0.5409,0.5361,0.5361,0.5361,0.5361,0.5361,0.5361,0.5361,0.5361,0.5361,0.5361,0.5384,0.5409,0.5409,0.5445,0.544,0.5432,0.0,0.5401,0.5433,0.5655,0.5831,0.5898,0.6209,0.6393,0.6393,0.6538,0.652,0.6238,0.6348,0.6442,0.652,0.6669,0.6805,0.6956,0.6777,0.6659,0.6548,0.63,0.5852,0.526,0.5176,0.448,0.3419,0.3921,0.364,0.2885,0.378,0.4043,0.3879,0.4262,0.4244,0.4013,0.3768,0.3298,0.2714,0.8912,0.8912,0.8912,0.8912,0.8912,0.8912,0.8912,0.8912,0.8912,0.8912,0.8798,0.8686,0.8533,0.8413,0.8241,0.8064,0.803,0.7988,0.7988,0.7988,0.7988,0.7988,0.7988,0.7988,0.7988,0.7988,0.7988,0.7988,0.7988,0.7988,0.7988,0.7988,0.7988,0.7988,0.7988,0.7988,0.7988,0.7988,0.7988,0.7967,0.7462,0.7238,0.7138,0.6612,0.6412,0.6387,0.6362,0.6362,0.6362,0.6039,0.5789,0.5509,0.491,0.4612,0.4413,0.4135,0.4158,0.4359,0.4809,0.4757,0.4531,0.4307,0.4259,0.4259,0.4259,0.4259,0.4259,0.4259,0.4259,0.4259,0.4259,0.4431,0.458,0.458,0.472,0.4769,0.462,0.0,0.488,0.5065,0.5316,0.5581,0.5872,0.6215,0.6409,0.6409,0.6634,0.6645,0.6384,0.6433,0.6403,0.6173,0.643,0.6599,0.6742,0.6705,0.6434,0.5933,0.568,0.5232,0.462,0.4117,0.3335,0.2412,0.2523,0.2187,0.1626,0.2297,0.2601,0.2702,0.2981,0.2971,0.2776,0.2728,0.2312,0.1696,0.8912,0.8912,0.8912,0.8912,0.8912,0.8912,0.8912,0.8912,0.8882,0.8798,0.8727,0.8621,0.842,0.8335,0.8208,0.803,0.7988,0.7988,0.7988,0.7988,0.7988,0.7988,0.7988,0.7988,0.7988,0.7988,0.7988,0.7988,0.7988,0.7988,0.7988,0.7988,0.7988,0.7988,0.7988,0.7988,0.7988,0.7988,0.7988,0.7967,0.7565,0.7416,0.7366,0.6986,0.6739,0.6589,0.6462,0.6312,0.6114,0.5716,0.5489,0.5288,0.4761,0.4489,0.4338,0.4085,0.4008,0.4033,0.4131,0.4054,0.3879,0.3454,0.3353,0.3313,0.3166,0.3148,0.3131,0.3134,0.3139,0.3131,0.3127,0.3248,0.3314,0.3331,0.3526,0.0,0.0,0.3909,0.4192,0.4291,0.486,0.5299,0.5448,0.6037,0.6413,0.6413,0.6706,0.6714,0.6258,0.6332,0.6198,0.5732,0.6171,0.633,0.6212,0.5905,0.5429,0.4814,0.4365,0.3835,0.3246,0.2968,0.2438,0.1739,0.1907,0.1655,0.1121,0.1541,0.167,0.1612,0.1726,0.1754,0.1661,0.1503,0.1234,0.0925,0.8902,0.8912,0.8912,0.8912,0.8912,0.8912,0.8912,0.8882,0.8818,0.8726,0.8652,0.8523,0.8321,0.8264,0.817,0.8027,0.7988,0.7988,0.7988,0.7988,0.7988,0.7988,0.7988,0.7988,0.7988,0.7988,0.7988,0.7988,0.7988,0.7988,0.7988,0.7988,0.7988,0.7988,0.7988,0.7988,0.7988,0.7988,0.7988,0.7967,0.7643,0.7519,0.7469,0.7064,0.6764,0.6492,0.6212,0.5939,0.5664,0.5315,0.519,0.514,0.4715,0.4589,0.4539,0.4259,0.4183,0.4108,0.3704,0.3553,0.3404,0.2927,0.2708,0.2574,0.2378,0.2289,0.2226,0.2228,0.2234,0.2225,0.2249,0.2296,0.2337,0.233,0.0,0.0,0.0,0.3143,0.3535,0.3564,0.4381,0.4962,0.5035,0.5844,0.6382,0.6382,0.6785,0.6778,0.618,0.6229,0.6023,0.5409,0.5854,0.5935,0.5599,0.5069,0.4424,0.3694,0.3137,0.2577,0.1989,0.1932,0.1597,0.1093,0.1374,0.1177,0.0701,0.0925,0.0878,0.0691,0.0703,0.0714,0.0725,0.0491,0.037,0.034,0.8882,0.8912,0.8912,0.8912,0.8912,0.8912,0.8912,0.8791,0.8723,0.8713,0.8472,0.8321,0.8298,0.8143,0.8027,0.7992,0.7988,0.7988,0.7988,0.7988,0.7988,0.7988,0.7988,0.7988,0.7988,0.7988,0.7988,0.7988,0.7988,0.7988,0.7988,0.7988,0.7988,0.7988,0.7988,0.7988,0.7988,0.7988,0.7988,0.7963,0.7437,0.7238,0.7138,0.6392,0.5914,0.5661,0.5388,0.5112,0.491,0.514,0.519,0.519,0.5165,0.514,0.509,0.4811,0.4734,0.4583,0.3803,0.3429,0.3153,0.2876,0.2479,0.2148,0.2125,0.1917,0.1754,0.1757,0.1757,0.1757,0.1754,0.1966,0.2126,0.2123,0.0,0.0,0.217,0.2618,0.2993,0.3117,0.3924,0.4583,0.4877,0.5748,0.6308,0.6308,0.6864,0.6924,0.6318,0.63,0.6023,0.5409,0.5431,0.5318,0.4957,0.4676,0.3948,0.28,0.2439,0.1963,0.1346,0.1121,0.0813,0.0477,0.0505,0.0336,0.0056,0.0084,0.0085,0.0058,0.0059,0.0059,0.006,0.0031,0.0031,0.0031,0.8757,0.8845,0.8912,0.8912,0.8912,0.8912,0.8912,0.8781,0.8676,0.8581,0.842,0.826,0.8136,0.805,0.7988,0.7988,0.7988,0.7988,0.7988,0.7988,0.7988,0.7988,0.7988,0.7988,0.7988,0.7988,0.7988,0.7988,0.7988,0.7988,0.7988,0.7988,0.7988,0.7988,0.7988,0.7988,0.7988,0.7988,0.7988,0.7967,0.759,0.7444,0.7369,0.6742,0.6339,0.6062,0.5789,0.5514,0.5311,0.5411,0.5438,0.5438,0.5438,0.5438,0.5436,0.5336,0.5286,0.5249,0.5029,0.4409,0.372,0.3282,0.2938,0.2668,0.2511,0.2396,0.2333,0.2331,0.2309,0.2247,0.2061,0.2084,0.2104,0.1947,0.0,0.2484,0.2422,0.3074,0.3608,0.3655,0.4275,0.4757,0.4899,0.5742,0.6302,0.6302,0.6659,0.6715,0.633,0.594,0.5633,0.5409,0.4865,0.4526,0.4344,0.3707,0.2959,0.2136,0.1842,0.1388,0.0809,0.0687,0.0456,0.0142,0.0141,0.0084,0.0,0.0,0.0,0.0,0.0,0.0,0.0,0.0,0.0,0.0,0.8693,0.8767,0.8855,0.8902,0.8912,0.8912,0.8912,0.874,0.8601,0.8522,0.8316,0.8157,0.8027,0.7988,0.7988,0.7988,0.7988,0.7988,0.7988,0.7988,0.7988,0.7988,0.7988,0.7988,0.7988,0.7988,0.7988,0.7988,0.7988,0.7988,0.7988,0.7988,0.7988,0.7988,0.7988,0.7988,0.7988,0.7988,0.7988,0.7967,0.7718,0.7596,0.7522,0.6917,0.6564,0.6362,0.5989,0.5762,0.5611,0.5687,0.5737,0.5737,0.5837,0.5862,0.5867,0.5904,0.5914,0.5938,0.6076,0.5531,0.4787,0.4235,0.3864,0.3577,0.3402,0.3317,0.3258,0.3268,0.3276,0.3153,0.2815,0.2754,0.2689,0.2414,0.2681,0.2924,0.2924,0.3527,0.3995,0.3995,0.4535,0.4929,0.5041,0.5798,0.633,0.6411,0.6608,0.6544,0.6067,0.5563,0.5254,0.5141,0.4281,0.3751,0.3616,0.2937,0.2316,0.1826,0.1524,0.1208,0.0795,0.0582,0.0377,0.0145,0.0057,0.0,0.0,0.0,0.0,0.0,0.0,0.0,0.0,0.0,0.0,0.0,0.8648,0.871,0.873,0.8882,0.8912,0.8912,0.8912,0.8679,0.8509,0.8509,0.8199,0.7988,0.7988,0.7988,0.7988,0.7988,0.7988,0.7988,0.7988,0.7988,0.7988,0.7988,0.7988,0.7988,0.7988,0.7988,0.7988,0.7988,0.7988,0.7988,0.7988,0.7988,0.7988,0.7988,0.7988,0.7988,0.7988,0.7988,0.7988,0.7967,0.7718,0.7596,0.7522,0.6711,0.6412,0.6337,0.5812,0.5611,0.5636,0.5917,0.5992,0.6042,0.6312,0.6412,0.6436,0.6558,0.6593,0.662,0.6771,0.6647,0.6354,0.5764,0.52,0.4805,0.4805,0.4648,0.4508,0.4508,0.4508,0.4424,0.4088,0.4004,0.392,0.3673,0.3617,0.3617,0.3617,0.3841,0.401,0.401,0.454,0.5041,0.5371,0.5965,0.6414,0.669,0.6765,0.6427,0.5537,0.5255,0.494,0.4594,0.3677,0.307,0.2795,0.2475,0.2152,0.1886,0.1562,0.1444,0.1474,0.0825,0.0501,0.0471,0.0147,0.0,0.0,0.0,0.0,0.0,0.0,0.0,0.0,0.0,0.0,0.0,0.841,0.8567,0.8723,0.8743,0.8838,0.8912,0.8912,0.8679,0.8509,0.8509,0.8199,0.7988,0.7988,0.7988,0.7988,0.7988,0.7988,0.7988,0.7988,0.7988,0.7988,0.7988,0.7988,0.7988,0.7988,0.7988,0.7988,0.7988,0.7988,0.7988,0.7988,0.7988,0.7988,0.7988,0.7988,0.7988,0.7988,0.7988,0.7988,0.7988,0.7917,0.7892,0.7817,0.7188,0.6961,0.6886,0.6362,0.6162,0.6187,0.6262,0.6287,0.6289,0.6387,0.6471,0.6544,0.6582,0.6679,0.6774,0.6899,0.6902,0.6756,0.6339,0.6034,0.5865,0.5865,0.5855,0.5836,0.5836,0.5919,0.5879,0.5588,0.5557,0.5444,0.513,0.5273,0.5395,0.5309,0.5526,0.5671,0.5611,0.577,0.591,0.6019,0.6451,0.675,0.6835,0.6736,0.6246,0.5346,0.5201,0.4907,0.4351,0.3633,0.3008,0.2453,0.1917,0.1738,0.1888,0.1846,0.1825,0.1824,0.1415,0.0959,0.0479,0.0148,0.0,0.0,0.0,0.0,0.0,0.0,0.0,0.0,0.0,0.0,0.0,0.8284,0.8485,0.8638,0.8699,0.8808,0.8912,0.8912,0.8679,0.8509,0.8509,0.8199,0.7988,0.7988,0.7988,0.7988,0.7988,0.7988,0.7988,0.7988,0.7988,0.7988,0.7988,0.7988,0.7988,0.7988,0.7988,0.7988,0.7988,0.7988,0.7988,0.7988,0.7988,0.7988,0.7988,0.7988,0.7988,0.7988,0.7988,0.7988,0.7988,0.7988,0.7942,0.7793,0.7363,0.7138,0.6989,0.6562,0.6412,0.6412,0.6412,0.6412,0.642,0.6469,0.6534,0.6612,0.6736,0.6817,0.6902,0.7048,0.7078,0.7024,0.6827,0.6717,0.6672,0.6689,0.6719,0.6777,0.6822,0.6913,0.6874,0.6606,0.6547,0.646,0.6113,0.6228,0.6325,0.6236,0.6371,0.6462,0.6431,0.6424,0.6481,0.6592,0.6823,0.6996,0.7011,0.6901,0.6437,0.5495,0.5436,0.5019,0.4099,0.3598,0.2902,0.2006,0.1613,0.167,0.2111,0.2009,0.2071,0.23,0.157,0.1056,0.0633,0.018,0.0,0.0,0.0,0.0,0.0,0.0,0.0,0.0,0.0,0.0,0.0,0.8247,0.84,0.8526,0.8665,0.8801,0.8912,0.8912,0.8679,0.8509,0.8509,0.8199,0.7988,0.7988,0.7988,0.7988,0.7988,0.7988,0.7988,0.7988,0.7988,0.7988,0.7988,0.7988,0.7988,0.7988,0.7988,0.7988,0.7988,0.7988,0.7988,0.7988,0.7988,0.7988,0.7988,0.7988,0.7988,0.7988,0.7988,0.7988,0.7988,0.7967,0.7817,0.7572,0.7266,0.7017,0.6767,0.6487,0.6412,0.6412,0.6412,0.6417,0.6447,0.6558,0.6609,0.6695,0.6918,0.7018,0.7051,0.7155,0.721,0.7213,0.7196,0.7198,0.7226,0.7281,0.7324,0.737,0.7481,0.7514,0.7461,0.7221,0.7162,0.7074,0.6754,0.6725,0.6723,0.6686,0.6684,0.6681,0.6672,0.6669,0.6786,0.7105,0.7142,0.7166,0.7222,0.723,0.681,0.5854,0.5824,0.5222,0.3898,0.3565,0.2766,0.148,0.1512,0.1807,0.235,0.2051,0.2214,0.2768,0.1524,0.0933,0.0874,0.0275,0.0,0.0,0.0,0.0,0.0,0.0,0.0,0.0,0.0,0.0,0.0,0.8057,0.8303,0.8519,0.8526,0.873,0.8912,0.8912,0.8679,0.8509,0.8509,0.8199,0.7988,0.7988,0.7988,0.7988,0.7988,0.7988,0.7988,0.7988,0.7988,0.7988,0.7988,0.7988,0.7988,0.7988,0.7988,0.7988,0.7988,0.7988,0.7988,0.7988,0.7988,0.7988,0.7988,0.7988,0.7988,0.7988,0.7988,0.7988,0.7988,0.7768,0.7646,0.7547,0.707,0.6845,0.6767,0.6487,0.6412,0.6412,0.6412,0.6474,0.6558,0.6585,0.6752,0.6915,0.697,0.7076,0.7152,0.7202,0.721,0.7204,0.7274,0.7267,0.7276,0.7303,0.7457,0.763,0.7657,0.7733,0.7793,0.7733,0.7733,0.7702,0.7642,0.7612,0.7582,0.7465,0.7452,0.742,0.7325,0.7314,0.7343,0.7399,0.7514,0.7499,0.737,0.735,0.6923,0.5918,0.5888,0.5183,0.3623,0.3531,0.2705,0.1111,0.1637,0.193,0.2018,0.193,0.2214,0.2767,0.1744,0.1155,0.0859,0.0271,0.0,0.0,0.0,0.0,0.0,0.0,0.0,0.0,0.0,0.0,0.0,0.7988,0.8279,0.8509,0.8509,0.8733,0.8912,0.8912,0.8679,0.8509,0.8509,0.8199,0.7988,0.7988,0.7988,0.7988,0.7988,0.7988,0.7988,0.7988,0.7988,0.7988,0.7988,0.7988,0.7988,0.7988,0.7988,0.7988,0.7988,0.7988,0.7988,0.7988,0.7988,0.7988,0.7988,0.7988,0.7988,0.7988,0.7867,0.7817,0.7793,0.7519,0.7344,0.7194,0.6895,0.6717,0.6589,0.6462,0.6412,0.642,0.6479,0.6539,0.6615,0.6757,0.6883,0.7024,0.7078,0.7136,0.721,0.721,0.721,0.7212,0.7276,0.7351,0.7408,0.7468,0.7611,0.7717,0.7771,0.7862,0.7903,0.7903,0.7903,0.7903,0.7903,0.7903,0.7881,0.779,0.7782,0.7758,0.7695,0.7687,0.7687,0.7687,0.7744,0.7746,0.7655,0.7627,0.7263,0.641,0.6377,0.5546,0.3762,0.3576,0.2683,0.1019,0.1359,0.1562,0.1658,0.1826,0.2121,0.2474,0.1566,0.099,0.0641,0.0207,0.0,0.0,0.0,0.0,0.0,0.0,0.0,0.0,0.0,0.0,0.0,0.7988,0.8279,0.8509,0.8509,0.8733,0.8912,0.8912,0.8703,0.8539,0.8512,0.8245,0.8044,0.7992,0.7988,0.7988,0.7988,0.7988,0.7988,0.7988,0.7988,0.7988,0.7988,0.7988,0.7988,0.7988,0.7988,0.7988,0.7988,0.7988,0.7988,0.7988,0.7988,0.7988,0.7988,0.7988,0.7988,0.7988,0.7718,0.7596,0.7572,0.7266,0.6992,0.6795,0.6742,0.6589,0.6412,0.6412,0.6425,0.6458,0.6561,0.662,0.6717,0.6921,0.7024,0.7059,0.7155,0.721,0.7215,0.7207,0.7212,0.7248,0.7335,0.7446,0.7581,0.7703,0.7731,0.7758,0.7881,0.7903,0.7903,0.7903,0.7903,0.7903,0.7903,0.7903,0.7903,0.7903,0.7903,0.7903,0.7903,0.7903,0.7903,0.7903,0.7903,0.7903,0.7903,0.7903,0.76,0.6931,0.6839,0.5912,0.3975,0.3574,0.2651,0.1019,0.0988,0.1103,0.1327,0.1608,0.1862,0.2113,0.1282,0.0716,0.0373,0.0116,0.0,0.0,0.0,0.0,0.0,0.0,0.0,0.0,0.0,0.0,0.0,0.7988,0.8279,0.8509,0.8509,0.8733,0.8912,0.8912,0.8764,0.8632,0.8526,0.8366,0.8187,0.803,0.7988,0.7988,0.7988,0.7988,0.7988,0.7988,0.7988,0.7988,0.7988,0.7988,0.7988,0.7988,0.7988,0.7988,0.7988,0.7988,0.7988,0.7988,0.7988,0.7988,0.7988,0.7988,0.7988,0.7988,0.7718,0.7596,0.7547,0.7045,0.6842,0.6767,0.6539,0.6437,0.6412,0.6412,0.6479,0.6572,0.6588,0.676,0.6942,0.7002,0.7081,0.7191,0.7204,0.721,0.7204,0.7282,0.7281,0.7338,0.7595,0.7665,0.7706,0.7851,0.7878,0.7883,0.79,0.7903,0.7903,0.7903,0.7903,0.7903,0.7903,0.7903,0.7903,0.7903,0.7903,0.7903,0.7903,0.7903,0.7903,0.7903,0.7903,0.7903,0.7903,0.7903,0.76,0.6931,0.662,0.5665,0.3944,0.3361,0.2406,0.1019,0.0988,0.098,0.0965,0.1023,0.1331,0.1834,0.1188,0.0703,0.0394,0.0115,0.0,0.0,0.0,0.0,0.0,0.0,0.0,0.0,0.0,0.0,0.0,0.7988,0.8279,0.8509,0.8509,0.8733,0.8912,0.8912,0.871,0.856,0.8515,0.8282,0.8091,0.802,0.7988,0.7988,0.7988,0.7988,0.7988,0.7988,0.7988,0.7988,0.7988,0.7988,0.7988,0.7988,0.7988,0.7988,0.7988,0.7988,0.7988,0.7988,0.7988,0.7988,0.7988,0.7988,0.7917,0.7768,0.7494,0.7291,0.7119,0.6742,0.6589,0.6564,0.6437,0.6412,0.642,0.6488,0.6547,0.6615,0.6777,0.6896,0.7024,0.7087,0.7141,0.721,0.721,0.7229,0.7269,0.7294,0.7357,0.7452,0.7657,0.7701,0.7731,0.7875,0.7903,0.7903,0.7903,0.7903,0.7903,0.7903,0.7903,0.7903,0.7903,0.7903,0.7903,0.7903,0.7903,0.7903,0.7903,0.7903,0.7903,0.7903,0.7903,0.7903,0.7903,0.7903,0.76,0.6931,0.6589,0.5634,0.3944,0.3145,0.2159,0.1019,0.0617,0.0523,0.0672,0.0636,0.086,0.1294,0.0827,0.0453,0.0168,0.0057,0.0,0.0,0.0,0.0,0.0,0.0,0.0,0.0,0.0,0.0,0.0]},{"header":{"parameterUnit":"m.s-1","parameterCategory":1,"la1":30.6,"la2":28.766,"lo1":-90.7593,"lo2":-88.6598,"dy":0.0162,"dx":0.0183,"nx":116,"ny":114,"refTime":"2023-09-25T00:00:00:Z","depth":0,"parameterNumber":3,"parameterNumberName":"V-component_of_WINDS"},"data":[0.0,0.0,0.0,0.0,0.0,0.0,0.0,0.0,0.0,0.0,0.0,0.0,0.0,0.0,0.0,0.0,0.0,0.0,0.0,0.0,0.0,0.0,0.0,0.0,0.0,0.0,0.0,0.0,0.0,0.0,0.0,0.0,0.0,0.0,0.0,0.0,0.0,0.0,0.0,0.0,0.0,0.0,0.0,0.0,0.0,0.0,0.0,0.0,0.0,0.0,0.0,0.0,0.0,0.0,0.0,0.0,0.0,0.0,0.0,0.0,0.0,0.0,0.0,0.0,0.0,0.0,0.0,0.0,0.0,0.0,0.0,0.0,0.0,0.0,0.0,0.0,0.0,0.0,0.0,0.0,0.0,0.0,0.0,0.0,0.0,0.0,0.0,0.0,0.0,0.0,0.0,0.0,0.0,0.0,0.0,0.0,0.0,0.0,0.0,0.0,0.0,0.0,0.0,0.0,0.0,0.0,0.0,0.0,0.0,0.0,0.0,0.0,0.0,0.0,0.0,0.0,0.0,0.0,0.0,0.0,0.0,0.0,0.0,0.0,0.0,0.0,0.0,0.0,0.0,0.0,0.0,0.0,0.0,0.0,0.0,0.0,0.0,0.0,0.0,0.0,0.0,0.0,0.0,0.0,0.0,0.0,0.0,0.0,0.0,0.0,0.0,0.0,0.0,0.0,0.0,0.0,0.0,0.0,0.0,0.0,0.0,0.0,0.0,0.0,0.0,0.0,0.0,0.0,0.0,0.0,0.0,0.0,0.0,0.0,0.0,0.0,0.0,0.0,0.0,0.0,0.0,0.0,0.0,0.0,0.0,0.0,0.0,0.0,0.0,0.0,0.0,0.0,0.0,0.0,0.0,0.0,0.0,0.0,0.0,0.0,0.0,0.0,0.0,0.0,0.0,0.0,0.0,0.0,0.0,0.0,0.0,0.0,0.0,0.0,0.0,0.0,0.0,0.0,0.0,0.0,0.0,0.0,0.0,0.0,0.0,0.0,0.0,0.0,0.0,0.0,0.0,0.0,0.0,0.0,0.0,0.0,0.0,0.0,0.0,0.0,0.0,0.0,0.0,0.0,0.0,0.0,0.0,0.0,0.0,0.0,0.0,0.0,0.0,0.0,0.0,0.0,0.0,0.0,0.0,0.0,0.0,0.0,0.0,0.0,0.0,0.0,0.0,0.0,0.0,0.0,0.0,0.0,0.0,0.0,0.0,0.0,0.0,0.0,0.0,0.0,0.0,0.0,0.0,0.0,0.0,0.0,0.0,0.0,0.0,0.0,0.0,0.0,0.0,0.0,0.0,0.0,0.0,0.0,0.0,0.0,0.0,0.0,0.0,0.0,0.0,0.0,0.0,0.0,0.0,0.0,0.0,0.0,0.0,0.0,0.0,0.0,0.0,0.0,0.0,0.0,0.0,0.0,0.0,0.0,0.0,0.0,0.0,0.0,0.0,0.0,0.0,0.0,0.0,0.0,0.0,0.0,0.0,0.0,0.0,0.0,0.0,0.0,0.0,0.0,0.0,0.0,0.0,0.0,0.0,0.0,0.0,0.0,0.0,0.0,0.0,0.0,0.0,0.0,0.0,0.0,0.0,0.0,0.0,0.0,0.0,0.0,0.0,0.0,0.0,0.0,0.0,0.0,0.0,0.0,0.0,0.0,0.0,0.0,0.0,0.0,0.0,0.0,0.0,0.0,0.0,0.0,0.0,0.0,0.0,0.0,0.0,0.0,0.0,0.0,0.0,0.0,0.0,0.0,0.0,0.0,0.0,0.0,0.0,0.0,0.0,0.0,0.0,0.0,0.0,0.0,0.0,0.0,0.0,0.0,0.0,0.0,0.0,0.0,0.0,0.0,0.0,0.0,0.0,0.0,0.0,0.0,0.0,0.0,0.0,0.0,0.0,0.0,0.0,0.0,0.0,0.0,0.0,0.0,0.0,0.0,0.0,0.0,0.0,0.0,0.0,0.0,0.0,0.0,0.0,0.0,0.0,0.0,0.0,0.0,0.0,0.0,0.0,0.0,0.0,0.0,0.0,0.0,0.0,0.0,0.0,0.0,0.0,0.0,0.0,0.0,0.0,0.0,0.0,0.0,0.0,0.0,0.0,0.0,0.0,0.0,0.0,0.0,0.0,0.0,0.0,0.0,0.0,0.0,0.0,0.0,0.0,0.0,0.0,0.0,0.0,0.0,0.0,0.0,0.0,0.0,0.0,0.0,0.0,0.0,0.0,0.0,0.0,0.0,0.0,0.0,0.0,0.0,0.0,0.0,0.0,0.0,0.0,0.0,0.0,0.0,0.0,0.0,0.0,0.0,0.0,0.0,0.0,0.0,0.0,0.0,0.0,0.0,0.0,0.0,0.0,0.0,0.0,0.0,0.0,0.0,0.0,0.0,0.0,0.0,0.0,0.0,0.0,0.0,0.0,0.0,0.0,0.0,0.0,0.0,0.0,0.0,0.0,0.0,0.0,0.0,0.0,0.0,0.0,0.0,0.0,0.0,0.0,0.0,0.0,0.0,0.0,0.0,0.0,0.0,0.0,0.0,0.0,0.0,0.0,0.0,0.0,0.0,0.0,0.0,0.0,0.0,0.0,0.0,0.0,0.0,0.0,0.0,0.0,0.0,0.0,0.0,0.0,0.0,0.0,0.0,0.0,0.0,0.0,0.0,0.0,0.0,0.0,0.0,0.0,0.0,0.0,0.0,0.0,0.0,0.0,0.0,0.0,0.0,0.0,0.0,0.0,0.0,0.0,0.0,0.0,0.0,0.0,0.0,0.0,0.0,0.0,0.0,0.0,0.0,0.0,0.0,0.0,0.0,0.0,0.0,0.0,0.0,0.0,0.0,0.0,0.0,0.0,0.0,0.0,0.0,0.0,0.0,0.0,0.0,0.0,0.0,0.0,0.0,0.0,0.0,0.0,0.0,0.0,0.0,0.0,0.0,0.0,0.0,0.0,0.0,0.0,0.0,0.0,0.0,0.0,0.0,0.0,0.0,0.0,0.0,0.0,0.0,0.0,0.0,0.0,0.0,0.0,0.0,0.0,0.0,0.0,0.0,0.0,0.0,0.0,0.0,0.0,0.0,0.0,0.0,0.0,0.0,0.0,0.0,0.0,0.0,0.0,0.0,0.0,0.0,0.0,0.0,0.0,0.0,0.0,0.0,0.0,0.0,0.0,0.0,0.0,0.0,0.0,0.0,0.0,0.0,0.0,0.0,0.0,0.0,0.0,0.0,0.0,0.0,0.0,0.0,0.0,0.0,0.0,0.0,0.0,0.0,0.0,0.0,0.0,0.0,0.0,0.0,0.0,0.0,0.0,0.0,0.0,0.0,0.0,0.0,0.0,0.0,0.0,0.0,0.0,0.0,0.0,0.0,0.0,0.0,0.0,0.0,0.0,0.0,0.0,0.0,0.0,0.0,0.0,0.0,0.0,0.0,0.0,0.0,0.0,0.0,0.0,0.0,0.0,0.0,0.0,0.0,0.0,0.0,0.0,0.0,0.0,0.0,0.0,0.0,0.0,0.0,0.0,0.0,0.0,0.0,0.0,0.0,0.0,0.0,0.0,0.0,0.0,0.0,0.0,0.0,0.0,0.0,0.0,0.0,0.0,0.0,0.0,0.0,0.0,0.0,0.0,0.0,0.0,0.0,0.0,0.0,0.0,0.0,0.0,0.0,0.0,0.0,0.0,0.0,0.0,0.0,0.0,0.0,0.0,0.0,0.0,0.0,0.0,0.0,0.0,0.0,0.0,0.0,0.0,0.0,0.0,0.0,0.0,0.0,0.0,0.0,0.0,0.0,0.0,0.0,0.0,0.0,0.0,0.0,0.0,0.0,0.0,0.0,0.0,0.0,0.0,0.0,0.0,0.0,0.0,0.0,0.0,0.0,0.0,0.0,0.0,0.0,0.0,0.0,0.0,0.0,0.0,0.0,0.0,0.0,0.0,0.0,0.0,0.0,0.0,0.0,0.0,0.0,0.0,0.0,0.0,0.0,0.0,0.0,0.0,0.0,0.0,0.0,0.0,0.0,0.0,0.0,0.0,0.0,0.0,0.0,0.0,0.0,0.0,0.0,0.0,0.0,0.0,0.0,0.0,0.0,0.0,0.0,0.0,0.0,0.0,0.0,0.0,0.0,0.0,0.0,0.0,0.0,0.0,0.0,0.0,0.0,0.0,0.0,0.0,0.0,0.0,0.0,0.0,0.0,0.0,0.0,0.0,0.0,0.0,0.0,0.0,0.0,0.0,0.0,0.0,0.0,0.0,0.0,0.0,0.0,0.0,0.0,0.0,0.0,0.0,0.0,0.0,0.0,0.0,0.0,0.0,0.0,0.0,0.0,0.0,0.0,0.0,0.0,0.0,0.0,0.0,0.0,0.0,0.0,0.0,0.0,0.0,0.0,0.0,0.0,0.0,0.0,0.0,0.0,0.0,0.0,0.0,0.0,0.0,0.0,0.0,0.0,0.0,0.0,0.0,0.0,0.0,0.0,0.0,0.0,0.0,0.0,0.0,0.0,0.0,0.0,0.0,0.0,0.0,0.0,0.0,0.0,0.0,0.0,0.0,0.0,0.0,0.0,0.0,0.0,0.0,0.0,0.0,0.0,0.0,0.0,0.0,0.0,0.0,0.0,0.0,0.0,0.0,0.0,0.0,0.0,0.0,0.0,0.0,0.0,0.0,0.0,0.0,0.0,0.0,0.0,0.0,0.0,0.0,0.0,0.0,0.0,0.0,0.0,0.0,0.0,0.0,0.0,0.0,0.0,0.0,0.0,0.0,0.0,0.0,0.0,0.0,0.0,0.0,0.0,0.0,0.0,0.0,0.0,0.0,0.0,0.0,0.0,0.0,0.0,0.0,0.0,0.0,0.0,0.0,0.0,0.0,0.0,0.0,0.0,0.0,0.0,0.0,0.0,0.0,0.0,0.0,0.0,0.0,0.0,0.0,0.0,0.0,0.0,0.0,0.0,0.0,0.0,0.0,0.0,0.0,0.0,0.0,0.0,0.0,0.0,0.0,0.0,0.0,0.0,0.0,0.0,0.0,0.0,0.0,0.0,0.0,0.0,0.0,0.0,0.0,0.0,0.0,0.0,0.0,0.0,0.0,0.0,0.0,0.0,0.0,0.0,0.0,0.0,0.0,0.0,0.0,0.0,0.0,0.0,0.0,0.0,0.0,0.0,0.0,0.0,0.0,0.0,0.0,0.0,0.0,0.0,0.0,0.0,0.0,0.0,0.0,0.0,0.0,0.0,0.0,0.0,0.0,0.0,0.0,0.0,0.0,0.0,0.0,0.0,0.0,0.0,0.0,0.0,0.0,0.0,0.0,0.0,0.0,0.0,0.0,0.0,0.0,0.0,0.0,0.0,0.0,0.0,0.0,0.0,0.0,0.0,0.0,0.0,0.0,0.0,0.0,0.0,0.0,0.0,0.0,0.0,0.0,0.0,0.0,0.0,0.0,0.0,0.0,0.0,0.0,0.0,0.0,0.0,0.0,0.0,0.0,0.0,0.0,0.0,0.0,0.0,0.0,0.0,0.0,0.0,0.0,0.0,0.0,0.0,0.0,0.0,0.0,0.0,0.0,0.0,0.0,0.0,0.0,0.0,0.0,0.0,0.0,0.0,0.0,0.0,0.0,0.0,0.0,0.0,0.0,0.0,0.0,0.0,0.0,0.0,0.0,0.0,0.0,0.0,0.0,0.0,0.0,0.0,0.0,0.0,0.0,0.0,0.0,0.0,0.0,0.0,0.0,0.0,0.0,0.0,0.0,0.0,0.0,0.0,0.0,0.0,0.0,0.0,0.0,0.0,0.0,0.0,0.0,0.0,0.0,0.0,0.0,0.0,0.0,0.0,0.0,0.0,0.0,0.0,0.0,0.0,0.0,0.0,0.0,0.0,0.0,0.0,0.0,0.0,0.0,0.0,0.0,0.0,0.0,0.0,0.0,0.0,0.0,0.0,0.0,0.0,0.0,0.0,0.0,0.0,0.0,0.0,0.0,0.0,0.0,0.0,0.0,0.0,0.0,0.0,0.0,0.0,0.0,0.0,0.0,0.0,0.0,0.0,0.0,0.0,0.0,0.0,0.0,0.0,0.0,0.0,3.9687,0.0,0.0,0.0,0.0,0.0,0.0,0.0,0.0,0.0,0.0,0.0,0.0,0.0,0.0,0.0,0.0,0.0,0.0,0.0,0.0,0.0,0.0,0.0,0.0,0.0,0.0,0.0,0.0,0.0,0.0,0.0,0.0,0.0,0.0,0.0,0.0,0.0,0.0,3.2904,3.3747,3.5234,3.7315,3.6829,3.6369,3.5962,0.0,0.0,0.0,0.0,0.0,0.0,0.0,0.0,0.0,0.0,0.0,0.0,0.0,0.0,0.0,0.0,0.0,0.0,0.0,0.0,0.0,0.0,0.0,0.0,0.0,0.0,0.0,0.0,0.0,0.0,0.0,0.0,0.0,0.0,0.0,0.0,0.0,0.0,0.0,0.0,0.0,0.0,0.0,0.0,0.0,0.0,0.0,0.0,0.0,0.0,0.0,0.0,0.0,0.0,0.0,0.0,0.0,0.0,0.0,0.0,0.0,0.0,0.0,0.0,0.0,0.0,0.0,0.0,0.0,0.0,0.0,4.0989,0.0,0.0,0.0,0.0,0.0,0.0,0.0,0.0,0.0,0.0,0.0,0.0,0.0,0.0,0.0,0.0,0.0,0.0,0.0,0.0,0.0,0.0,0.0,3.0101,3.0171,3.0273,3.0336,3.0432,0.0,0.0,0.0,0.0,0.0,0.0,3.3109,3.3144,3.3292,3.3574,3.5449,3.7603,3.9935,3.9065,3.835,3.7754,3.6504,0.0,0.0,0.0,0.0,0.0,0.0,0.0,0.0,0.0,0.0,0.0,0.0,0.0,0.0,0.0,0.0,0.0,0.0,0.0,0.0,0.0,0.0,0.0,0.0,0.0,0.0,0.0,0.0,0.0,0.0,0.0,0.0,0.0,0.0,0.0,0.0,0.0,0.0,0.0,0.0,0.0,0.0,0.0,0.0,0.0,0.0,0.0,0.0,0.0,0.0,0.0,0.0,0.0,0.0,0.0,0.0,0.0,0.0,0.0,0.0,0.0,0.0,0.0,4.7698,4.8224,4.9042,4.8322,4.8785,4.9981,4.7044,4.5218,4.4156,4.2298,0.0,0.0,0.0,0.0,0.0,0.0,0.0,0.0,0.0,0.0,0.0,0.0,0.0,0.0,0.0,0.0,0.0,0.0,0.0,0.0,0.0,3.111,3.142,3.2168,3.2237,3.2294,3.2449,0.0,0.0,0.0,0.0,0.0,3.4029,3.4082,3.4834,3.6298,3.868,4.0781,4.2585,4.1716,4.1639,4.2124,3.9046,3.7661,3.7623,0.0,0.0,0.0,0.0,0.0,0.0,0.0,0.0,0.0,0.0,0.0,0.0,0.0,0.0,0.0,0.0,0.0,0.0,0.0,0.0,0.0,0.0,0.0,0.0,0.0,0.0,0.0,0.0,0.0,0.0,0.0,0.0,0.0,0.0,0.0,0.0,0.0,0.0,0.0,0.0,0.0,3.9179,3.8422,0.0,0.0,0.0,0.0,0.0,0.0,0.0,0.0,0.0,0.0,0.0,0.0,0.0,4.779,5.0191,5.1187,5.2084,5.2882,5.3643,5.4461,5.5319,5.5183,5.5267,5.5452,5.4981,0.0,4.7775,4.595,0.0,0.0,0.0,0.0,0.0,0.0,0.0,0.0,0.0,0.0,0.0,0.0,0.0,0.0,0.0,0.0,0.0,0.0,0.0,0.0,0.0,3.2722,3.3735,3.4087,3.5002,3.5208,3.4317,3.43,0.0,0.0,0.0,3.4496,3.4978,3.5453,3.7003,3.966,4.1201,4.3085,4.5216,4.4335,4.4393,4.5139,4.3162,4.0954,3.8703,3.8315,0.0,0.0,0.0,0.0,0.0,0.0,0.0,0.0,0.0,0.0,0.0,0.0,0.0,0.0,0.0,0.0,0.0,0.0,0.0,0.0,0.0,0.0,0.0,0.0,0.0,0.0,0.0,0.0,0.0,0.0,0.0,0.0,0.0,0.0,0.0,0.0,0.0,0.0,0.0,3.8963,3.9652,3.9273,3.9664,3.9434,0.0,0.0,0.0,0.0,0.0,0.0,0.0,0.0,0.0,4.9586,5.064,5.2162,5.4309,5.5636,5.673,5.7569,5.8446,5.9049,5.942,5.942,5.9423,5.9408,5.8896,5.71,5.4209,5.0427,4.7806,4.5996,0.0,0.0,0.0,0.0,4.3765,4.3913,0.0,0.0,0.0,0.0,0.0,0.0,0.0,0.0,0.0,0.0,0.0,0.0,3.2799,3.4972,3.6557,3.6942,3.8159,3.8197,3.6513,3.6243,3.566,3.4581,3.4605,3.4934,3.559,3.7035,3.9465,4.2876,4.3896,4.5704,4.8201,4.7301,4.7378,4.8162,4.707,4.4357,4.055,4.0127,3.9065,3.7619,0.0,0.0,0.0,0.0,0.0,0.0,0.0,0.0,0.0,0.0,0.0,0.0,0.0,0.0,0.0,0.0,0.0,0.0,0.0,0.0,0.0,0.0,0.0,0.0,0.0,0.0,0.0,0.0,0.0,0.0,0.0,0.0,0.0,0.0,0.0,0.0,0.0,3.9593,4.0513,4.0744,4.1545,4.1571,0.0,0.0,0.0,0.0,0.0,0.0,4.8115,4.9091,5.0749,5.3288,5.4849,5.6372,5.7893,5.9357,6.0412,6.1076,6.1954,6.2363,6.2363,6.2363,6.2363,6.2324,6.1447,6.0562,5.9377,5.4297,5.113,4.9337,4.752,4.6652,4.6395,4.6489,4.6518,4.6645,0.0,0.0,0.0,0.0,0.0,0.0,0.0,0.0,0.0,0.0,0.0,3.3843,3.6273,3.8077,3.9768,4.1428,4.1582,4.0889,3.9204,3.8329,3.7136,3.5509,3.5491,3.5562,3.5601,3.8823,4.214,4.5514,4.7139,4.9242,5.1717,5.0841,5.0918,5.166,5.0031,4.7351,4.3932,4.235,4.1143,4.0092,3.7677,0.0,0.0,0.0,0.0,0.0,0.0,0.0,0.0,0.0,0.0,0.0,0.0,0.0,0.0,0.0,0.0,0.0,0.0,0.0,0.0,0.0,0.0,0.0,0.0,0.0,0.0,0.0,0.0,0.0,0.0,0.0,0.0,0.0,0.0,0.0,0.0,0.0,0.0,4.3319,4.4178,0.0,0.0,0.0,0.0,4.7156,4.8017,4.9989,5.3424,5.4439,5.6079,5.8635,5.9592,6.0529,6.1426,6.2345,6.2833,6.2872,6.3751,6.4161,6.4161,6.4161,6.4161,6.4122,6.3243,6.2378,6.1213,5.6757,5.3864,5.2123,5.03,4.9046,4.835,4.9034,4.9292,4.9405,0.0,0.0,0.0,0.0,0.0,0.0,0.0,0.0,3.0689,3.1571,3.34,3.5384,3.7421,4.0591,4.3058,4.4233,4.4803,4.4132,4.1898,4.0445,3.8684,3.6498,3.5941,3.6698,3.8902,4.224,4.5371,4.821,4.989,5.145,5.2896,5.2588,5.2607,5.2877,5.2221,5.0941,4.9041,4.568,4.3436,4.1993,3.9954,3.8507,0.0,0.0,0.0,0.0,0.0,0.0,0.0,0.0,0.0,0.0,0.0,0.0,0.0,0.0,0.0,0.0,0.0,0.0,0.0,0.0,0.0,0.0,0.0,0.0,0.0,0.0,0.0,0.0,0.0,0.0,0.0,0.0,0.0,0.0,0.0,0.0,0.0,4.6786,4.7711,0.0,4.9066,4.9126,5.0064,5.237,5.3346,5.5083,5.7953,5.9475,6.092,6.2403,6.379,6.4941,6.5818,6.5565,6.6016,6.7107,6.6308,6.6191,6.6737,6.6152,6.5918,6.5859,6.5038,6.4177,6.3158,6.0464,5.7996,5.5792,5.4541,5.3827,5.3438,5.3093,5.2949,5.2862,0.0,0.0,0.0,0.0,0.0,0.0,0.0,0.0,3.1258,3.242,3.4805,3.7253,3.9579,4.3065,4.5712,4.6872,4.7171,4.6114,4.328,4.1535,3.9357,3.6571,3.6808,3.8705,4.2399,4.5237,4.8191,5.1324,5.2728,5.4008,5.5127,5.5127,5.5127,5.5108,5.4761,5.4308,5.3504,4.9796,4.6895,4.4586,4.2301,4.0704,3.9527,0.0,0.0,0.0,0.0,0.0,0.0,0.0,0.0,0.0,0.0,0.0,0.0,0.0,0.0,0.0,0.0,0.0,0.0,0.0,0.0,0.0,0.0,0.0,0.0,0.0,0.0,0.0,0.0,0.0,0.0,0.0,0.0,0.0,0.0,0.0,4.8271,5.0313,5.1822,5.304,5.391,5.4264,5.5279,5.7309,5.8538,6.0061,6.2052,6.3789,6.4999,6.5567,6.6933,6.7947,6.8532,6.7966,6.8104,6.8942,6.7791,6.7381,6.7634,6.707,6.6796,6.6757,6.5956,6.5116,6.4181,6.2747,6.0938,5.9004,5.7771,5.7273,5.7135,5.6497,5.6217,5.5998,0.0,0.0,0.0,0.0,0.0,0.0,0.0,3.1148,3.2327,3.4064,3.6543,3.9437,4.2833,4.5448,4.761,4.931,4.8633,4.6682,4.3316,4.1539,3.9134,3.5868,3.8269,4.1625,4.5784,4.7657,5.0612,5.4743,5.5632,5.6907,5.85,5.85,5.85,5.8462,5.7612,5.7236,5.7072,5.4583,5.1519,4.8048,4.4624,4.322,4.2816,0.0,0.0,0.0,0.0,0.0,0.0,0.0,0.0,0.0,0.0,0.0,0.0,0.0,0.0,0.0,0.0,0.0,0.0,0.0,0.0,0.0,0.0,0.0,0.0,0.0,0.0,0.0,0.0,0.0,0.0,0.0,0.0,0.0,4.5277,4.8125,5.127,5.3899,5.6434,5.831,5.9219,6.0061,6.0939,6.1836,6.3457,6.4805,6.5663,6.7283,6.818,6.818,6.902,6.949,6.949,6.9451,6.902,6.818,6.8121,6.7654,6.6835,6.6816,6.6796,6.6757,6.5975,6.5136,6.4278,6.3399,6.254,6.158,5.9854,5.915,5.9073,5.8985,5.889,5.8637,0.0,0.0,0.0,0.0,0.0,0.0,0.0,3.1143,3.2333,3.4066,3.7074,4.0093,4.291,4.5987,4.8038,4.851,4.8287,4.6676,4.3323,4.1536,3.9939,3.842,4.1972,4.5124,4.7558,5.1128,5.3842,5.5642,5.7155,5.8121,5.8571,5.8571,5.8571,5.8551,5.8319,5.8195,5.8052,5.6719,5.5196,5.3287,4.867,4.6048,4.4686,0.0,0.0,0.0,0.0,0.0,0.0,0.0,0.0,0.0,0.0,0.0,0.0,0.0,0.0,0.0,0.0,0.0,0.0,0.0,0.0,0.0,0.0,0.0,0.0,0.0,0.0,0.0,0.0,0.0,0.0,0.0,0.0,5.0387,4.8907,5.219,5.5709,5.8326,6.0363,6.2165,6.3671,6.4023,6.4765,6.6228,6.6776,6.7439,6.8318,6.9391,6.9995,6.9995,7.0836,7.1285,7.1285,7.066,7.021,6.9975,6.8707,6.7966,6.7712,6.7089,6.6796,6.6796,6.6562,6.5995,6.5175,6.4298,6.3438,6.2539,6.1419,6.0978,6.0864,6.0163,5.9402,5.8593,0.0,0.0,0.0,0.0,0.0,0.0,0.0,3.1714,3.3023,3.5087,3.7999,4.087,4.3416,4.6074,4.78,4.8132,4.747,4.5772,4.2756,4.0981,4.066,4.1985,4.5051,4.8089,5.0919,5.3773,5.6022,5.7637,5.8642,5.9324,5.9648,5.9648,5.9648,5.9667,6.0035,6.0176,6.007,5.9162,5.8491,5.7581,5.3167,4.9912,4.7514,4.547,4.3835,4.2497,4.1435,4.1046,4.0916,4.0069,0.0,0.0,0.0,0.0,0.0,0.0,0.0,0.0,0.0,0.0,0.0,0.0,0.0,0.0,0.0,0.0,0.0,0.0,0.0,0.0,0.0,0.0,0.0,0.0,5.2309,5.4612,5.5381,5.7335,5.9641,6.2276,6.3766,6.5273,6.7029,6.7185,6.7908,6.9606,6.9723,7.0113,7.0992,7.1517,7.1615,7.1265,7.1733,7.2007,7.2007,7.1148,7.0522,7.0133,6.8767,6.7908,6.7537,6.7031,6.6796,6.6796,6.6796,6.6346,6.5526,6.4669,6.379,0.0,0.0,0.0,0.0,0.0,6.0171,5.9199,0.0,0.0,0.0,0.0,0.0,0.0,0.0,3.2632,3.4105,3.6491,3.9022,4.1527,4.3993,4.5838,4.7101,4.762,4.6321,4.4417,4.1966,4.0673,4.1786,4.5792,4.7859,5.0763,5.4749,5.5879,5.7606,6.0035,6.0132,6.0596,6.1389,6.1389,6.1389,6.1427,6.2201,6.2544,6.2477,6.164,6.1184,6.0722,5.7623,5.4278,5.0842,4.8298,4.6797,4.5725,4.335,4.2446,4.2235,4.1377,0.0,0.0,0.0,0.0,0.0,0.0,0.0,0.0,0.0,0.0,0.0,0.0,0.0,0.0,0.0,0.0,0.0,0.0,0.0,0.0,0.0,0.0,0.0,0.0,5.5493,5.8753,6.2852,6.2929,6.3397,6.5624,6.6697,6.785,6.9391,6.9723,7.0484,7.2026,7.2221,7.2573,7.3255,0.0,0.0,0.0,0.0,7.1948,7.1851,7.1089,7.0211,6.9235,6.8474,6.7634,6.6796,6.6796,6.6796,6.6796,6.6796,6.6386,6.5663,6.4708,6.3732,6.2774,6.1992,6.1698,6.1693,6.1629,6.1047,6.0253,0.0,0.0,0.0,0.0,0.0,0.0,0.0,3.3494,3.4744,3.6635,3.9058,4.1295,4.3154,4.5473,4.6408,4.5143,4.4744,4.3778,4.1927,4.3421,4.5353,4.7532,5.125,5.4039,5.5634,5.7897,5.9659,6.0867,6.1563,6.2356,6.3192,6.3192,6.3192,6.3192,6.3366,6.3419,6.3355,6.3171,6.2239,6.085,6.0184,5.7431,5.3496,5.0938,4.9418,4.8509,4.7317,4.6466,4.5774,4.4917,4.4263,4.3701,4.3047,4.2864,0.0,0.0,0.0,0.0,0.0,0.0,0.0,0.0,0.0,0.0,0.0,0.0,0.0,0.0,0.0,0.0,0.0,0.0,0.0,5.5376,5.9163,6.2774,6.5664,6.7127,6.7849,6.7634,6.9001,7.0074,7.0424,7.1713,7.2689,7.302,7.3646,7.3803,7.3333,7.3294,7.2903,7.2026,7.2007,7.1655,7.0951,7.0776,6.9917,6.8357,0.0,0.0,6.6796,6.6796,6.6796,6.6796,6.6796,6.6718,6.6445,6.4922,6.336,6.1934,6.1777,6.1693,6.1702,6.1693,6.1527,6.1207,0.0,0.0,0.0,0.0,0.0,0.0,0.0,3.4027,3.4929,3.6663,3.8321,3.9835,4.1118,4.2749,4.3408,4.2526,4.2452,4.2452,4.245,4.4836,4.7567,5.0524,5.3547,5.5971,5.7761,5.9109,6.0432,6.1751,6.2196,6.2859,6.3695,6.3671,6.3656,6.3675,6.407,6.4231,6.4199,6.4153,6.3375,6.2066,6.1204,5.9059,5.6165,5.4016,5.2145,5.0543,4.9702,4.8586,4.7375,4.6536,4.5697,4.4936,4.4537,4.416,4.3703,0.0,0.0,0.0,0.0,0.0,0.0,0.0,0.0,0.0,0.0,0.0,0.0,0.0,0.0,4.9383,5.1121,0.0,5.5923,5.9827,6.2618,6.5331,6.8337,6.9508,6.9899,6.9448,7.0171,7.1049,7.1927,7.2786,7.3645,7.4486,7.4915,7.4778,7.3959,7.39,7.3315,7.2046,7.2007,7.1577,7.0717,7.027,6.9391,6.8082,6.7654,6.7224,6.6796,6.6796,6.6796,6.6796,6.6796,6.6562,6.6073,6.4356,6.2872,6.1699,6.1699,6.1696,6.1709,6.1702,6.1688,6.159,0.0,0.0,0.0,0.0,0.0,0.0,0.0,3.4529,3.5109,3.6682,3.7597,3.8428,3.9299,4.0121,4.0458,4.0123,4.0541,4.1474,4.2993,4.5951,4.937,5.328,5.5271,5.7374,5.9652,5.993,6.0906,6.2646,6.2631,6.3154,6.4164,6.4103,6.4077,6.4091,6.4737,6.5037,6.5026,6.498,6.443,6.3507,6.192,6.0185,5.8338,5.6607,5.4376,5.2024,5.1044,4.9591,4.8003,4.7199,4.6385,4.5738,4.5731,4.5346,4.4702,4.3911,4.3717,0.0,0.0,0.0,0.0,0.0,0.0,0.0,0.0,4.7725,4.9071,5.0769,5.1491,5.276,5.5748,5.7289,5.9514,6.3829,6.5546,6.7361,7.0288,7.0698,7.0698,7.0698,7.0854,7.1498,7.2903,7.3196,7.392,7.5424,7.5697,7.5424,7.4544,7.4505,7.3724,7.2046,7.2007,7.1499,7.0463,6.9742,6.8884,6.7849,6.7148,6.6796,6.6796,6.6796,6.6796,6.6796,6.6621,6.6014,6.4999,6.3574,6.248,6.1699,6.1699,6.1699,6.1698,6.1707,6.1703,6.1699,0.0,0.0,0.0,0.0,0.0,0.0,0.0,0.0,3.5733,3.6773,3.7598,3.8434,3.9297,4.0116,3.9988,3.8434,4.0365,4.2059,4.3051,4.761,5.1496,5.4241,5.6776,5.8605,5.9677,6.0519,6.181,6.354,6.3491,6.4277,6.5837,6.5757,6.5729,6.5749,6.5834,6.5863,6.5879,6.5854,6.5311,6.4384,6.3416,6.1544,5.9184,5.7506,5.5275,5.2861,5.127,4.9617,4.8075,4.7267,4.6486,4.5876,4.588,4.5851,4.5681,4.4883,4.4695,4.4715,4.4635,4.5287,4.6005,4.6006,4.6669,4.7528,0.0,5.04,5.2625,5.4362,5.6528,5.8459,5.9612,6.1819,6.3868,6.5155,6.74,6.9372,7.0541,7.0698,7.0698,7.0698,7.1382,7.1929,7.2124,7.2845,7.3664,7.4583,7.5365,7.5424,7.4544,7.4505,7.3724,7.2046,7.2007,7.1206,6.9567,6.9451,6.8573,6.6933,6.6855,6.6796,6.6796,6.6796,6.6796,6.6757,6.6034,6.4804,6.3282,6.3086,6.248,6.1699,6.1699,6.1699,6.1699,6.1697,6.1697,6.1694,0.0,0.0,0.0,0.0,0.0,0.0,0.0,0.0,0.0,3.6092,3.643,3.6964,3.7804,3.8196,3.8288,3.8022,3.9906,4.1875,4.3686,4.8129,5.2054,5.5074,5.7212,5.9004,6.0438,6.0843,6.1906,6.3646,6.3601,6.4439,6.6041,6.6009,6.5999,6.5999,6.5958,6.5947,6.5941,6.5941,6.5422,6.4532,6.3641,6.1775,5.9319,5.7646,5.5123,5.2281,5.0595,4.8613,0.0,4.6468,4.5841,4.5284,4.5789,4.5657,4.5237,4.4943,4.4887,4.5139,4.6183,4.7094,4.7998,4.9013,5.0301,5.1803,5.362,5.5279,5.7055,5.9319,6.0627,6.1798,6.3164,6.4316,6.5643,0.0,6.8688,6.9703,7.058,7.0698,7.0327,6.9312,6.9957,7.0894,7.189,7.2339,7.308,7.4408,7.4837,7.4681,7.384,7.3801,7.3256,7.2046,7.2007,7.1402,7.0172,6.9645,6.8786,6.7556,6.705,6.6796,6.6796,6.6796,6.6543,6.6053,6.5215,6.414,6.2969,6.2441,6.2031,6.1699,6.1699,6.1699,6.1699,6.1699,6.1699,6.1698,0.0,0.0,0.0,0.0,0.0,0.0,0.0,0.0,0.0,0.0,3.5775,3.6235,3.7067,3.7164,3.7382,3.7945,3.9583,4.1647,4.4147,4.7879,5.1592,5.5208,5.7037,5.8799,6.0585,6.0874,6.1735,6.3203,6.3206,6.3907,6.529,6.527,6.5375,6.5606,6.5557,6.5667,6.5904,6.5904,6.5397,6.4493,6.3416,6.1435,5.8934,5.6766,5.3883,5.082,4.9592,4.7735,4.578,4.5377,4.4867,4.4517,4.5138,4.4953,4.4554,4.4824,4.5237,4.5903,4.7231,4.8701,5.0282,5.2038,5.3951,5.6019,5.8343,5.9553,6.0782,6.2911,6.336,6.3731,6.5019,6.5624,6.6619,6.8708,6.943,6.9977,7.06,7.0483,6.9684,6.7947,6.8103,6.8942,7.0426,7.0992,7.1987,7.3685,7.3803,7.3666,7.3313,7.3294,7.2903,7.2026,7.2007,7.1577,7.0717,6.984,6.8962,6.8082,6.7224,6.6796,6.6796,6.6796,6.623,6.5214,6.4571,6.3673,6.2598,6.1953,6.1699,6.1699,6.1699,6.1699,6.1699,6.1699,6.1699,6.1699,0.0,0.0,0.0,0.0,0.0,0.0,0.0,0.0,0.0,0.0,0.0,0.0,0.0,3.8051,3.8037,3.8003,3.9583,4.1647,4.4147,4.674,5.0087,5.4357,5.6209,5.7911,5.962,6.0522,6.1402,6.2243,6.2177,6.2592,6.3473,6.3408,6.3839,6.4647,6.4647,6.5109,6.5904,6.5904,6.5397,6.4455,6.2807,6.0614,5.7967,5.4601,5.1274,4.8403,4.8346,4.7289,4.5653,4.4108,4.3596,4.3643,4.3664,4.3695,4.3882,4.4661,4.6097,4.7456,4.7565,5.0048,5.2996,5.4753,5.7074,5.9416,6.1172,6.2265,6.3145,6.4064,6.4259,6.4278,6.4337,6.5664,6.707,6.7986,6.9565,7.0678,7.0698,6.9977,6.8787,6.705,6.617,6.6034,0.0,6.8495,7.0193,7.1948,7.2085,7.2436,7.3255,7.3294,7.2903,7.2026,7.2007,7.1577,7.0717,6.984,6.8962,6.8082,6.7224,6.6796,6.6796,6.6796,6.5898,6.4337,6.4317,6.3321,6.1738,6.1719,6.1699,6.1699,6.1699,6.1699,6.1699,6.1699,6.1699,6.1699,0.0,0.0,0.0,0.0,0.0,0.0,0.0,0.0,0.0,0.0,0.0,0.0,0.0,0.0,0.0,0.0,4.0204,4.1374,4.3374,4.5889,4.8702,5.1842,5.3608,5.5597,5.7892,5.8254,5.9093,6.0476,6.0454,6.1158,6.2529,6.2505,6.2954,6.3737,6.3737,6.3891,6.4166,6.4166,6.3705,6.2787,6.1075,5.8858,5.6203,5.2823,4.9473,4.6441,0.0,4.4314,4.3369,4.2862,4.2742,4.2897,4.3481,4.3275,4.3127,4.4551,4.6194,4.807,5.0359,5.3093,5.5825,5.8128,6.0198,6.2149,6.3885,6.4062,6.3946,6.4239,6.2912,6.1544,6.0959,6.131,6.2168,6.3612,6.5798,6.7498,6.8044,6.8357,6.7693,6.541,6.5409,0.0,0.0,0.0,0.0,7.0134,7.0816,7.1264,7.1556,7.2124,7.23,7.2007,7.2007,7.1851,7.1577,7.0113,6.9255,6.8942,6.7499,6.6796,6.6777,6.6249,6.5371,6.4278,6.3693,6.2774,6.1699,6.1699,6.1699,6.1699,6.1699,6.1699,6.1699,6.1699,6.1699,6.1699,0.0,0.0,0.0,0.0,0.0,0.0,0.0,0.0,0.0,0.0,0.0,0.0,0.0,0.0,0.0,0.0,0.0,4.1243,4.2989,4.4624,4.6682,4.9221,5.0644,5.2453,5.4765,5.5092,5.5915,5.7315,5.7623,5.8339,5.9383,5.9671,6.0267,6.105,6.105,6.1223,6.1506,6.1506,6.0858,5.9652,5.7934,5.5549,5.2645,4.9572,4.6549,0.0,4.2772,4.1934,4.1352,4.1734,4.2108,4.2505,4.3051,4.3484,4.4075,4.5518,4.7802,5.0495,5.3327,5.6216,5.8967,6.1232,6.2872,6.4219,6.5331,6.4922,6.4025,6.3107,6.0842,5.8675,5.7503,5.7796,5.8772,6.0489,6.3495,6.5878,6.6699,6.7556,6.7264,6.504,6.5253,6.537,0.0,0.0,0.0,6.8806,6.9742,7.0367,7.0678,7.1538,7.2007,7.2007,7.2007,7.2007,7.2007,7.0271,6.91,6.8456,6.7343,6.6796,6.6777,6.5975,6.5116,6.4259,6.3379,6.25,6.1699,6.1699,6.1699,6.1699,6.1699,6.1699,6.1699,6.1699,6.1699,6.1699,0.0,0.0,0.0,0.0,0.0,0.0,0.0,0.0,0.0,0.0,0.0,0.0,0.0,0.0,0.0,0.0,0.0,0.0,4.2854,4.3008,4.4124,4.6601,4.7447,4.8663,5.0399,5.114,5.1967,5.287,5.3703,5.4145,5.426,5.5016,5.5843,5.6676,5.6676,5.7132,5.7909,5.7909,5.6934,5.5228,5.3549,5.087,4.762,4.5086,4.2622,4.0575,4.0696,4.0257,3.9786,4.0765,4.1734,4.2551,4.2649,4.4426,4.6671,4.7646,5.0905,5.4596,5.6429,5.9396,6.2363,6.4005,6.5059,6.5643,6.5546,6.4786,6.3361,6.0744,5.8109,5.5746,5.3989,5.5024,5.6683,5.8362,6.2363,6.5565,6.6425,6.7439,6.7498,6.5858,6.5702,0.0,0.0,0.0,0.0,6.8043,0.0,6.9762,7.058,7.1499,7.2007,7.2007,7.2007,7.2007,7.2007,7.0271,6.8534,6.6796,6.6796,6.6796,6.6777,6.5917,6.5077,6.4259,6.3321,6.2461,6.1699,6.1699,6.1699,6.1699,6.1699,6.1699,6.1699,6.1699,6.1699,6.1699,0.0,0.0,0.0,0.0,0.0,0.0,0.0,0.0,0.0,0.0,0.0,0.0,0.0,0.0,0.0,0.0,0.0,0.0,4.1127,4.1777,4.2716,4.4008,4.4278,4.5163,4.686,4.6471,4.699,4.8505,4.8735,4.949,5.0702,5.0914,5.1476,5.2304,5.2304,5.2438,5.265,5.265,5.2015,5.0856,4.9178,4.7216,4.4989,4.2435,4.033,3.8855,3.9566,3.9362,3.8972,4.0567,4.2534,4.4562,4.5869,4.7587,4.9559,5.1725,5.4498,5.7504,6.0549,6.3399,6.5604,6.6055,6.6328,6.6172,6.4922,6.2951,6.0666,5.8109,5.4477,5.1237,4.9539,4.9598,5.0437,5.2115,5.7093,0.0,6.2792,6.5935,0.0,6.6621,6.7068,6.7457,6.7457,6.7457,0.0,0.0,6.9275,6.951,6.9723,7.1167,7.2007,7.2007,7.2007,7.2007,7.2007,7.0271,6.8534,6.6796,6.6796,6.6796,6.6757,6.5293,6.4513,6.422,6.2696,6.1914,6.1699,6.1699,6.1699,6.1699,6.1699,6.1699,6.1699,6.1699,6.1699,6.1699,0.0,0.0,0.0,0.0,0.0,0.0,0.0,0.0,0.0,0.0,0.0,0.0,0.0,0.0,0.0,0.0,0.0,0.0,0.0,4.0954,4.145,4.1935,4.1627,4.2031,4.3324,4.2532,4.2762,4.4085,4.4466,4.5139,4.6067,4.6451,4.6894,4.736,4.736,4.736,4.736,4.736,4.6855,0.0,0.0,4.3066,4.1335,3.9527,3.8043,3.7128,3.8451,3.9434,4.0494,4.304,4.5142,4.7034,4.9161,5.1272,5.3462,5.6059,5.8636,6.1311,6.4394,6.6561,6.785,6.7478,6.6815,6.5624,6.3146,6.0296,5.7328,5.436,5.0613,4.7451,4.6123,4.6515,4.7821,5.0261,5.5414,6.0118,6.3007,6.6111,6.8064,6.7948,6.8376,6.8669,6.8669,6.8669,6.8864,0.0,6.9742,6.9977,6.9977,7.1265,7.2007,7.2007,7.2007,7.1812,7.1421,7.0074,6.8727,6.7361,6.6972,6.6796,6.6757,6.5469,6.4669,6.422,0.0,6.2051,6.1699,6.1699,6.1699,6.1699,6.1699,6.1699,6.1699,6.1699,6.1699,6.1699,0.0,0.0,0.0,0.0,0.0,0.0,0.0,0.0,0.0,0.0,0.0,0.0,0.0,0.0,0.0,0.0,0.0,0.0,0.0,0.0,4.0496,4.0496,3.9627,3.9454,4.015,3.9261,3.9184,3.9992,4.0758,4.1177,4.1312,4.2066,4.2412,4.2412,4.2412,4.2412,4.2412,4.2412,4.1989,4.1216,4.0358,3.9127,3.7738,0.0,3.6101,3.5734,3.7561,3.9967,4.2838,4.633,4.823,4.9639,5.2489,5.517,5.7774,6.0334,6.2931,6.5508,6.7947,6.9255,6.9684,6.8688,6.701,6.4628,6.09,5.7407,5.3933,5.0339,4.7041,4.4562,4.3685,4.4954,4.7139,5.0223,5.5141,6.0021,6.416,6.658,6.8298,6.9275,6.9608,6.9746,6.9746,6.9748,6.9749,6.9749,7.045,7.0819,7.0717,7.1538,7.2007,7.2007,7.2007,7.1538,7.0541,6.9782,6.8903,6.7927,6.7166,6.6796,6.6777,6.5975,6.5116,6.4259,6.3379,6.25,6.1699,6.1699,6.1699,6.1699,6.1699,6.1699,6.1699,6.1699,6.1699,6.1699,0.0,0.0,0.0,0.0,0.0,0.0,0.0,0.0,0.0,0.0,3.6987,3.8334,0.0,0.0,0.0,0.0,0.0,0.0,0.0,0.0,0.0,4.0496,3.905,3.8296,3.843,3.6946,3.6542,3.735,3.7504,3.7946,3.8661,3.8815,3.8873,3.8873,3.8873,3.8873,3.8873,3.8873,3.8796,3.8584,3.7715,3.7177,3.685,3.6019,0.0,0.0,3.7614,4.0016,4.2823,4.6327,4.9033,5.1654,5.5647,5.8715,6.1334,6.3922,6.6502,6.8924,7.0816,7.1968,7.224,7.0659,6.7906,6.4316,5.9378,5.5612,5.1961,4.7803,4.5343,4.3665,4.2786,4.4054,4.5655,4.6963,5.2118,5.6957,5.9826,6.414,6.7616,6.9217,7.067,7.1554,7.1554,7.1543,0.0,0.0,7.1684,7.1462,7.0738,7.1538,7.2007,7.2007,7.2007,7.1245,6.9645,6.949,6.8592,6.7011,6.6874,6.6796,6.6777,6.5975,6.5116,6.4259,6.3379,0.0,6.1699,6.1699,6.1699,6.1699,6.1699,6.1699,6.1699,6.1699,6.1699,6.1699,0.0,0.0,0.0,0.0,0.0,0.0,0.0,3.5024,3.5461,3.5925,3.673,3.7429,3.7855,3.8647,3.9146,0.0,0.0,0.0,0.0,0.0,0.0,0.0,3.93,3.8427,3.8007,3.6773,3.6115,3.6077,0.0,3.6292,3.6696,3.6696,3.6696,3.6696,3.6696,3.6696,3.6696,3.6696,3.6696,3.6657,3.6231,3.6077,3.6038,0.0,0.0,0.0,3.7283,3.9343,4.2017,4.4605,4.7513,5.0885,5.5623,5.923,6.2209,6.4792,6.7375,6.9879,7.2085,7.2981,7.2767,7.0562,6.7459,6.3321,5.7211,5.3151,4.9443,4.5168,4.3236,4.2221,4.1792,4.3157,4.4914,4.669,5.0907,5.5319,5.9222,6.3477,6.6974,6.9147,7.0949,7.2008,7.1994,7.1998,7.2,7.2,7.2,7.1821,7.1401,7.1772,7.2004,7.1997,7.1569,7.0921,7.0074,6.9176,6.8298,6.7478,6.7011,6.6796,6.6796,6.6406,6.5528,6.4278,6.3868,0.0,6.1699,6.1699,6.1699,6.1699,6.1699,6.1699,6.1699,6.1699,6.1699,6.1699,0.0,0.0,0.0,0.0,0.0,0.0,0.0,3.4753,3.5592,3.6458,3.6423,3.6366,3.6553,3.7363,3.7893,0.0,0.0,0.0,0.0,0.0,0.0,0.0,0.0,0.0,3.8001,0.0,0.0,3.5456,3.5456,0.0,0.0,0.0,0.0,0.0,3.55,3.55,3.55,3.55,3.55,0.0,0.0,3.55,0.0,0.0,0.0,0.0,0.0,3.8479,4.074,4.2677,4.526,4.8484,5.3116,5.7341,6.1153,6.4102,6.6805,6.9508,7.2493,7.3294,7.2728,7.0289,6.6835,6.2209,5.5298,5.1043,4.7315,4.3001,4.1577,4.1109,4.1109,4.2514,4.4368,4.6436,4.9638,5.3542,5.8343,6.2013,6.5297,6.8237,7.0271,0.0,7.1709,7.1887,0.0,7.2004,7.1829,7.1808,7.198,7.1824,7.1724,7.1717,7.0878,7.0325,7.0137,6.879,6.8008,6.781,6.7128,6.6796,6.6796,6.6621,6.5723,6.4298,6.4103,0.0,6.1699,6.1699,6.1699,6.1699,6.1699,6.1699,6.1699,6.1699,6.1699,6.1699,0.0,0.0,0.0,0.0,0.0,0.0,0.0,3.4687,3.5523,3.6398,3.5829,3.5638,3.6417,3.7346,3.7881,0.0,0.0,0.0,0.0,0.0,0.0,0.0,0.0,0.0,0.0,0.0,0.0,3.5319,3.5319,0.0,0.0,0.0,0.0,0.0,0.0,3.55,3.55,3.55,0.0,0.0,0.0,0.0,0.0,0.0,0.0,0.0,0.0,3.771,3.9022,4.1551,4.3164,4.4578,4.7432,5.231,5.7801,6.1993,6.5031,6.7968,7.2161,7.3294,7.2864,7.1049,6.6815,6.131,5.4382,5.0165,4.6475,4.2123,4.1167,4.1109,4.1109,4.2514,4.3783,4.4017,4.6925,5.0438,5.4088,5.7542,6.1256,6.5445,0.0,0.0,7.0739,7.1542,7.1992,7.1992,7.1269,7.1151,7.1962,7.1258,7.0827,7.0827,6.9968,6.9144,6.8353,6.8178,6.7705,6.6913,6.6835,6.6796,6.6777,6.6034,6.5194,6.4259,6.3457,0.0,0.0,6.1699,6.1699,6.1699,6.1699,6.1699,6.1699,6.1699,6.1699,6.1699,0.0,0.0,0.0,0.0,0.0,0.0,3.3098,3.4316,3.548,3.6269,3.5659,3.545,3.6284,3.6315,3.6258,3.6241,0.0,0.0,0.0,0.0,0.0,0.0,0.0,0.0,0.0,0.0,3.5829,3.5308,3.5308,0.0,0.0,0.0,0.0,0.0,0.0,3.546,3.55,3.55,0.0,0.0,0.0,0.0,0.0,0.0,0.0,0.0,0.0,0.0,3.8565,3.9654,4.1284,4.3064,4.41,4.6808,5.0939,5.7848,6.2077,6.5565,7.0424,7.1732,7.1322,6.9565,6.5642,6.0411,5.3483,4.9677,4.6357,4.2006,4.1109,4.1109,4.1109,4.2104,4.2923,4.2923,4.4933,4.7724,5.1179,5.4635,5.8409,6.274,6.6005,6.8236,0.0,0.0,7.1211,7.1211,7.0449,7.0117,7.0428,7.0135,6.9958,6.9916,6.9115,6.8488,6.809,6.7621,6.721,6.6855,6.6322,6.6084,6.6045,6.5199,6.4337,6.3498,6.3145,0.0,0.0,6.1699,6.1699,6.1699,6.1699,6.1699,6.1699,6.1699,6.1699,6.1699,0.0,0.0,0.0,0.0,0.0,3.2257,3.2546,3.3847,3.5147,3.6177,3.5606,3.5416,3.6211,3.5614,3.5155,3.5142,3.5684,0.0,0.0,0.0,0.0,0.0,0.0,0.0,0.0,0.0,3.589,3.5274,3.5274,3.5281,0.0,0.0,3.5331,3.5368,0.0,0.0,0.0,0.0,0.0,0.0,0.0,0.0,0.0,0.0,0.0,0.0,0.0,0.0,0.0,0.0,0.0,4.1688,4.1932,4.3035,4.5774,5.3611,5.8192,6.1915,6.7322,6.8806,6.8454,6.6951,6.3163,5.8205,5.2038,4.8466,4.5421,4.1831,4.1109,4.1109,4.1109,4.1596,4.2025,4.2025,4.3489,4.5635,4.8563,5.1963,5.5545,5.9366,0.0,6.5817,6.6933,6.9043,7.0332,7.0312,6.957,6.9082,6.9043,6.8847,6.8828,6.9042,6.8241,6.779,6.7746,6.718,6.6768,6.6513,6.5883,6.5451,6.5196,6.4311,6.3583,6.2993,6.2721,0.0,0.0,6.1699,6.1699,6.1699,6.1699,6.1699,6.1699,6.1699,6.1699,6.1699,0.0,0.0,0.0,0.0,0.0,0.0,3.2454,3.3289,3.4407,3.6078,3.5606,3.5416,3.6211,3.5587,3.5075,3.5006,3.5066,0.0,0.0,0.0,0.0,0.0,0.0,0.0,0.0,0.0,3.5205,3.5205,3.5205,3.523,3.5308,3.5308,3.5293,3.5293,0.0,0.0,0.0,0.0,0.0,0.0,0.0,0.0,0.0,0.0,0.0,0.0,0.0,0.0,0.0,0.0,0.0,0.0,0.0,4.1728,4.3613,4.9681,5.3319,5.6705,6.2736,6.4376,6.4161,6.3262,5.9183,5.4226,4.9833,4.6184,4.3236,4.146,4.1109,4.1109,4.1109,4.1109,4.1109,4.1109,4.2572,4.4329,4.6086,4.9276,5.2428,0.0,5.9156,6.244,6.418,6.748,6.9472,6.9414,6.8672,0.0,6.8203,6.7402,6.7324,6.8183,6.7363,6.6914,6.6911,6.6891,6.6479,6.5614,6.5594,6.5145,6.4286,6.3408,6.3013,6.2945,0.0,0.0,0.0,6.1699,6.1699,6.1699,6.1699,6.1699,6.1699,6.1699,6.1699,6.1699,0.0,0.0,0.0,0.0,0.0,0.0,0.0,3.2775,3.3702,3.3645,3.4404,3.4841,3.4556,3.4835,3.5006,3.4936,3.4997,0.0,0.0,0.0,0.0,0.0,0.0,0.0,0.0,0.0,3.5205,3.5205,3.5205,3.5213,3.5226,3.5226,3.5269,3.5308,3.532,3.5323,0.0,0.0,0.0,0.0,0.0,0.0,0.0,0.0,0.0,0.0,0.0,0.0,0.0,0.0,0.0,0.0,0.0,0.0,0.0,4.5224,4.8377,5.1922,5.6822,5.8149,5.8071,5.7817,5.5162,5.1668,4.7939,4.5325,4.3217,4.146,4.1109,4.1109,4.1109,4.1109,4.1304,4.1888,4.2454,4.3626,4.5969,4.826,5.0865,5.4035,5.9256,6.3515,0.0,0.0,6.7969,6.8535,6.7793,6.7305,6.7305,6.7051,6.7031,6.7305,6.7031,6.6894,6.6894,6.6308,6.5878,6.5585,6.4392,6.3687,6.3375,6.2512,6.2115,0.0,0.0,0.0,0.0,6.1699,6.1699,6.1699,6.1699,6.1699,6.1699,6.1699,6.1699,6.1699,0.0,0.0,0.0,0.0,0.0,0.0,0.0,3.1939,3.2608,3.2418,3.3312,3.3776,3.3255,3.3684,3.4125,3.442,3.4481,0.0,0.0,0.0,0.0,0.0,0.0,0.0,0.0,3.5197,3.5205,3.5205,3.5205,3.5205,3.5205,3.5205,3.5222,3.5265,3.5281,3.5304,0.0,0.0,0.0,0.0,0.0,0.0,3.5463,0.0,0.0,0.0,0.0,0.0,0.0,0.0,0.0,0.0,0.0,0.0,0.0,0.0,4.3473,4.649,5.1487,5.2856,5.2859,5.2859,5.0906,4.8349,4.5871,4.3978,4.2416,4.1324,4.1362,4.1499,4.1167,4.1362,4.1655,4.1869,4.2746,4.382,4.5149,4.7657,5.0869,5.4977,5.9355,0.0,0.0,6.6719,6.7129,6.7676,6.7207,6.6894,6.6894,6.6582,6.6406,6.6406,6.6406,6.625,6.5918,6.5371,6.4941,6.4609,6.3515,6.2831,6.2499,6.195,6.1693,0.0,0.0,0.0,0.0,6.1702,6.1699,6.1699,6.1699,6.1699,6.1699,6.1699,6.1699,6.1699,0.0,0.0,0.0,0.0,0.0,0.0,0.0,3.0899,3.1275,3.2108,3.2315,3.2385,3.2322,3.2364,3.2743,3.3619,0.0,0.0,0.0,0.0,0.0,0.0,0.0,0.0,3.52,3.52,3.5201,3.5205,3.5205,3.5205,3.5205,3.5205,3.5205,3.5209,3.5269,3.5304,0.0,0.0,0.0,0.0,3.5308,3.533,0.0,0.0,0.0,0.0,0.0,0.0,0.0,0.0,0.0,0.0,0.0,0.0,0.0,0.0,0.0,0.0,0.0,4.8244,4.8349,4.8349,4.6572,4.4581,4.3705,4.226,0.0,4.1109,4.1791,4.2123,4.1265,4.181,4.2123,4.1323,4.3333,4.4719,4.3901,4.7545,5.2183,0.0,5.9433,0.0,6.5176,6.623,6.6738,6.6797,6.6758,6.6719,6.6719,6.5957,6.5488,6.543,6.543,6.5058,6.4316,6.4238,6.3808,6.3008,6.2949,6.248,6.1699,6.1699,6.1699,0.0,0.0,0.0,0.0,6.1705,6.1699,6.1699,6.1699,6.1699,6.1699,6.1699,6.1699,6.1699,0.0,0.0,0.0,0.0,0.0,0.0,0.0,0.0,0.0,0.0,3.1569,3.2177,3.1545,3.2023,3.2743,0.0,0.0,0.0,0.0,0.0,0.0,0.0,0.0,0.0,3.52,3.5189,3.5191,3.5205,3.5205,3.5205,3.5205,3.5205,3.5205,3.5205,3.5218,3.5257,0.0,0.0,0.0,0.0,3.5308,3.533,0.0,0.0,0.0,0.0,3.6514,3.7422,0.0,0.0,0.0,0.0,0.0,0.0,0.0,0.0,3.8658,3.9268,4.1354,0.0,4.3898,4.3898,4.3449,4.2786,0.0,4.1382,4.1109,4.1109,4.1791,4.2123,4.1265,4.181,4.2337,4.2123,4.3722,4.4935,4.4727,4.8958,5.3534,5.7441,5.9961,6.2246,6.4394,6.4785,6.5195,6.5859,6.5293,6.4902,6.4902,6.4726,6.4297,6.3633,6.3613,6.3828,6.4297,6.3633,6.3203,6.2988,6.2324,6.1894,6.1699,6.1699,6.1699,0.0,0.0,0.0,6.1697,6.1705,6.1699,6.1699,6.1699,6.1699,6.1699,6.1699,6.1699,6.1699,0.0,0.0,0.0,0.0,0.0,0.0,0.0,0.0,0.0,0.0,0.0,0.0,0.0,0.0,0.0,0.0,0.0,0.0,0.0,0.0,0.0,0.0,0.0,3.5057,3.5147,3.5172,3.5202,3.5205,3.5205,3.5205,3.5205,3.5205,3.5205,3.5205,3.5205,3.5218,0.0,0.0,0.0,0.0,3.5293,0.0,0.0,0.0,0.0,0.0,3.6029,3.6805,0.0,3.8189,3.8673,3.9,0.0,0.0,0.0,0.0,3.7581,3.8094,3.8976,4.0179,4.1302,4.1693,4.1791,4.1674,4.1206,4.1109,4.1109,4.1109,4.1791,4.2123,4.1265,4.181,4.2395,4.2395,4.3859,4.5699,4.7663,5.1031,5.4433,5.7539,5.9805,6.1797,0.0,6.3691,6.4062,6.4941,6.457,6.4297,6.4297,6.3926,6.3496,6.3008,6.2617,6.2637,6.3105,6.2637,6.2402,6.2402,6.1933,6.1699,6.1699,6.1699,6.1699,0.0,0.0,0.0,6.1702,6.1693,6.1705,6.1699,6.1699,6.1699,6.1699,6.1699,6.1699,6.1699,0.0,0.0,0.0,0.0,0.0,0.0,0.0,0.0,0.0,0.0,0.0,0.0,0.0,0.0,0.0,0.0,0.0,0.0,0.0,0.0,0.0,0.0,0.0,3.5024,3.5092,3.5179,3.5202,3.5205,3.5205,3.5205,3.5205,3.5205,3.5205,3.5205,3.5205,3.5209,0.0,0.0,0.0,0.0,3.5285,0.0,0.0,0.0,0.0,0.0,0.0,0.0,0.0,3.6883,3.7411,3.7955,3.7218,0.0,0.0,0.0,0.0,0.0,3.8221,3.905,3.9858,4.0855,4.1109,4.1109,4.1109,4.1109,4.1109,4.1109,4.1791,4.2123,4.1265,4.1927,4.2649,4.2786,4.4467,4.7286,5.1594,5.3474,5.5351,5.7969,5.9648,0.0,6.2832,6.2871,6.3164,6.4043,6.3984,6.3906,6.3906,6.3203,6.2793,6.2793,6.209,6.1699,6.1699,6.1699,6.1699,6.1699,6.1699,6.1699,6.1699,6.1699,6.1699,6.1699,0.0,0.0,6.169,6.1702,6.1692,6.1702,6.1699,6.1699,6.1699,6.1699,6.1699,6.1699,0.0,0.0,0.0,0.0,0.0,0.0,0.0,0.0,0.0,0.0,0.0,0.0,0.0,0.0,0.0,0.0,0.0,0.0,0.0,0.0,0.0,3.4908,3.4955,3.5024,3.5092,3.5179,3.5202,3.5205,3.5205,3.5205,3.5205,3.5205,3.5205,3.5205,3.5205,3.5226,3.5281,0.0,0.0,3.5293,3.5297,0.0,0.0,0.0,0.0,0.0,0.0,0.0,0.0,3.6816,3.6941,3.7082,3.6953,0.0,0.0,0.0,0.0,0.0,3.8075,3.8637,3.9157,4.0719,4.1109,4.1109,4.1109,4.1109,4.1109,4.1109,4.1791,4.2123,4.1265,4.2416,4.3743,4.4484,4.7249,5.0832,5.5193,5.6034,5.7148,5.9707,0.0,6.1894,6.289,6.2324,6.2265,6.3125,6.2519,6.2109,6.2109,6.1973,6.1894,6.1894,6.1777,6.1699,6.1699,6.1699,6.1699,6.1699,6.1699,6.1699,6.1699,6.1699,6.1699,6.1699,0.0,6.1697,6.1696,6.1705,6.1697,6.1695,6.1704,6.1699,6.1699,6.1699,6.1699,6.1699,0.0,0.0,0.0,0.0,0.0,0.0,0.0,0.0,0.0,0.0,0.0,0.0,0.0,0.0,0.0,0.0,0.0,0.0,0.0,0.0,3.4908,3.4908,3.5001,3.507,3.5092,3.5179,3.5202,3.5205,3.5205,3.5205,3.5205,3.5205,3.5205,3.5205,3.5205,3.5249,3.5308,3.5308,3.5293,3.5293,0.0,0.0,0.0,0.0,0.0,0.0,0.0,0.0,0.0,0.0,3.6129,3.6141,3.6189,0.0,0.0,0.0,0.0,0.0,3.7494,3.8211,3.8884,4.0093,4.0757,4.1109,4.1109,4.146,4.1674,4.1206,4.1791,4.2123,4.1265,4.2514,4.4585,4.7304,5.0261,5.3236,5.6189,5.7402,5.8437,0.0,0.0,6.1152,6.1562,6.123,6.1367,6.2226,6.1933,6.1699,6.1699,6.1699,6.1699,6.1699,6.1699,6.1699,6.1699,6.1699,6.1699,6.1699,6.1699,6.1699,6.1699,6.1699,6.1699,6.1699,0.0,6.1698,6.1697,6.1693,6.1708,6.1704,6.1699,6.1695,6.1708,6.1702,6.1699,6.1701,0.0,0.0,0.0,0.0,0.0,0.0,0.0,0.0,0.0,0.0,0.0,0.0,0.0,0.0,0.0,0.0,0.0,0.0,0.0,0.0,3.4908,3.4908,3.5024,3.5092,3.5092,3.5168,3.5191,3.5205,3.5205,3.5205,3.5205,3.5205,3.5205,3.5205,3.5205,3.5234,3.5304,3.5304,3.5312,3.5357,0.0,0.0,0.0,0.0,0.0,0.0,0.0,0.0,0.0,0.0,0.0,0.0,0.0,0.0,0.0,3.5755,3.584,3.6102,3.7024,3.7917,3.8764,3.9604,4.06,4.1401,4.1401,4.2084,4.2513,4.185,4.224,4.2494,4.1831,4.3626,4.6402,5.0104,5.3076,5.5522,5.7245,5.8633,5.9551,5.9765,6.0332,6.0703,6.0703,6.0703,6.0976,6.164,6.1699,6.1699,6.1699,6.1699,6.1699,6.1699,6.1504,6.1406,6.1406,6.1211,6.1308,6.1699,6.1699,6.1699,6.1699,6.1699,6.1699,6.1699,6.1699,6.1582,6.1405,6.1619,6.1578,6.1418,6.1612,6.1706,6.17,6.1692,6.1707,6.1709,0.0,0.0,0.0,0.0,0.0,0.0,0.0,0.0,0.0,0.0,0.0,0.0,0.0,0.0,0.0,0.0,0.0,0.0,0.0,0.0,3.4908,3.4908,3.5024,3.5092,3.5092,3.5179,3.5201,3.5205,3.5205,3.5205,3.5205,3.5205,3.5205,3.5205,3.5205,3.5231,3.5304,3.5304,3.5368,3.5493,3.5497,0.0,0.0,0.0,0.0,0.0,0.0,0.0,0.0,0.0,0.0,0.0,0.0,0.0,3.5626,3.5682,3.5799,3.6093,3.6962,3.7842,3.8716,3.9583,4.1068,4.2317,4.2317,4.2982,4.3587,4.3529,4.3568,4.3587,4.3529,4.6866,5.0269,5.2198,5.5383,5.8218,5.9883,0.0,6.0605,6.1426,6.1562,6.1601,6.1601,6.1601,6.1621,6.1699,6.1699,6.1699,6.1699,6.1699,6.1699,6.1699,6.0918,6.0488,6.0488,5.9746,6.0156,6.1699,6.1699,6.1699,6.1699,6.1699,6.1699,6.1699,6.1699,6.123,6.0566,6.1366,6.1228,6.0563,6.1379,6.1709,6.1708,6.1707,6.1707,6.1707,0.0,0.0,0.0,0.0,0.0,0.0,0.0,0.0,0.0,0.0,0.0,0.0,0.0,0.0,0.0,0.0,0.0,0.0,0.0,3.4908,3.4922,3.4955,3.5057,3.5125,3.5155,3.5196,3.5205,3.5205,3.5205,3.5205,3.5205,3.5205,3.5205,3.5205,3.5234,3.5277,3.5289,3.5334,3.5416,3.55,3.55,3.55,0.0,0.0,0.0,0.0,0.0,0.0,0.0,0.0,3.55,3.5507,3.5496,3.555,3.5612,3.5681,3.5773,3.5927,3.6289,3.7429,3.8598,3.8959,4.1147,4.3352,4.3898,4.5108,4.6261,4.6768,4.6475,4.5968,4.5422,4.7938,5.1027,5.3853,5.6747,5.9252,6.0975,6.1211,6.1328,6.166,6.1699,6.1699,6.1699,6.1211,6.0898,6.0898,6.043,6.0156,6.0156,6.0156,6.0156,6.0156,5.9824,5.9648,5.9648,5.9355,5.9512,6.0156,6.0156,6.0156,6.0156,6.0156,6.0156,6.0156,6.0156,5.9961,5.9726,6.0547,6.0703,6.0488,6.1364,6.1695,6.1695,6.1691,6.1709,6.1709,0.0,0.0,0.0,0.0,0.0,0.0,0.0,0.0,0.0,0.0,0.0,0.0,0.0,0.0,0.0,0.0,0.0,0.0,3.4434,3.4756,3.4931,3.5001,3.5066,3.5133,3.52,3.5204,3.5205,3.5205,3.5205,3.5205,3.5205,3.5205,3.5205,3.5209,3.5269,3.5293,3.5293,3.5372,3.5446,3.55,3.55,3.55,0.0,0.0,0.0,0.0,0.0,0.0,0.0,0.0,3.55,3.5507,3.5499,3.5534,3.5584,3.5643,3.5727,3.5782,3.5855,3.7159,3.8508,3.8564,4.1163,4.4149,4.5811,4.7119,4.829,4.9384,4.9188,4.8524,4.7666,4.9363,5.1964,0.0,5.7391,5.9427,6.1423,6.1464,6.1289,6.1289,6.1074,6.0918,6.0918,6.0371,6.0019,6.0019,5.9512,0.0,0.0,5.9199,5.9199,5.9199,5.8926,5.8789,5.8789,5.8515,5.8379,5.8379,5.8379,5.8672,5.9199,5.9199,5.9199,5.9199,5.9199,5.9043,5.8848,5.9687,6.0019,6.0078,6.0683,6.1073,6.1288,6.1286,6.146,6.1695,0.0,0.0,0.0,0.0,0.0,0.0,0.0,0.0,0.0,0.0,0.0,0.0,0.0,0.0,0.0,0.0,0.0,0.0,3.3657,3.4453,3.4931,3.5001,3.5066,3.5133,3.52,3.5204,3.5205,3.5205,3.5205,3.5205,3.5205,3.5205,3.5205,3.5229,3.5269,3.5312,3.5312,3.5372,3.5446,3.55,3.55,3.55,3.55,0.0,0.0,0.0,0.0,0.0,0.0,0.0,3.55,3.55,3.55,3.5492,3.5502,3.5586,3.5645,3.571,3.5781,3.7136,3.8515,3.853,4.1133,4.4609,4.8035,4.8818,4.9325,5.1063,5.1414,5.1159,5.026,5.1531,5.3566,5.6173,5.7333,5.8783,6.1326,6.0937,6.039,6.039,5.9687,5.9199,5.9199,5.9199,5.9199,5.9199,5.918,0.0,0.0,5.918,5.918,5.918,5.834,5.789,5.789,5.7031,5.6601,5.6601,5.6601,5.75,5.918,5.918,5.918,5.918,5.918,5.8691,5.7969,5.8828,5.9199,5.9199,5.9199,5.9687,6.039,6.039,6.0957,6.1699,0.0,0.0,0.0,0.0,0.0,0.0,0.0,0.0,0.0,0.0,0.0,0.0,0.0,0.0,0.0,0.0,0.0,0.0,3.4453,3.4775,3.4945,3.507,3.5084,3.5127,3.5204,3.5201,3.5205,3.5205,3.5205,3.5205,3.5205,3.5836,3.6139,3.618,3.6201,3.624,3.6243,3.5699,3.547,3.55,3.55,3.55,3.55,0.0,0.0,0.0,0.0,0.0,0.0,0.0,0.0,0.0,3.55,3.551,3.5515,3.5572,3.5601,3.5657,3.5773,3.7536,3.9495,4.0158,4.2493,4.5662,4.9714,5.0633,5.1121,5.2878,5.3229,5.278,5.1296,5.2448,0.0,5.546,5.6938,5.8351,5.9681,5.9686,5.9551,5.9551,5.9355,5.9199,5.9199,5.8652,5.8281,5.8281,0.0,0.0,0.0,5.7363,5.7363,5.7363,5.7129,5.6992,5.6992,5.6738,5.6601,5.6601,5.6601,5.6875,5.7363,5.7363,5.7363,5.7363,5.7363,5.7226,5.7051,5.793,5.8652,5.9199,5.9199,5.9687,6.039,6.039,6.0957,6.1699,0.0,0.0,0.0,0.0,0.0,0.0,0.0,0.0,0.0,0.0,2.7454,2.8466,0.0,0.0,0.0,0.0,0.0,0.0,0.0,3.4566,3.4992,3.5107,3.5129,3.5153,3.5205,3.5205,3.5205,3.5205,3.5205,3.5377,3.574,3.6277,3.6722,3.7081,3.7102,3.6968,3.6664,3.6178,3.5788,3.55,3.55,3.55,3.55,0.0,0.0,0.0,0.0,0.0,0.0,0.0,0.0,0.0,3.55,3.5712,3.5995,3.6055,3.607,3.617,3.6639,3.8175,3.9974,4.1256,4.3544,4.6606,5.0922,5.2722,5.3678,5.4361,5.4791,5.4615,5.321,5.3815,0.0,5.61,5.6916,5.7785,5.8937,5.8866,5.8672,5.8672,5.8379,5.8164,5.8164,5.7383,5.6875,5.6875,0.0,0.0,0.0,5.5566,5.5723,5.6074,5.6074,5.6074,5.6074,5.6074,5.6074,5.6074,5.6074,5.6269,5.6601,5.6601,5.6601,5.6601,5.6601,5.6601,5.664,5.7168,5.7695,5.8164,5.8164,5.8672,5.9453,5.9805,6.0469,6.123,0.0,0.0,0.0,0.0,0.0,0.0,0.0,0.0,0.0,0.0,2.7592,2.8572,0.0,0.0,0.0,0.0,0.0,0.0,0.0,0.0,3.5024,3.5116,3.5164,3.5206,3.5205,3.5205,3.5209,3.5213,3.5213,3.5649,3.6509,3.6658,3.7142,3.7931,3.7993,3.7567,3.6803,3.6739,3.6231,3.55,3.55,3.55,3.55,3.55,0.0,0.0,0.0,0.0,0.0,0.0,0.0,0.0,3.55,3.6058,3.6699,3.6773,3.6806,3.7006,3.7947,3.8921,4.0165,4.2058,4.4739,4.7957,5.1916,5.4771,5.6372,5.5573,5.6059,5.6352,5.5553,5.5416,5.5924,5.7446,5.7073,5.7121,5.8663,5.8162,5.7656,5.7656,5.6894,5.6367,5.6367,5.5644,5.5176,0.0,0.0,0.0,0.0,5.4004,5.4355,5.5156,5.5176,5.5176,5.5176,5.5176,5.5176,5.5176,5.5254,5.5703,5.6484,5.6562,5.6601,5.6601,5.6601,5.6601,5.6601,5.6601,5.6601,5.6601,5.6601,5.7129,5.8008,5.8789,5.959,6.039,0.0,0.0,0.0,0.0,0.0,0.0,0.0,0.0,0.0,0.0,0.0,0.0,0.0,0.0,0.0,0.0,0.0,0.0,0.0,0.0,3.5042,3.5164,3.5187,3.5197,3.5205,3.5205,3.5222,3.5277,3.5277,3.5717,3.6586,3.7297,3.8084,3.8892,3.8919,3.8462,3.7689,3.6981,3.6231,3.55,3.55,3.55,3.55,3.55,3.55,0.0,0.0,0.0,0.0,0.0,0.0,0.0,3.55,3.6058,3.6696,3.6722,3.675,3.698,3.7877,3.9311,4.1131,4.364,4.8334,5.2566,5.3519,5.522,5.6546,5.6352,5.6468,5.6546,5.6352,5.6313,5.645,5.6801,5.6701,5.673,5.7081,5.6404,5.5859,5.5859,5.5098,5.4551,5.4551,5.4394,5.4277,0.0,0.0,0.0,5.4004,5.4004,5.4082,5.4277,5.4277,5.4277,5.4277,5.4277,5.4277,0.0,5.4961,5.539,5.5605,5.6289,5.6601,5.6601,5.6601,5.6601,5.6601,5.6601,5.6601,5.6601,5.6601,5.7129,5.793,5.8105,5.8711,5.9473,0.0,0.0,0.0,0.0,0.0,0.0,0.0,0.0,0.0,0.0,0.0,0.0,0.0,0.0,0.0,0.0,0.0,0.0,0.0,0.0,3.4659,3.5187,3.5193,3.5205,3.5205,3.5205,3.5218,3.5257,3.5702,3.6377,3.7239,3.8108,3.8988,3.9818,3.9815,3.9142,3.7969,3.7526,3.6619,3.55,3.55,3.55,3.55,3.55,3.55,3.55,3.55,0.0,0.0,0.0,0.0,0.0,0.0,0.0,3.6696,3.6696,3.6726,3.7116,3.883,4.0018,4.1696,4.5672,5.0038,5.3451,5.3901,5.5022,5.6098,5.6507,5.6605,5.6605,5.6605,5.6605,5.6607,5.6593,5.6254,5.5988,5.5971,5.5233,5.4687,5.4687,5.4277,5.4004,5.4004,5.3613,0.0,0.0,0.0,5.2754,5.2754,5.2754,5.2949,5.3359,5.3379,5.3379,5.3379,5.3379,5.3379,5.3379,5.3848,5.4277,5.4726,5.6015,5.6601,5.6601,5.6601,5.6601,5.6601,5.6601,5.6601,5.6601,5.6601,5.6875,5.7324,5.7754,5.8183,5.8633,0.0,0.0,0.0,0.0,0.0,0.0,0.0,0.0,0.0,0.0,0.0,0.0,0.0,0.0,0.0,0.0,0.0,0.0,0.0,0.0,0.0,3.5163,3.5205,3.5205,3.5205,3.5205,3.5267,3.5428,3.6507,3.7486,3.8353,3.8942,3.9676,4.0499,4.0496,3.9569,3.8007,3.8007,3.7023,3.55,3.55,3.55,3.55,3.55,3.55,3.55,3.55,3.55,3.55,3.55,0.0,0.0,0.0,0.0,3.6696,3.6696,3.6696,3.7261,3.9876,4.1065,4.2766,4.7673,5.0659,5.2661,5.3752,5.4568,5.5278,5.6,5.639,5.6546,5.639,5.6373,5.6338,5.617,5.5554,5.5072,5.5075,5.4335,5.3789,5.3789,5.3633,5.3555,5.3555,5.2773,0.0,0.0,0.0,5.125,5.1387,5.1406,5.1738,5.2441,5.248,5.248,5.248,5.248,5.248,5.248,5.2637,5.3164,5.4043,5.5644,5.6387,5.6387,5.6523,5.6601,5.6601,5.6601,5.6601,5.6601,5.6601,5.6601,5.6699,5.7402,5.7676,5.7773,0.0,0.0,0.0,0.0,0.0,0.0,0.0,0.0,0.0,0.0,2.9174,0.0,0.0,0.0,0.0,0.0,0.0,0.0,3.2534,0.0,0.0,3.5186,3.5205,3.5205,3.5205,3.5205,3.557,3.6322,3.7949,3.924,4.0148,3.9562,3.9715,4.0508,4.0492,3.9569,3.8007,3.8007,3.7023,3.55,3.55,3.55,3.55,3.55,3.55,3.55,3.55,3.55,3.55,3.55,3.55,0.0,0.0,0.0,3.6696,3.6696,3.6696,3.7254,3.9827,4.2767,4.5864,4.8962,5.0609,5.191,5.3613,5.4093,5.4213,5.432,5.5551,5.6372,5.5612,5.5461,5.5232,5.4473,5.4249,5.4177,5.4177,5.3417,5.2871,5.2871,5.2207,5.1758,5.1758,0.0,0.0,0.0,5.082,5.0664,5.1367,5.1406,5.1445,5.1562,5.1562,5.1562,5.1562,5.1562,5.1562,5.1582,5.2344,5.3164,5.4023,5.5019,5.5469,5.5527,5.6269,5.6601,5.6601,5.6601,5.6601,5.6601,5.6601,5.6601,5.6601,5.6738,5.6777,5.6797,0.0,0.0,0.0,0.0,0.0,0.0,0.0,0.0,0.0,0.0,0.0,2.9891,0.0,0.0,0.0,2.9893,3.0692,3.1781,3.3185,3.4473,3.5205,3.5205,3.5205,3.5205,3.5205,3.5205,3.5638,3.6495,3.8248,3.9558,4.0453,4.0615,4.0893,4.12,4.0723,3.9838,3.8703,3.82,3.7292,3.6135,3.5673,3.55,3.55,3.55,3.55,3.55,3.55,3.55,3.55,3.55,3.55,3.55,3.55,0.0,0.0,0.0,3.6038,3.6684,3.9738,4.3092,4.6172,4.7946,4.9096,5.0263,5.2079,5.2528,5.2824,5.3805,5.4611,5.5026,5.4642,5.4569,5.4456,5.4054,5.3589,5.3279,5.3261,5.2519,5.1973,5.1973,5.123,5.0723,0.0,0.0,0.0,0.0,4.9668,4.9629,4.998,5.0,5.0,5.0,5.0,5.0234,5.0723,5.0723,5.0957,5.1406,5.1797,5.2168,5.2578,5.3457,5.4375,5.5351,5.6211,5.6601,5.6562,5.6074,5.6152,5.6543,5.6055,5.6172,5.6601,5.6601,5.6914,5.7265,0.0,0.0,0.0,0.0,0.0,0.0,0.0,0.0,0.0,0.0,0.0,0.0,0.0,0.0,0.0,0.0,3.0705,3.1969,3.3716,3.4687,3.5205,3.5205,3.5205,3.5205,3.5205,3.5205,3.5744,3.6827,3.8358,3.965,4.0752,4.1452,4.1793,4.1754,4.0896,4.0054,3.9242,3.8373,3.7504,3.6638,3.5827,3.55,3.55,3.55,3.5635,3.5808,3.5808,3.5808,0.0,0.0,3.5673,3.55,3.55,3.55,0.0,0.0,0.0,3.6684,3.9244,4.2117,4.4681,4.5898,4.6736,4.7809,4.9857,5.0353,5.0845,0.0,5.2675,5.2686,5.2695,5.3226,5.3601,5.3375,5.2615,5.2069,5.2051,5.1308,5.0762,5.0762,5.0234,4.9863,0.0,0.0,0.0,0.0,4.8691,4.8672,4.8887,4.8906,4.8906,4.8906,4.8906,4.9219,4.9863,5.0098,5.0508,5.1094,5.1308,5.1406,5.1426,5.2305,5.3418,5.4687,5.5566,5.5937,5.5898,5.5234,5.5351,5.5898,5.5469,5.5703,5.6308,5.6523,5.7148,5.7812,0.0,0.0,0.0,0.0,0.0,0.0,0.0,0.0,0.0,0.0,0.0,0.0,2.9893,2.9893,2.9893,2.9893,3.0757,3.2019,3.3785,3.4707,3.5205,3.5205,3.5205,0.0,3.5205,3.5205,3.6028,3.7738,3.8643,3.9974,4.1639,4.1753,4.1793,4.1754,4.0896,4.0054,3.9242,3.8373,3.7504,3.6638,3.5827,3.55,3.55,3.55,3.5962,3.6638,3.6638,0.0,0.0,0.0,0.0,0.0,0.0,3.55,3.55,0.0,0.0,0.0,3.8088,3.9472,4.1264,4.299,4.3537,4.4364,4.6991,4.7659,4.7954,4.8876,4.9065,4.9094,4.9141,5.1141,5.2492,5.1672,5.0858,5.0332,5.0332,4.957,4.9023,4.9023,4.8984,0.0,0.0,0.0,0.0,0.0,4.8125,4.8027,4.8867,4.8906,4.8906,4.8906,4.8906,4.8926,4.8965,4.9785,5.0215,5.0273,5.1035,5.1406,5.1426,5.2305,5.2754,5.2871,5.3769,5.4141,5.4121,5.4082,5.4082,5.4219,5.5,5.5332,5.5469,5.6308,5.7148,5.789,0.0,0.0,0.0,0.0,0.0,0.0,0.0,0.0,0.0,0.0,0.0,0.0,0.0,3.0437,3.0799,3.0799,3.2126,3.3474,3.4666,3.5032,3.5205,3.5205,3.5205,3.5205,3.5205,3.5234,3.6099,3.78,3.8725,4.0037,4.1696,4.1776,4.1793,4.1754,4.0896,4.0342,4.0015,3.9184,3.8646,3.8296,3.745,3.71,3.7177,3.7738,3.8123,0.0,0.0,0.0,0.0,0.0,0.0,0.0,0.0,0.0,0.0,3.55,3.6292,3.7292,3.7853,3.8869,4.0188,4.1939,4.2427,4.3057,4.5176,4.5743,4.6087,4.6948,4.7171,4.7366,4.7897,4.9241,5.0169,4.9859,4.955,4.9375,4.9375,4.9101,4.8906,4.8906,0.0,0.0,0.0,0.0,0.0,0.0,0.0,4.6894,4.7207,4.7226,4.7226,4.7226,4.7226,4.75,4.8066,4.8926,4.9375,4.9375,5.0215,5.0625,5.0664,5.1484,5.1875,5.1875,5.2207,5.2969,5.4004,5.4004,5.4004,5.4082,5.4961,5.5293,5.541,5.6289,5.7148,5.7812,0.0,0.0,0.0,0.0,0.0,0.0,0.0,0.0,0.0,2.9893,0.0,0.0,0.0,0.0,3.1542,3.2122,3.3227,3.4274,3.5145,3.5189,3.5205,3.5205,3.5205,3.5205,3.5205,3.5269,3.612,3.7825,3.8458,3.9634,4.1299,4.1342,4.1354,4.1335,4.0762,4.0496,4.0458,3.9646,3.93,3.9223,3.8354,3.8007,3.8065,3.8646,0.0,0.0,0.0,0.0,0.0,0.0,0.0,0.0,0.0,0.0,0.0,0.0,3.5885,3.6427,3.7004,3.7584,3.8361,3.9792,4.0421,4.1155,4.2945,4.369,4.4246,4.511,4.5582,4.5982,4.6534,4.7396,4.8212,4.8804,4.8651,4.8457,4.8457,4.8203,4.8027,0.0,0.0,0.0,0.0,0.0,0.0,0.0,0.0,0.0,4.6308,4.6308,4.6308,4.6308,4.6308,4.6582,4.7168,4.8027,4.8457,4.8476,4.9355,4.9766,4.9785,5.0625,5.0996,5.1016,5.1289,5.2051,5.3125,5.3125,5.3125,5.3242,5.4414,5.4863,5.5,5.6172,5.7148,5.7812,0.0,0.0,0.0,0.0,0.0,0.0,0.0,0.0,2.9897,2.9897,0.0,0.0,0.0,0.0,0.0,3.3789,3.3946,3.4305,3.5144,3.5205,3.5205,3.5205,3.5205,3.5205,3.5205,3.5269,3.6159,3.7897,3.7897,3.8781,4.0496,4.0496,4.0496,4.0496,4.0496,4.0496,4.0458,3.9669,3.9338,3.9261,3.8411,3.8065,3.8084,0.0,0.0,0.0,4.0593,4.0573,0.0,4.0573,0.0,0.0,0.0,0.0,0.0,0.0,0.0,3.55,0.0,0.0,0.0,3.6542,3.7448,3.8588,4.0304,0.0,4.2427,4.3287,4.4219,4.4862,4.4897,4.5641,4.6812,4.8544,4.8101,4.7557,4.7558,4.6836,4.6308,0.0,0.0,0.0,0.0,0.0,0.0,0.0,4.6308,4.6308,4.6308,4.6308,4.6308,4.6308,4.6308,4.6308,4.6308,4.7148,4.7558,4.7578,4.8457,4.8867,4.8887,4.9766,5.0176,5.0234,5.1035,5.1387,5.1406,5.1426,5.1445,5.1601,5.332,5.4023,5.4238,5.5937,5.7109,5.7851,0.0,0.0,0.0,0.0,0.0,0.0,2.9412,2.9754,2.9928,0.0,0.0,0.0,3.1271,3.2425,3.3628,3.4746,3.4845,3.4945,3.5186,3.5205,3.5205,3.5205,3.5205,3.5205,3.5205,3.5277,3.6148,3.7897,3.7943,3.8846,4.0496,4.0496,4.0496,4.0496,4.0496,4.0496,4.0496,4.0265,4.0169,4.015,3.9915,3.98,0.0,0.0,0.0,0.0,0.0,4.247,4.1546,0.0,4.0685,3.8354,0.0,0.0,0.0,0.0,0.0,0.0,3.55,0.0,0.0,0.0,0.0,0.0,0.0,0.0,4.2144,4.2435,4.3226,4.4076,4.4705,4.5082,4.5642,4.6772,4.68,4.6656,4.6659,4.6444,0.0,0.0,0.0,0.0,0.0,0.0,0.0,0.0,4.6308,4.6308,4.6308,4.6308,4.6308,4.6308,4.6308,4.6308,4.6308,4.6543,4.666,4.668,4.7539,4.7969,4.7988,4.8867,4.9609,5.0215,5.0449,5.0859,5.1445,5.207,5.2344,5.2441,5.3574,5.4394,5.5,5.5488,5.6211,5.6953,0.0,0.0,0.0,0.0,0.0,2.9184,2.9811,2.9911,3.0089,0.0,0.0,0.0,3.2304,3.3621,3.4646,3.5167,3.5205,3.5205,3.5205,3.5205,3.5205,3.5205,3.5549,3.574,3.574,3.6166,3.7056,3.8391,3.8493,3.9204,4.0496,4.0496,4.0496,4.0496,4.0496,4.0496,4.0496,4.0496,4.0496,4.0496,4.0496,0.0,0.0,4.1066,4.1485,0.0,0.0,0.0,4.2466,4.3316,4.1916,0.0,0.0,0.0,0.0,0.0,0.0,0.0,3.6542,3.6888,3.735,0.0,0.0,0.0,3.9522,4.0519,4.1326,0.0,4.1726,4.2646,4.352,4.4022,4.4593,4.5475,4.5984,4.6267,4.6301,4.6304,0.0,0.0,0.0,0.0,0.0,4.6308,4.6308,4.6308,4.6308,4.6308,4.6308,4.6308,4.6308,4.6308,4.6308,4.6308,4.6308,4.6308,4.6308,4.6308,4.6816,4.7051,4.709,4.7969,4.8633,4.9141,4.9492,5.0137,5.0937,5.1445,5.207,5.2754,5.3262,5.3984,5.4805,5.5176,5.5625,5.6113,0.0,0.0,2.8222,2.852,2.9341,2.9998,3.0053,3.0199,3.0569,0.0,3.1545,3.2217,3.3873,3.4746,3.5205,3.5205,3.5205,3.5205,3.5205,3.5205,3.5205,3.5205,3.6023,3.6504,3.6509,3.7414,3.8306,3.9101,3.9242,3.9704,4.0496,4.0496,4.0496,4.0496,4.0496,4.0496,4.0496,4.0496,4.0554,4.0646,4.0646,4.0708,0.0,0.0,4.1277,4.2062,4.2912,4.3239,4.3335,4.4066,4.2666,0.0,0.0,0.0,0.0,0.0,3.8007,3.8007,3.8007,3.8065,3.8142,0.0,0.0,0.0,3.8427,3.946,4.036,0.0,4.0136,4.1017,4.1803,4.2622,4.345,4.4226,4.5216,4.5982,4.6245,0.0,0.0,0.0,0.0,0.0,4.6307,4.6308,4.6308,4.6308,4.6308,4.6308,4.6308,4.6308,4.6308,4.6308,4.6308,4.6308,4.6308,4.6308,4.6308,4.6308,4.6308,4.6308,4.6328,4.7109,4.7519,4.7637,4.8418,4.9316,5.0195,5.0195,5.1191,5.2695,5.2695,5.3223,5.4101,5.498,5.5293,5.543,0.0,0.0,2.8617,2.9454,3.0387,3.1012,3.1022,3.1632,3.2147,3.2316,3.3008,3.3856,3.483,3.5106,3.5205,3.5205,3.5205,3.5205,3.5205,3.5205,3.5205,3.5205,3.6023,3.6521,3.6586,3.7454,3.8323,3.9173,3.9258,3.9704,4.0496,4.0496,4.0496,4.0496,4.0496,4.0496,4.0496,4.0496,4.0896,4.1542,4.1542,4.197,4.2585,4.2585,4.2701,4.2951,4.3778,4.4066,4.4085,4.4239,4.3066,4.1373,0.0,0.0,0.0,0.0,0.0,0.0,0.0,0.0,0.0,0.0,0.0,0.0,3.9253,3.9819,4.028,0.0,4.0026,4.0713,4.0932,4.1172,4.1382,4.1546,4.2913,4.448,0.0,0.0,0.0,0.0,0.0,0.0,4.6306,4.6308,4.6308,4.6308,4.6308,4.6308,4.6308,4.6308,4.6308,4.6308,4.6308,4.6308,4.6308,4.6308,4.6308,4.6308,4.6308,4.6308,4.6308,4.6484,4.6933,4.7617,4.7773,4.875,5.0195,5.0195,5.1191,5.2695,5.2695,5.3223,5.4101,5.498,5.5293,5.543,2.8179,2.8707,2.9303,2.9817,3.0689,3.1305,3.1309,3.2034,3.2758,3.3179,3.4039,3.4751,3.5167,3.5205,3.5205,3.5205,3.5205,3.5205,3.5205,3.5205,3.5396,3.5836,3.6678,3.7377,3.7846,3.8728,3.9406,3.9857,3.9877,4.0092,4.0496,4.0496,4.0496,4.0496,4.0496,4.0496,4.0496,4.0496,4.0993,4.1793,4.1793,0.0,4.3104,4.3104,4.3104,4.3201,4.4008,4.459,4.4878,4.4455,4.3739,0.0,0.0,4.0566,3.9815,0.0,3.9242,3.9242,0.0,0.0,0.0,3.99,0.0,0.0,0.0,3.93,3.9538,3.8267,3.835,3.8802,3.9309,3.9425,3.9606,4.0039,4.1585,4.3087,0.0,0.0,0.0,0.0,0.0,0.0,4.6301,4.6307,4.6308,4.6308,4.6308,4.6308,4.6308,4.6308,4.6308,4.6308,4.6308,4.6308,4.6308,4.6308,4.6308,4.6308,4.6308,4.6308,4.6308,4.6308,4.6543,4.6953,4.6953,4.7949,4.9551,4.9551,5.0547,5.209,5.2539,5.3223,5.4101,5.498,5.5293,5.543,2.8731,2.9323,2.9991,3.0161,3.0958,3.1637,3.1794,3.2546,3.3347,3.4053,3.4917,3.5454,3.5454,3.5587,3.574,3.5912,3.5931,3.5931,3.5931,3.5931,3.6256,3.6939,3.7679,3.8459,3.9333,4.0119,4.0506,4.0499,4.0496,4.0496,4.0496,4.0496,4.0496,4.0496,4.0496,4.0496,4.0516,4.0685,4.1162,4.1812,0.0,4.2466,4.3104,4.3104,4.3201,4.3431,4.4263,4.4898,4.5244,4.4532,4.4201,4.3835,4.2485,4.1946,0.0,0.0,0.0,0.0,0.0,0.0,0.0,0.0,0.0,4.0089,0.0,0.0,0.0,3.7061,3.6696,0.0,0.0,0.0,0.0,0.0,0.0,0.0,0.0,0.0,0.0,0.0,0.0,0.0,4.6037,4.6051,4.6055,4.6055,4.6055,4.6055,4.6055,4.6211,4.6308,4.6308,4.6308,4.6308,4.6308,4.6308,4.6308,4.6308,4.6308,4.6308,4.6308,4.6308,4.6308,4.6308,4.6308,4.7285,4.8906,4.8906,4.9883,5.1484,5.2363,5.3027,5.3652,5.4844,5.5195,5.5195,2.9723,2.991,3.032,3.1085,3.1958,3.2802,3.3578,3.438,3.4934,3.5048,3.5812,3.6347,3.6347,3.6986,3.7731,3.8495,3.8572,0.0,3.8572,0.0,3.8606,3.8701,3.8869,3.9357,4.0226,4.0419,4.0503,4.0508,4.0492,4.0496,4.0496,4.0496,4.0496,4.0496,4.0496,4.0496,4.0554,4.1316,4.1716,0.0,4.2643,4.3008,0.0,4.3104,4.3547,4.4282,4.5148,4.5013,4.4436,0.0,4.3835,4.3201,0.0,4.2427,4.1773,0.0,0.0,0.0,0.0,0.0,0.0,0.0,4.0496,0.0,0.0,0.0,3.8819,3.7061,0.0,0.0,0.0,0.0,0.0,0.0,0.0,0.0,0.0,0.0,0.0,0.0,0.0,0.0,0.0,4.5149,4.5155,4.5155,4.5156,4.5156,4.5156,4.5879,4.6308,4.6308,4.6308,4.6308,4.6308,4.6308,4.6308,4.6308,4.6308,4.6308,4.6308,4.6308,4.6308,4.6308,4.6308,4.7285,4.8906,4.8906,4.9883,5.1484,5.2363,5.2285,5.1992,5.4414,5.4805,5.4375,3.0654,3.0756,3.1112,3.1947,3.2856,3.3586,3.3933,3.4674,3.5205,3.5205,3.5965,3.6672,3.7154,0.0,0.0,0.0,0.0,3.9752,0.0,0.0,3.9236,3.9733,3.9331,3.9512,4.0388,4.0467,4.0496,4.0496,4.0496,4.0496,4.0496,4.0496,4.0496,4.0496,4.0496,4.0781,4.1277,4.1639,4.2081,0.0,0.0,0.0,0.0,4.3104,4.3605,4.4417,4.5282,4.5032,4.4378,0.0,4.4494,0.0,0.0,0.0,0.0,0.0,0.0,0.0,0.0,0.0,0.0,0.0,0.0,0.0,3.9473,0.0,3.8954,0.0,0.0,0.0,0.0,0.0,0.0,0.0,3.6512,0.0,0.0,0.0,0.0,0.0,0.0,0.0,0.0,0.0,0.0,0.0,4.4706,4.5,4.5,4.582,4.6308,4.6308,4.6308,4.6308,4.6308,4.6308,4.6308,4.6308,4.6308,4.6308,4.6308,4.6308,4.6308,4.6308,4.6308,4.6992,4.8183,4.8691,4.9609,5.0781,5.1621,5.2031,5.2402,5.4512,5.5078,5.4922,3.1857,3.1839,3.202,3.284,3.3551,3.4067,3.4296,3.5209,3.5897,3.5897,3.7039,0.0,3.8691,3.9527,0.0,0.0,4.1337,4.1347,0.0,0.0,4.0715,0.0,0.0,0.0,0.0,4.0703,4.0496,4.0496,4.0496,4.0496,4.0496,4.0496,4.0496,4.0496,4.0496,4.0858,4.147,0.0,4.2185,4.2794,4.3006,4.3118,4.3157,4.3352,4.3805,4.4434,4.5287,4.5032,4.4397,4.5032,4.4821,0.0,4.4297,0.0,0.0,0.0,0.0,0.0,4.1204,0.0,0.0,0.0,0.0,0.0,0.0,0.0,0.0,0.0,0.0,0.0,0.0,0.0,0.0,0.0,0.0,3.6619,0.0,0.0,0.0,0.0,0.0,0.0,0.0,0.0,0.0,4.2628,4.3667,4.4177,4.3945,4.5449,4.6191,4.5957,4.6172,4.6308,4.6308,4.6308,4.6308,4.6308,4.6308,4.6308,4.6308,4.6308,4.6308,4.6308,4.6308,4.6797,4.7676,4.8535,4.9414,5.0273,5.1094,5.1797,5.2539,5.4023,5.4746,5.5078,3.3476,3.3187,3.2928,3.3796,3.3972,3.4258,3.5033,3.6566,3.7621,3.7621,0.0,0.0,0.0,0.0,0.0,0.0,0.0,4.4015,4.4068,0.0,4.4053,0.0,0.0,4.2019,0.0,0.0,4.0496,4.0496,4.0496,4.0496,4.0496,4.0496,4.0496,4.0496,4.0496,4.0516,4.0593,4.145,4.1855,4.2013,4.2784,4.3142,4.3278,0.0,4.4327,4.4494,4.5319,0.0,0.0,4.4335,4.4316,0.0,0.0,0.0,0.0,0.0,0.0,0.0,0.0,0.0,0.0,4.1754,0.0,0.0,0.0,0.0,4.0227,0.0,0.0,0.0,0.0,0.0,0.0,3.6792,0.0,0.0,0.0,0.0,0.0,0.0,0.0,0.0,0.0,4.0368,3.9932,3.9933,4.1501,4.212,4.1265,4.4451,4.5917,4.5078,4.5859,4.6308,4.6308,4.6308,4.6308,4.6308,4.6308,4.6308,4.6308,4.6308,4.6308,4.6308,4.6308,4.6797,4.7676,4.8535,4.9414,5.0273,5.1094,5.1426,5.1543,5.2441,5.332,5.418,3.3785,3.4146,3.4441,3.4732,0.0,3.5076,3.5927,3.6986,3.8113,0.0,0.0,0.0,0.0,4.4858,4.573,0.0,0.0,4.5836,4.5855,4.4825,0.0,0.0,0.0,4.1831,0.0,0.0,0.0,0.0,4.0496,4.0496,4.0496,4.0496,4.0496,4.0496,4.0496,4.0858,0.0,0.0,0.0,0.0,0.0,4.4108,4.4157,0.0,4.4473,4.4641,4.5399,4.5105,0.0,4.5029,4.4808,4.4397,4.4975,4.4763,4.4297,4.4297,4.372,0.0,0.0,0.0,4.1793,4.1793,0.0,0.0,0.0,0.0,0.0,0.0,0.0,0.0,0.0,0.0,3.8569,3.77,3.7081,0.0,0.0,0.0,0.0,0.0,0.0,0.0,0.0,0.0,0.0,3.8943,4.0516,4.1626,4.1939,4.417,4.5561,4.5858,4.6152,4.6308,4.6308,4.6308,4.6308,4.6308,4.6308,4.6308,4.6308,4.6308,4.6308,4.6308,4.6308,4.6465,4.6855,4.8301,4.9062,4.9473,5.0859,5.1406,5.1504,5.2383,5.3242,5.4219,3.4755,3.5036,3.5205,0.0,0.0,3.5492,3.6366,3.7978,0.0,0.0,4.3254,0.0,4.6218,0.0,4.739,0.0,4.752,4.7084,4.6791,4.5759,0.0,4.4708,4.3376,0.0,0.0,0.0,0.0,0.0,0.0,4.0496,4.0496,4.0496,4.0496,4.0496,4.0496,4.0843,4.1435,4.1435,4.2455,0.0,0.0,4.4928,0.0,0.0,4.4866,4.4731,0.0,4.5394,4.4989,4.551,4.5307,4.488,4.5426,4.5205,4.4763,4.4763,4.4397,4.3993,4.3993,4.3355,0.0,4.2696,4.2047,0.0,4.1416,0.0,0.0,0.0,0.0,0.0,0.0,0.0,0.0,3.8607,3.7988,0.0,0.0,3.6008,0.0,0.0,0.0,0.0,0.0,0.0,3.7536,3.7545,3.9393,4.0665,0.0,0.0,4.4653,4.4917,4.5214,4.5527,4.582,4.584,4.5996,4.6308,4.6308,4.6308,4.6308,4.6308,4.6308,4.6308,4.6308,4.6308,4.6445,4.8183,4.8906,4.9062,5.0742,5.1406,5.1465,5.2031,5.2988,5.4258,3.6254,3.5797,0.0,0.0,3.532,0.0,0.0,0.0,4.2039,0.0,4.5994,4.8075,4.8114,4.8133,4.8158,4.8226,4.8188,4.7842,4.7077,4.6947,0.0,0.0,4.4782,4.4297,4.4297,0.0,0.0,0.0,0.0,4.0554,4.0554,4.0516,4.0496,4.0496,4.0496,0.0,4.0607,4.0607,4.1612,4.3392,4.5173,4.5416,4.4836,4.5631,4.5431,4.4813,4.5621,4.5867,4.5807,4.5723,4.5707,4.5697,4.5631,4.5594,4.5594,4.5594,4.5594,4.5594,4.5594,4.4955,4.4297,4.4297,0.0,0.0,0.0,0.0,4.3104,0.0,0.0,0.0,0.0,0.0,0.0,3.9492,3.9319,0.0,0.0,0.0,0.0,0.0,0.0,0.0,0.0,3.6307,3.5838,3.5799,3.8179,3.9293,0.0,0.0,4.3269,4.2484,4.3276,4.412,4.498,4.5,4.5449,4.6308,4.6308,4.6308,4.6308,4.6308,4.6308,4.6308,4.6308,4.6308,4.6426,4.8124,4.8866,4.9062,5.0702,5.1366,5.1406,5.1504,5.2578,5.4258,3.5479,3.5874,3.6351,0.0,3.7063,3.7362,0.0,0.0,0.0,0.0,4.7616,4.9205,4.9853,4.9989,5.0,5.0034,4.9438,0.0,0.0,0.0,0.0,4.6586,4.5105,4.4297,4.4297,4.3297,0.0,4.2777,0.0,0.0,4.145,4.08,4.0496,4.0496,4.0496,4.0535,4.0607,4.0601,4.1329,4.2574,4.3745,4.4088,4.3998,0.0,4.5038,4.4945,4.5706,4.5956,4.5933,4.588,4.5775,4.5704,4.5686,4.564,4.5594,4.5594,4.5594,4.5594,4.5594,4.4955,4.4297,4.4297,4.3701,4.3104,0.0,0.0,0.0,0.0,0.0,0.0,0.0,0.0,0.0,0.0,0.0,0.0,0.0,0.0,0.0,3.8617,0.0,0.0,0.0,3.6803,3.6411,3.5774,3.7543,3.8863,3.9332,0.0,0.0,4.3277,4.3552,4.4111,4.4997,4.4998,4.5449,4.6308,4.6308,4.6308,4.6308,4.6308,4.6308,4.6308,4.6308,4.6307,4.6383,4.7472,4.8288,4.8928,5.0002,5.0826,5.1555,5.2851,5.3613,5.4258,3.6214,0.0,0.0,3.7662,0.0,0.0,4.0163,4.2463,0.0,4.7031,4.8827,0.0,5.0581,5.0687,5.0707,5.0707,5.0245,0.0,4.9413,0.0,0.0,4.6928,4.5605,4.4878,4.4878,4.4047,0.0,4.3624,0.0,0.0,4.12,3.9973,3.9415,3.9415,3.9804,3.9996,4.0091,4.0919,4.1607,4.2262,4.3624,4.4161,0.0,4.5146,4.5491,4.5566,4.5951,4.6067,4.6022,4.5978,4.5864,4.5786,4.5723,4.5675,4.564,4.5618,4.5594,4.5594,4.5594,4.5244,4.4878,4.4878,4.4532,4.4186,4.4186,4.4186,4.4321,0.0,0.0,0.0,0.0,0.0,0.0,0.0,0.0,0.0,0.0,0.0,0.0,0.0,3.9296,0.0,0.0,3.7403,3.662,3.5751,3.7314,3.8527,0.0,0.0,0.0,4.2952,4.3072,4.3545,4.4377,4.4424,4.4682,4.5171,4.5543,4.5738,4.5737,4.6129,4.6285,4.6264,4.6261,4.6257,4.6347,4.7583,4.8356,4.8881,5.0137,5.0924,5.1576,5.3349,5.4001,5.4257,3.7736,0.0,0.0,0.0,0.0,0.0,0.0,4.373,0.0,4.7982,0.0,5.0707,5.0707,5.0707,5.0707,5.0707,0.0,5.0322,4.9452,4.8586,4.7735,4.6947,4.6071,4.5594,4.5594,4.4859,0.0,0.0,0.0,0.0,4.0627,3.8834,3.8007,3.8027,3.88,0.0,0.0,4.1281,4.2094,4.2267,4.4128,4.4887,4.5001,4.5873,4.6258,4.6286,4.6236,4.6186,4.6119,4.605,4.5964,4.5893,4.577,4.5704,4.5682,4.5635,4.5618,4.5594,4.5594,4.5594,4.5594,4.5594,4.5594,4.5594,4.5594,4.5594,4.5594,4.5599,4.4925,4.4329,0.0,0.0,0.0,0.0,0.0,0.0,0.0,0.0,0.0,0.0,0.0,0.0,0.0,0.0,3.6903,3.6093,3.7531,0.0,0.0,0.0,0.0,4.2168,4.2301,4.2768,4.3582,0.0,4.3687,4.3705,4.4568,4.4996,4.5011,4.5896,4.6265,4.6199,4.6198,4.6268,4.6467,4.7939,4.8652,4.9015,5.0654,5.1287,5.1483,5.3198,5.3884,5.4234,3.8801,0.0,0.0,0.0,0.0,4.3407,4.4631,4.6877,4.8592,4.9111,5.0067,5.0707,5.0707,5.0707,5.0707,5.0707,5.0707,0.0,0.0,0.0,0.0,4.6947,4.6071,4.5594,4.5594,4.5455,4.5359,0.0,0.0,0.0,4.1523,3.9123,3.8007,3.8007,0.0,0.0,3.9416,4.1243,0.0,4.2264,4.407,4.4844,4.4997,4.5926,4.6289,4.6298,4.6296,4.6267,4.6245,4.6125,4.6043,4.5974,4.588,4.5787,4.5707,4.5682,4.5644,4.5594,4.5594,4.5594,4.5594,4.5594,4.5594,4.5594,4.5594,4.5594,4.5622,4.5661,4.4995,4.4406,4.4442,0.0,0.0,0.0,0.0,0.0,0.0,0.0,0.0,0.0,0.0,4.1718,0.0,0.0,0.0,0.0,0.0,0.0,0.0,0.0,0.0,0.0,4.2188,0.0,0.0,0.0,4.3613,4.3623,4.4502,4.491,4.4948,4.5827,4.6216,4.6194,4.6202,4.6588,4.7213,4.7501,4.8402,4.9711,5.0797,5.1224,5.1349,5.2443,5.3303,5.4176,0.0,0.0,0.0,0.0,0.0,0.0,0.0,4.8649,0.0,5.0067,5.0438,5.0707,5.0707,5.0707,5.0707,5.0707,5.0707,5.0322,4.9452,4.8586,4.7735,4.6947,4.6071,0.0,4.5594,4.5594,4.5594,4.5594,0.0,0.0,4.1085,3.8988,3.7546,3.6734,0.0,3.8711,0.0,0.0,0.0,4.348,4.439,4.5081,4.5634,4.6103,4.6291,4.6301,4.6301,4.6297,4.6289,4.6238,4.6132,4.6048,4.6004,4.5915,4.5791,4.5754,4.5699,4.5648,4.5648,4.5631,4.5594,4.5594,4.5631,4.5648,4.5648,4.5646,4.5671,4.5691,4.5367,4.5082,4.5125,4.4434,0.0,0.0,0.0,0.0,0.0,0.0,0.0,0.0,0.0,0.0,0.0,0.0,0.0,0.0,0.0,0.0,0.0,0.0,0.0,0.0,0.0,0.0,0.0,0.0,0.0,4.3551,4.4438,4.4828,4.482,4.5708,4.6098,4.6105,4.6095,4.6573,4.7427,4.8294,4.937,5.051,5.0972,5.1145,5.127,5.2164,5.3076,5.4048,0.0,4.1645,0.0,0.0,4.4826,0.0,4.7885,4.9591,5.0707,5.0707,5.0707,5.0707,5.0707,5.0707,5.0707,5.0707,5.0534,5.0053,4.9183,4.8317,4.7485,4.6658,4.5975,4.5594,4.5594,4.5594,4.5594,0.0,0.0,0.0,0.0,0.0,0.0,0.0,0.0,0.0,0.0,0.0,4.3273,4.4615,4.4876,4.5466,4.6207,4.6253,4.6289,4.6301,4.6301,4.6301,4.6299,4.6291,4.6216,4.6119,4.6093,4.6016,4.5883,4.5847,4.5769,4.5701,4.5701,4.5657,4.5627,4.5627,4.5661,4.5694,4.5694,4.5703,4.5708,4.5715,4.5727,4.5712,4.5712,4.5194,0.0,0.0,0.0,0.0,0.0,0.0,0.0,0.0,0.0,0.0,4.2357,0.0,0.0,0.0,0.0,0.0,3.9771,0.0,0.0,0.0,0.0,4.2563,4.3366,0.0,4.3471,4.3479,4.436,4.4751,4.4735,4.5596,4.5982,4.5983,4.6175,4.6854,4.7924,4.9423,5.0437,5.1057,5.1079,5.1076,5.1157,5.1871,5.2826,5.3863,0.0,0.0,0.0,0.0,0.0,0.0,4.8082,4.9591,5.0707,5.0707,5.0707,5.0707,5.0707,5.0707,5.0707,5.0707,4.9976,4.9144,4.8274,4.7466,4.6624,4.5763,4.5629,4.5594,4.5594,4.5594,4.5594,0.0,0.0,0.0,0.0,0.0,0.0,0.0,0.0,0.0,0.0,4.3465,4.4333,4.467,4.5534,4.6002,4.6206,4.6203,4.6244,4.6301,4.6301,4.6301,4.6301,4.63,4.6256,4.6174,4.6119,4.6005,4.5899,4.5883,4.5811,4.5701,4.5701,4.5697,4.5693,4.5693,4.5706,4.57,4.57,4.5704,4.5715,4.5773,4.5791,4.5793,4.5793,4.5738,4.5661,0.0,0.0,0.0,0.0,0.0,0.0,0.0,0.0,0.0,0.0,4.3185,0.0,0.0,4.1084,0.0,0.0,0.0,0.0,4.1977,0.0,4.2497,4.3307,4.3382,4.3416,4.3424,4.4283,4.4712,4.4732,4.5533,4.5901,4.5956,4.6748,4.8005,4.9533,5.0426,5.0856,5.0917,5.0982,5.102,5.1023,5.1175,5.2239,5.364,0.0,0.0,0.0,0.0,0.0,0.0,0.0,5.0245,5.0707,5.0707,5.0707,5.0707,5.0707,5.0707,5.0495,4.9976,4.961,4.8836,4.7466,4.7081,4.6509,4.5633,4.5594,4.5594,4.5594,4.5594,4.5594,0.0,0.0,0.0,0.0,0.0,0.0,0.0,0.0,4.1758,4.2662,4.3885,4.4777,4.5422,4.5835,4.6075,4.6206,4.6202,4.6243,4.6301,4.6301,4.6301,4.63,4.6293,4.6258,4.6195,4.6172,4.6074,4.5961,4.5968,4.5863,4.5758,4.5758,4.5738,4.5699,4.5699,4.5731,4.5762,4.5762,4.5761,4.5764,4.5798,4.5793,4.5803,4.5803,4.5803,4.5649,0.0,0.0,0.0,0.0,0.0,0.0,0.0,0.0,0.0,0.0,0.0,0.0,0.0,0.0,0.0,0.0,0.0,0.0,4.1277,0.0,4.1954,4.3286,4.3341,4.385,4.4834,4.5186,4.536,4.538,4.6235,4.6909,4.7451,4.8319,4.9082,4.9764,5.0577,5.0898,5.0941,5.1506,5.1726,5.1788,5.2342,5.3294,5.4328,4.6447,0.0,4.7812,0.0,4.8682,4.9279,5.0515,5.0707,5.0707,5.0707,5.0707,5.0707,5.0707,5.0707,5.0341,4.9471,4.9163,4.8413,4.6985,4.6658,4.624,4.5633,4.5594,0.0,4.5594,4.5594,4.5594,4.5594,4.4975,0.0,0.0,0.0,0.0,0.0,4.2258,4.3028,4.3878,4.4505,4.5194,4.587,4.5968,4.6066,4.6172,4.6198,4.624,4.6296,4.63,4.6301,4.6299,4.6308,4.6258,4.6203,4.6178,4.6085,4.6003,4.5972,4.5896,4.5807,4.5807,4.5765,4.5723,4.5723,4.5754,4.5803,4.5803,4.5805,4.5803,4.5803,4.5803,4.5803,4.5803,4.5803,4.561,4.5045,0.0,0.0,0.0,0.0,0.0,0.0,4.3534,4.315,4.1777,4.1854,0.0,0.0,0.0,0.0,0.0,0.0,0.0,0.0,0.0,0.0,0.0,4.3166,4.402,4.5455,4.5958,4.6171,4.6209,4.708,4.7966,4.8817,4.9436,4.9838,5.0109,5.067,5.0898,5.0999,5.1858,5.2206,5.2302,5.3173,5.404,5.4804,4.8062,4.8779,4.9375,4.9375,5.0091,5.0668,5.0707,5.0707,5.0707,5.0707,5.0707,5.0707,5.0707,5.0707,5.0341,4.9471,4.8606,4.7774,4.6947,4.6086,4.5614,0.0,0.0,4.5594,4.5594,4.5594,4.5594,4.5594,0.0,0.0,4.3066,0.0,4.2677,4.4239,4.4259,4.4744,4.5575,4.5642,4.5735,4.5814,4.5959,4.6044,4.6117,4.6171,4.6236,4.6306,4.6297,4.6301,4.6299,4.6308,4.6258,4.618,4.6128,4.6047,4.5991,4.592,4.5857,4.5807,4.5807,4.5807,4.5807,4.5807,4.5794,4.5803,4.5803,4.5803,4.5803,4.5803,4.5803,4.5803,4.5803,4.5803,4.5803,4.5784,0.0,0.0,0.0,0.0,0.0,0.0,4.4056,4.3592,4.1064,4.1529,0.0,0.0,0.0,0.0,0.0,0.0,0.0,4.0797,4.0797,0.0,4.2009,4.2879,4.3746,4.4636,4.6283,4.708,4.7119,4.7985,4.8856,4.9684,4.9703,5.0148,5.0898,5.0898,5.0898,5.0999,5.1858,5.2206,5.2302,5.3173,5.4039,5.4802,4.899,4.9687,5.0284,5.0284,5.0515,5.0707,5.0707,5.0707,5.0707,5.0707,5.0707,5.0707,5.0707,5.0168,4.9452,0.0,4.7755,4.6908,0.0,4.5744,4.5594,4.5594,4.5594,4.5594,4.5594,4.5594,4.5594,4.5594,0.0,0.0,0.0,4.3624,4.3797,4.434,4.4917,4.534,4.5599,4.5675,4.5742,4.5814,4.5959,4.6044,4.6113,4.6165,4.6212,4.6233,4.6238,4.6239,4.6236,4.6231,4.6191,4.6128,4.6043,4.6015,4.5997,4.5926,4.5854,4.5805,4.5805,4.5805,4.5805,4.5805,4.5796,4.5803,4.5803,4.5803,4.5803,4.5803,4.5803,4.5803,4.5803,4.5803,4.5803,4.5803,4.5803,0.0,0.0,0.0,0.0,0.0,4.3534,4.3169,0.0,4.2396,0.0,0.0,0.0,0.0,0.0,0.0,0.0,0.0,4.0797,0.0,4.199,4.286,4.4001,4.5436,4.6558,4.7713,4.888,4.9151,4.9782,5.0655,5.0655,5.0791,5.1039,5.0994,5.0967,5.1118,5.2523,5.3095,5.327,5.4677,5.541,5.569,4.9899,5.0322,5.0707,5.0707,5.0707,5.0707,5.0707,5.0707,5.0707,5.0707,5.0707,5.0707,5.0707,4.963,0.0,4.8139,4.7351,4.6528,4.5667,4.5594,4.5594,4.5594,4.5594,4.5594,4.5594,4.5594,0.0,4.5594,4.5594,4.5321,4.4782,4.4782,4.4782,4.4801,4.5359,4.5594,4.5599,4.5671,4.5723,4.5771,4.5903,4.6,4.6065,4.6133,4.6162,4.6162,4.6168,4.6167,4.6157,4.6167,4.6129,4.6089,4.6054,4.6021,4.5992,4.5911,4.5851,4.5803,4.5803,4.5803,4.5803,4.5803,4.5803,4.5803,4.5803,4.5803,4.5803,4.5803,4.5803,4.5803,4.5803,4.5803,4.5803,4.5803,4.5803,4.5803,4.5803,0.0,0.0,0.0,0.0,0.0,0.0,4.2783,4.3301,0.0,0.0,0.0,0.0,0.0,0.0,4.1722,4.1741,0.0,4.2976,4.3827,4.4933,4.6306,4.7505,4.882,5.0195,5.0195,5.0514,5.1098,5.1104,5.1107,5.1098,5.1027,5.1009,5.1176,5.286,5.351,5.3739,5.5418,5.6074,5.6145,5.0707,5.0707,5.0707,0.0,5.0707,0.0,5.0707,5.0707,5.0707,5.0707,5.0707,5.0668,5.0611,4.9106,4.8082,4.8024,0.0,0.0,0.0,4.5594,4.5594,4.5594,4.5594,4.5594,4.5594,4.5594,4.5594,4.5594,4.5594,4.5594,4.5594,4.5594,4.5594,4.5594,4.5594,4.5594,4.5594,4.5661,4.5702,4.5712,4.5833,4.5935,4.6003,4.6067,4.6082,4.6084,4.6084,4.6098,4.6095,4.6093,4.6087,4.6084,4.6081,4.606,4.5986,4.5922,4.5857,4.5803,4.5803,4.5803,4.5803,4.5803,4.5803,4.5803,4.5803,4.5803,4.5803,4.5803,4.5803,4.5803,4.5803,4.5803,4.5803,4.5803,4.5803,4.5803,4.5803,0.0,0.0,0.0,0.0,0.0,0.0,4.2957,4.3479,0.0,0.0,0.0,0.0,0.0,4.2589,4.3282,4.3359,4.3785,4.4597,4.5455,4.6364,4.7293,4.8972,5.0213,5.1012,5.1012,5.1039,5.1105,5.1108,5.1115,5.1108,5.1032,5.1039,5.1268,5.2887,5.3576,5.3886,5.5505,5.6141,5.6213,0.0,0.0,5.0707,5.0707,5.0707,5.0707,5.0707,5.0707,5.0707,5.0707,5.0707,5.0457,4.9784,4.8759,4.7851,4.7235,4.6394,4.5821,4.5614,4.5594,4.5594,4.5594,4.5594,4.5594,4.5594,4.5594,4.5594,4.5594,4.5594,4.5594,4.5594,4.5594,4.5594,4.5594,4.5594,4.5594,4.5594,4.5661,4.5705,4.5706,4.5791,4.5864,4.5932,4.5992,4.6019,4.6019,4.6024,4.5989,4.5944,4.5955,4.5989,4.6025,4.6019,4.6008,4.5989,4.5931,4.5854,4.5803,4.5803,4.5803,4.5803,4.5803,4.5803,4.5803,4.5803,4.5803,4.5803,4.5803,4.5803,4.5803,4.5803,4.5803,4.5803,4.5803,4.5803,4.5803,4.5803,4.5104,0.0,0.0,4.4288,4.421,4.3998,4.4736,4.5204,0.0,0.0,0.0,0.0,4.501,4.4411,4.3321,4.3959,4.4384,4.4597,4.6051,4.756,4.9107,5.0128,5.0786,5.1087,5.1079,5.1104,5.118,5.1172,5.1207,5.1249,5.1127,5.1476,5.2172,5.3175,5.3989,5.4723,5.5786,5.6217,5.6281,5.0707,5.0707,5.0707,5.0707,5.0707,5.0707,5.0707,5.0707,5.0707,5.0707,5.0707,5.0361,4.949,4.8625,4.7774,4.6966,4.6105,4.5594,4.5594,4.5594,4.5594,4.5594,4.5594,4.5594,4.5594,4.5594,4.5594,4.5594,4.5594,4.5594,4.5594,4.5594,4.5594,4.5594,4.5594,4.5594,4.5594,4.564,4.5648,4.5657,4.5731,4.5788,4.5812,4.5883,4.5912,4.5912,4.5947,4.5912,4.5867,4.5899,4.592,4.5963,4.6025,4.6027,4.5997,4.5994,4.592,4.5854,4.5854,4.5854,4.5854,4.5854,4.5854,4.5854,4.5854,4.5854,4.5854,4.5854,4.5854,4.5854,4.5854,4.5854,4.5854,4.5854,4.5854,4.5854,4.5854,4.5154,0.0,4.4647,4.4612,4.4602,4.4602,4.5327,4.5803,4.5803,4.5761,0.0,4.6408,4.6814,4.642,4.5084,4.5877,4.6531,4.6937,4.8236,4.9369,5.0294,5.0774,5.1037,5.1108,5.1108,5.1156,5.1241,5.122,5.1239,5.1294,5.1181,5.1658,5.2525,5.3329,5.4206,5.5094,5.5964,5.6324,5.6383,5.0707,5.0707,5.0707,5.0707,5.0707,5.0707,5.0707,5.0707,5.0707,5.0707,5.0592,5.0168,4.9298,4.8432,4.7582,4.6774,4.6033,4.5594,4.5594,4.5594,4.5594,4.5594,4.5594,4.5594,4.5594,4.5594,4.5594,4.5594,4.5594,4.5594,4.5594,4.5594,4.5594,4.5594,4.5594,4.5594,4.5594,4.5594,4.5594,4.5618,4.5669,4.5695,4.5715,4.5775,4.5803,4.581,4.586,4.585,4.5814,4.588,4.5905,4.5926,4.6048,4.6042,4.6032,4.6078,4.6019,4.5935,4.5926,4.5926,4.5913,4.5938,4.5938,4.5938,4.5938,4.5938,4.5938,4.5938,4.5938,4.5938,4.5938,4.5916,4.5913,4.5913,4.5791,4.5752,4.5891,0.0,4.4793,4.5064,4.5037,4.5054,4.5183,4.5811,4.622,4.622,4.689,4.7326,4.7384,4.8217,4.8322,4.7523,4.8213,4.9002,4.9888,5.0622,5.1012,5.1027,5.1078,5.1111,5.1117,5.1125,5.1211,5.1312,5.1256,5.1257,5.1306,5.1247,5.1737,5.2591,5.3404,5.4307,5.5225,5.6084,5.6447,5.6497,5.0707,5.0707,5.0707,5.0707,5.0707,5.0707,5.0707,5.0707,5.0707,5.0707,5.0053,4.926,4.8394,4.7562,4.674,4.5879,4.5686,4.5594,4.5594,4.5594,4.5594,4.5594,4.5594,4.5594,4.5594,4.5594,4.5594,4.5594,4.5594,4.5594,4.5594,4.5594,4.5594,4.5594,4.5594,4.5594,4.5594,4.5594,4.5594,4.5618,4.5664,4.57,4.5715,4.5775,4.5803,4.5807,4.581,4.581,4.581,4.5874,4.5906,4.5901,4.5989,4.6059,4.6098,4.6104,4.6082,4.6064,4.5999,4.5985,4.6008,4.6049,4.6073,4.6073,4.6073,4.6073,4.6073,4.6073,4.6073,4.6073,4.6073,4.6018,4.5983,4.5983,4.538,4.5139,4.5881,0.0,4.5245,4.6718,4.6887,4.7151,4.7824,4.8017,4.8071,4.8071,4.8158,4.8236,4.8291,4.9072,4.947,4.9381,4.9467,4.9917,5.0785,5.0928,5.1022,5.1082,5.1091,5.112,5.1198,5.1241,5.1317,5.1389,5.1364,5.1379,5.138,5.1316,5.179,5.2665,5.353,5.4411,5.5282,5.6164,5.6496,5.6517,5.0707,5.0707,5.0707,5.0707,5.0707,5.0707,5.0707,5.0707,5.0534,5.0053,4.9649,4.8894,4.7601,4.712,4.6547,4.5686,4.5594,4.5594,4.5594,4.5594,4.5594,4.5594,4.5594,4.5594,4.5594,4.5594,4.5594,4.5594,4.5594,4.5594,4.5594,4.5594,4.5594,4.5594,4.5594,4.5594,4.5594,4.5594,4.5594,4.5618,4.5667,4.5691,4.5699,4.5719,4.5776,4.5798,4.5796,4.5817,4.5864,4.5935,4.5943,4.5966,4.6024,4.609,4.6105,4.6108,4.6096,4.6093,4.6065,4.6052,4.6067,4.614,4.6148,4.6288,4.6748,4.6847,4.6986,4.7416,4.7494,4.7377,4.6927,4.6821,4.666,4.6189,4.5763,0.0,0.0,4.6124,4.6452,4.7266,4.7741,4.8147,4.8523,4.8512,4.8504,4.8504,4.8878,4.9133,4.9193,4.9991,5.048,5.0555,5.0484,5.0641,5.1049,5.1085,5.1119,5.1161,5.1181,5.1224,5.1245,5.1281,5.1348,5.1396,5.139,5.1399,5.1394,5.1363,5.1868,5.2749,5.3605,5.4483,5.5366,5.623,5.6549,5.6555,5.0649,5.0707,5.0707,5.0707,5.0707,5.0707,5.0707,5.0534,5.0168,4.949,4.9067,4.8336,4.7043,4.6716,4.6336,4.5667,4.5594,4.5594,4.5594,4.5594,4.5594,4.5594,4.5594,4.5594,4.5594,4.5594,4.5594,4.5594,4.5594,4.5594,4.5594,4.5594,4.5594,4.5594,4.5594,4.5594,4.5594,4.5594,4.5594,4.5618,4.5673,4.5694,4.5702,4.5727,4.5772,4.5831,4.5831,4.5887,4.5921,4.5983,4.5997,4.6003,4.6068,4.6081,4.6085,4.6073,4.608,4.6087,4.6101,4.6113,4.6144,4.6196,4.6347,4.6687,4.7343,4.766,4.7976,4.8601,4.8718,4.8523,4.7916,4.7796,4.7579,4.6915,0.0,0.0,0.0,4.7161,4.7564,4.7954,4.8553,4.9007,4.9196,4.9146,4.9099,4.9099,4.9656,5.0011,5.0108,5.0732,5.1131,5.1199,5.1131,5.1102,5.112,5.1175,5.1215,5.1215,5.1291,5.1322,5.1329,5.1311,5.1342,5.1395,5.1407,5.1393,5.1401,5.1398,5.1907,5.2788,5.3667,5.4526,5.5405,5.6287,5.66,5.66,5.0534,5.0707,5.0707,5.0707,5.0707,5.0707,5.0707,5.0014,4.9471,4.9413,4.8048,4.7043,4.6908,4.6182,4.5667,4.5614,4.5594,4.5594,4.5594,4.5594,4.5594,4.5594,4.5594,4.5594,4.5594,4.5594,4.5594,4.5594,4.5594,4.5594,4.5594,4.5594,4.5594,4.5594,4.5594,4.5594,4.5594,4.5594,4.5594,4.5599,4.5668,4.57,4.5715,4.5845,4.589,4.5902,4.5955,4.5986,4.5989,4.6003,4.5997,4.5997,4.6,4.6003,4.6008,4.6019,4.6007,4.6022,4.6074,4.6142,4.6181,4.62,4.6809,4.7412,4.7491,4.8126,4.8718,4.8777,4.8796,4.8777,4.8718,4.8691,4.8684,4.8625,0.0,0.0,4.8487,4.7956,4.8071,4.9629,4.9865,5.0182,5.0939,5.0946,5.0919,5.0919,5.0847,5.0879,5.0997,5.1078,5.1131,5.1199,5.1138,5.113,5.1186,5.1193,5.1235,5.1291,5.1368,5.1388,5.1389,5.1394,5.14,5.1404,5.1404,5.1405,5.1406,5.1406,5.1914,5.2793,5.3652,5.4531,5.541,5.6289,5.6601,5.6601,4.9822,5.0322,5.0707,5.0707,5.0707,5.0707,5.0707,4.9957,4.9202,4.8663,4.7601,4.6697,4.6144,4.5802,4.5594,4.5594,4.5594,4.5594,4.5594,4.5594,4.5594,4.5594,4.5594,4.5594,4.5594,4.5594,4.5594,4.5594,4.5594,4.5594,4.5594,4.5594,4.5594,4.5594,4.5594,4.5594,4.5594,4.5594,4.5594,4.5618,4.5662,4.5706,4.5718,4.5795,4.5833,4.5851,4.5906,4.594,4.5944,4.5932,4.5949,4.5949,4.5949,4.5949,4.5929,4.5941,4.5947,4.6069,4.6624,4.6863,4.6943,4.6936,4.7605,4.8383,4.8939,4.9317,4.9691,5.0239,5.0357,5.0204,4.9703,4.9605,4.9428,4.8887,0.0,4.8413,4.8748,4.8946,4.9282,4.9925,5.0444,5.0852,5.1172,5.1143,5.1097,5.1097,5.1012,5.1005,5.1094,5.114,5.1175,5.1199,5.1705,5.1736,5.1261,5.1801,5.2103,5.2183,5.2741,5.3009,5.2982,5.2456,5.2205,5.2187,5.1621,5.1406,5.1445,5.1973,5.2402,5.2832,5.4258,5.5019,5.541,5.6289,5.6601,5.6601,4.9298,4.988,5.038,5.0649,5.0707,5.0707,5.0707,4.9726,4.8779,4.8178,4.7163,4.6259,4.5667,4.5594,4.5594,4.5594,4.5594,4.5594,4.5594,4.5594,4.5594,4.5594,4.5594,4.5594,4.5594,4.5594,4.5594,4.5594,4.5594,4.5594,4.5594,4.5594,4.5594,4.5594,4.5594,4.5594,4.5594,4.5594,4.5594,4.5618,4.5661,4.5701,4.5713,4.5769,4.5801,4.581,4.588,4.589,4.5908,4.5899,4.5893,4.5893,4.588,4.5877,4.5916,4.6206,4.6284,4.6478,4.7346,4.7845,4.8063,4.7801,4.842,4.9226,4.9825,5.0183,5.0559,5.1146,5.1263,5.1094,5.0547,5.0452,5.026,4.9687,4.9595,4.9582,4.9582,5.0052,5.0408,5.0408,5.0872,5.1189,5.1178,5.1137,5.1094,5.1064,5.1275,5.1441,5.1499,5.1576,5.1608,5.162,5.2207,5.2405,5.2121,5.2731,5.3055,5.3113,5.3709,5.399,5.3978,5.3376,5.3104,5.3066,5.248,5.2226,5.2266,5.2851,5.3262,5.3633,5.4824,5.5469,5.5781,5.6387,5.6601,5.6601,4.9048,4.9394,4.9668,5.0534,5.0707,5.0707,5.0707,4.9221,4.8101,4.8101,4.6648,4.5594,4.5594,4.5594,4.5594,4.5594,4.5594,4.5594,4.5594,4.5594,4.5594,4.5594,4.5594,4.5594,4.5594,4.5594,4.5594,4.5594,4.5594,4.5594,4.5594,4.5594,4.5594,4.5594,4.5594,4.5594,4.5594,4.5594,4.5594,4.5618,4.5661,4.5701,4.5713,4.576,4.5803,4.5814,4.5883,4.5908,4.5905,4.5909,4.59,4.5893,4.5817,4.5803,4.5977,4.6848,4.7099,4.7293,4.8179,4.9044,4.9516,4.8703,4.9218,4.9906,4.9906,5.0588,5.1208,5.1208,5.1208,5.1215,5.1224,5.123,5.1237,5.1314,5.1318,5.1318,5.1318,5.1302,5.1308,5.1308,5.1245,5.1178,5.1105,5.1118,5.1083,5.1028,5.1826,5.2341,5.2404,5.2472,5.2502,5.2514,5.2586,5.3036,5.3892,5.3986,5.402,5.401,5.402,5.4024,5.4023,5.4017,5.4001,5.4002,5.4004,5.4004,5.4004,5.4004,5.4512,5.5293,5.5312,5.584,5.6601,5.6601,5.6601,5.6601,4.7543,4.8586,4.9471,4.9745,5.0284,5.0707,5.0707,4.9221,4.8101,4.8101,4.6648,4.5594,4.5594,4.5594,4.5594,4.5594,4.5594,4.5594,4.5594,4.5594,4.5594,4.5594,4.5594,4.5594,4.5594,4.5594,4.5594,4.5594,4.5594,4.5594,4.5594,4.5594,4.5594,4.5594,4.5594,4.5594,4.5594,4.5594,4.5594,4.5594,4.5627,4.5631,4.5644,4.5708,4.5723,4.5734,4.581,4.5838,4.5834,4.5824,4.5821,4.584,4.5807,4.6229,4.6751,4.7022,4.7521,4.8198,4.9088,4.9502,4.964,4.9399,5.0048,5.0736,5.0736,5.1386,5.1978,5.1978,5.246,5.2877,5.2889,5.2873,5.2904,5.2975,5.2941,5.2713,5.2152,5.2031,5.178,5.1236,5.114,5.1124,5.1092,5.161,5.1926,5.1915,5.2716,5.3268,5.3385,5.34,5.3408,5.3417,5.4077,5.4546,5.4808,5.4888,5.4914,5.4928,5.5477,5.5751,5.5732,5.5177,5.4913,5.4881,5.4277,5.4004,5.4043,5.4668,5.5078,5.5351,5.5976,5.6367,5.6601,5.6601,5.6601,5.6601,4.6831,4.7966,4.899,4.9336,5.0111,5.0707,5.0707,4.9221,4.8101,4.8101,4.6648,4.5594,4.5594,4.5594,4.5594,4.5594,4.5594,4.5594,4.5594,4.5594,4.5594,4.5594,4.5594,4.5594,4.5594,4.5594,4.5594,4.5594,4.5594,4.5594,4.5594,4.5594,4.5594,4.5594,4.5594,4.5594,4.5594,4.5594,4.5594,4.5594,4.5594,4.5622,4.5648,4.568,4.5715,4.5739,4.5782,4.5803,4.5803,4.5803,4.5803,4.5861,4.6209,4.6674,4.7235,4.7927,4.8508,4.9107,4.9954,5.0167,5.0175,5.0162,5.0591,5.1109,5.1461,5.1911,5.2356,5.2705,5.3185,5.3565,5.3559,5.3566,5.3577,5.3657,5.3624,5.3435,5.2935,5.284,5.2632,5.2144,5.2086,5.2079,5.2045,5.2488,5.2918,5.3251,5.3778,5.413,5.4273,5.4279,5.43,5.4357,5.4902,5.5373,5.5706,5.5777,5.5639,5.5272,5.5784,5.5821,5.546,5.5349,5.5302,5.5289,5.5117,5.5039,5.5078,5.5605,5.5801,5.5879,5.6387,5.6601,5.6601,5.6601,5.6601,5.6601,4.662,4.7485,4.8355,4.9144,5.0072,5.0707,5.0707,4.9221,4.8101,4.8101,4.6648,4.5594,4.5594,4.5594,4.5594,4.5594,4.5594,4.5594,4.5594,4.5594,4.5594,4.5594,4.5594,4.5594,4.5594,4.5594,4.5594,4.5594,4.5594,4.5594,4.5594,4.5594,4.5594,4.5594,4.5594,4.5594,4.5594,4.5594,4.5594,4.5594,4.5618,4.5644,4.5705,4.5715,4.5754,4.5792,4.5793,4.5803,4.5803,4.5803,4.5842,4.6055,4.6848,4.7215,4.7637,4.9223,4.9742,4.9974,5.0709,5.0898,5.0917,5.0999,5.1018,5.1211,5.2012,5.2322,5.2651,5.3444,5.3676,5.3723,5.3716,5.3724,5.3735,5.3796,5.38,5.3781,5.3726,5.3707,5.3687,5.361,5.359,5.3576,5.3515,5.3569,5.3979,5.4859,5.4917,5.497,5.512,5.5123,5.5183,5.5312,5.5315,5.5693,5.6504,5.6562,5.6123,5.5204,5.5274,5.4818,5.3933,5.4783,5.5187,5.5227,5.6112,5.6484,5.6484,5.6562,5.6601,5.6601,5.6601,5.6601,5.6601,5.6601,5.6601,5.6601,4.584,4.7086,4.8159,4.8355,4.9668,5.0707,5.0707,4.9221,4.8101,4.8101,4.6648,4.5594,4.5594,4.5594,4.5594,4.5594,4.5594,4.5594,4.5594,4.5594,4.5594,4.5594,4.5594,4.5594,4.5594,4.5594,4.5594,4.5594,4.5594,4.5594,4.5594,4.5594,4.5594,4.5594,4.5594,4.5594,4.5594,4.5594,4.5594,4.5594,4.5652,4.5693,4.5709,4.5766,4.58,4.5792,4.5793,4.5803,4.5803,4.5803,4.6248,4.6848,4.7041,4.8043,4.9204,4.9591,5.0148,5.0689,5.084,5.0898,5.1057,5.1757,5.1916,5.1974,5.2167,5.327,5.4291,5.4484,5.5026,5.5451,5.5459,5.5459,5.5464,5.5472,5.5476,5.5263,5.4629,5.4532,5.43,5.3603,5.3526,5.3522,5.3494,5.411,5.488,5.5745,5.5827,5.5881,5.6016,5.6019,5.6069,5.6211,5.6217,5.6322,5.6571,5.6597,5.6139,5.5197,5.5279,5.4818,5.3913,5.4171,5.4284,5.4329,5.5195,5.5586,5.5625,5.6328,5.6601,5.6601,5.6601,5.6601,5.6601,5.6601,5.6601,5.6601,4.5594,4.6951,4.8101,4.8101,4.9529,5.0707,5.0707,4.9221,4.8101,4.8101,4.6648,4.5594,4.5594,4.5594,4.5594,4.5594,4.5594,4.5594,4.5594,4.5594,4.5594,4.5594,4.5594,4.5594,4.5594,4.5594,4.5594,4.5594,4.5594,4.5594,4.5594,4.5594,4.5594,4.5594,4.5594,4.5594,4.5594,4.5635,4.5644,4.5648,4.5694,4.5722,4.5746,4.5792,4.5799,4.5798,4.5796,4.5803,4.5861,4.6287,4.6712,4.7254,4.8082,4.8972,4.978,5.0167,5.0573,5.0898,5.0898,5.0898,5.1115,5.1974,5.2515,5.2921,5.3347,5.4155,5.4909,5.5296,5.5718,5.6008,5.6008,5.6008,5.6008,5.6008,5.6008,5.5853,5.5432,5.5374,5.52,5.4755,5.4697,5.4697,5.4697,5.5103,5.5556,5.6022,5.6046,5.6114,5.6257,5.6241,5.6309,5.6457,5.6449,5.6499,5.6592,5.6605,5.613,5.5248,5.4852,5.3982,5.2715,5.316,5.3389,5.3434,5.4296,5.4687,5.4746,5.5625,5.5976,5.6015,5.6445,5.6601,5.6601,5.6601,5.6601,5.6601,4.5594,4.6951,4.8101,4.8101,4.9529,5.0707,5.0707,4.9356,4.8274,4.812,4.6759,4.5763,4.5614,4.5594,4.5594,4.5594,4.5594,4.5594,4.5594,4.5594,4.5594,4.5594,4.5594,4.5594,4.5594,4.5594,4.5594,4.5594,4.5594,4.5594,4.5594,4.5594,4.5594,4.5594,4.5594,4.5594,4.5594,4.5661,4.5701,4.5705,4.5715,4.5758,4.5807,4.5795,4.5798,4.5803,4.5803,4.59,4.6132,4.6867,4.7293,4.7792,4.9243,4.978,5.0032,5.0709,5.0898,5.0937,5.1076,5.1115,5.1366,5.2399,5.3192,5.3942,5.4813,5.5006,5.52,5.5853,5.6008,5.6008,5.6008,5.6008,5.6008,5.6008,5.6008,5.6008,5.6008,5.6008,5.6008,5.6008,5.6008,5.6008,5.6008,5.6008,5.6008,5.6008,5.6008,5.6069,5.6195,5.6206,5.6253,5.6403,5.641,5.6481,5.6592,5.6593,5.6161,5.5296,5.4566,5.3307,5.1636,5.2211,5.2475,5.2538,5.3398,5.3789,5.3867,5.4883,5.5293,5.539,5.6269,5.6601,5.6601,5.6601,5.6601,5.6601,4.5594,4.6951,4.8101,4.8101,4.9529,5.0707,5.0707,4.9861,4.8952,4.8197,4.7293,4.6432,4.5686,4.5594,4.5594,4.5594,4.5594,4.5594,4.5594,4.5594,4.5594,4.5594,4.5594,4.5594,4.5594,4.5594,4.5594,4.5594,4.5594,4.5594,4.5594,4.5594,4.5594,4.5594,4.5594,4.5594,4.5594,4.5661,4.5701,4.5709,4.577,4.5781,4.5792,4.5805,4.58,4.5803,4.5803,4.6287,4.6945,4.7061,4.8101,4.9397,4.9626,5.0186,5.0763,5.0859,5.0898,5.1057,5.1815,5.2012,5.2418,5.4039,5.4542,5.4832,5.564,5.5834,5.5872,5.5988,5.6008,5.6008,5.6008,5.6008,5.6008,5.6008,5.6008,5.6008,5.6008,5.6008,5.6008,5.6008,5.6008,5.6008,5.6008,5.6008,5.6008,5.6008,5.6008,5.6069,5.6195,5.6193,5.6258,5.6405,5.6462,5.6511,5.6592,5.6593,5.6163,5.5304,5.5186,5.4202,5.2507,5.1861,5.1577,5.1619,5.25,5.2871,5.3008,5.4629,5.5293,5.539,5.6269,5.6601,5.6601,5.6601,5.6601,5.6601,4.5594,4.6951,4.8101,4.8101,4.9529,5.0707,5.0707,4.9553,4.8548,4.8139,4.6971,4.6033,4.5629,4.5594,4.5594,4.5594,4.5594,4.5594,4.5594,4.5594,4.5594,4.5594,4.5594,4.5594,4.5594,4.5594,4.5594,4.5594,4.5594,4.5594,4.5594,4.5594,4.5594,4.5594,4.5594,4.5627,4.5652,4.5698,4.5711,4.5758,4.5795,4.5798,4.5801,4.58,4.5803,4.5861,4.6345,4.677,4.7254,4.8217,4.9068,4.978,5.0225,5.0612,5.0898,5.0898,5.1231,5.1718,5.2109,5.2554,5.3231,5.4484,5.4793,5.5006,5.5814,5.6008,5.6008,5.6008,5.6008,5.6008,5.6008,5.6008,5.6008,5.6008,5.6008,5.6008,5.6008,5.6008,5.6008,5.6008,5.6008,5.6008,5.6008,5.6008,5.6008,5.6008,5.6008,5.6069,5.6195,5.6197,5.6261,5.6405,5.6475,5.6521,5.6592,5.6598,5.6404,5.6011,5.5524,5.4388,5.2699,5.2298,5.1853,5.1425,5.1816,5.1973,5.207,5.332,5.4121,5.4668,5.5527,5.6172,5.6601,5.6601,5.6601,5.6601]}]]